     2              OBSERVATION DATA    GPS                 RINEX VERSION / TYPE
teqc 2000Jul20 Karen Wendt 20040122 20:49:34UTC             PGM / RUN BY / DATE
                                                            COMMENT
L2: 1 -> 1; 150 -> 5; 250 -> 9                              COMMENT
L2: 1 -> 1; 150 -> 5; 250 -> 9                              COMMENT
L2: 1 -> 1; 150 -> 5; 250 -> 9                              COMMENT
L2: 1 -> 1; 150 -> 5; 250 -> 9                              COMMENT
L2: 1 -> 1; 150 -> 5; 250 -> 9                              COMMENT
L2: 1 -> 1; 150 -> 5; 250 -> 9                              COMMENT
L2: 1 -> 1; 150 -> 5; 250 -> 9                              COMMENT
L2: 1 -> 1; 150 -> 5; 250 -> 9                              COMMENT
L2: 1 -> 1; 150 -> 5; 250 -> 9                              COMMENT
L2: 1 -> 1; 150 -> 5; 250 -> 9                              COMMENT
L2: 1 -> 1; 150 -> 5; 250 -> 9                              COMMENT
L2: 1 -> 1; 150 -> 5; 250 -> 9                              COMMENT
L2: 1 -> 1; 150 -> 5; 250 -> 9                              COMMENT
L2: 1 -> 1; 150 -> 5; 250 -> 9                              COMMENT
Original Marker Name: 2069 2069_smtpd_SLO_101_PM_5229_05LL_1COMMENT
Campaign Name: USGS San Simeon 2003-2004                    COMMENT
4-Character Station Name: 2069                              COMMENT
6-Character Antenna Code: DMRCHT                            COMMENT
Vertical Measurement Point: BCR                             COMMENT
Vertical Offset to Rinex Ref. Point: 0.0348                 COMMENT
Radial Measurement Point: ECF                               COMMENT
Radial Offset to Rinex Ref. Point: 0.1897                   COMMENT
Antenna Height from Field Measurement: 1.4980 m             COMMENT
Additional Antenna Identification Info.:                    COMMENT
Turborogue and Ashtech Choke Ring                           COMMENT
Original XYZ: -2652417.5217 -4466126.1898 3689200.3706      COMMENT
New XYZ position is based on association with SCEC monument COMMENT
E1F1B1O7+0011. Position of that monument is believed to be  COMMENT
valid to within 1 m horizontally; vertical accuracy         COMMENT
should be no worse than 3-times this value.                 COMMENT
                                                            COMMENT
Revised Rinex header created by UCSD GPS archive for        COMMENT
GSAC on 20-Apr-2005 (2005:110) 16:30:31 GMT                 COMMENT
For assistance contact dagnew@ucsd.edu                      COMMENT
or anderson@python.ucsd.edu                                 COMMENT
                                                            COMMENT
S101 01 PM 5229 05LL 1993                                   MARKER NAME
JMS US GEOLOGICAL SURVEY                                    OBSERVER / AGENCY
LP019992809 ASHTECH Z-XII3 CD00                             REC # / TYPE / VERS
CR619992805 DORNE-MARGOL. TYPE T                            ANT # / TYPE
 -2652433.0000 -4466104.0000  3689192.0000                  APPROX POSITION XYZ
        1.4511        0.0000        0.0000                  ANTENNA: DELTA H/E/N
     1     1     0                                          WAVELENGTH FACT L1/2
     5    C1    L1    L2    P1    P2                        # / TYPES OF OBSERV
    30                                                      INTERVAL
  2004     1    17     0     0   30.000000                  TIME OF FIRST OBS
  2004     1    17    23    59   30.000000                  TIME OF LAST OBS
                                                            END OF HEADER
 04  1 17  0  0 30.0000000  0  7G 6G 5G21G24G30G10G17
  21140262.335   -14334608.57949 -10974548.23247  21140261.901    21140267.884
  22298241.774    -7808850.36049  -6066049.85647  22298240.959    22298248.170
  22854557.165    -5554736.56649  -3664568.22646  22854556.349    22854562.369
  23670929.961      920175.52649   1002673.47846  23670929.576    23670937.745
  20423010.540   -15282162.55049 -11885725.22348  20423010.484    20423016.059
  21133694.371   -16889576.15949 -13133018.97947  21133693.249    21133700.107
  21141307.383   -14016698.16449 -10643673.58347  21141306.578    21141313.646
 04  1 17  0  1  0.0000000  0  7G 6G 5G21G24G30G10G17
  21130965.014   -14383466.30249 -11012619.14148  21130964.588    21130970.536
  22316338.871    -7713749.00649  -5991944.95347  22316338.051    22316345.365
  22840957.979    -5626199.76749  -3720253.72846  22840957.175    22840963.270
  23686747.393     1003296.20849   1067442.85046  23686746.946    23686754.934
  20429869.164   -15246120.12649 -11857640.20548  20429869.116    20429874.649
  21139644.049   -16858310.16149 -13108655.82847  21139642.910    21139649.748
  21149619.014   -13973020.51849 -10609639.03547  21149618.164    21149625.219
 04  1 17  0  1 30.0000000  0  7G 6G 5G21G24G30G10G17
  21121704.771   -14432129.32849 -11050538.34548  21121704.348    21121710.263
  22334487.196    -7618379.36249  -5917631.00147  22334486.247    22334493.589
  22827400.645    -5697443.91049  -3775768.54846  22827399.770    22827405.803
  23702565.658     1086422.01649   1132216.21046  23702565.186    23702573.138
  20436836.090   -15209508.88149 -11829111.95348  20436836.023    20436841.528
  21145709.918   -16826433.48249 -13083816.82647  21145708.751    21145715.592
  21157975.036   -13929109.16149 -10575422.37547  21157974.239    21157981.244
 04  1 17  0  2  0.0000000  0  7G 6G 5G21G24G30G10G17
  21112479.495   -14480608.46649 -11088314.26348  21112479.045    21112484.954
  22352683.543    -7522756.17149  -5843119.47246  22352682.720    22352690.102
  22813882.733    -5768480.65649  -3831121.75146  22813881.889    22813887.766
  23718382.452     1169539.61349   1196983.17246  23718381.956    23718389.841
  20443908.736   -15172342.38049 -11800151.03948  20443908.636    20443914.068
  21151889.368   -16793959.55349 -13058512.44247  21151888.253    21151895.122
  21166373.020   -13884977.63249 -10541034.16147  21166372.195    21166379.181
 04  1 17  0  2 30.0000000  0  7G 6G 5G21G24G30G10G17
  21103291.789   -14528890.18149 -11125936.34348  21103291.335    21103297.233
  22370930.103    -7426869.81949  -5768402.87946  22370929.337    22370936.675
  22800406.519    -5839297.07449  -3886303.28346  22800405.808    22800411.650
  23734199.778     1252660.21149   1261752.47746  23734199.276    23734206.934
  20451089.136   -15134609.38949 -11770748.71048  20451089.035    20451094.388
  21158184.544   -16760877.83249 -13032734.45647  21158183.434    21158190.328
  21174814.976   -13840614.87449 -10506465.76247  21174814.161    21174821.130
 04  1 17  0  3  0.0000000  0  7G 6G 5G21G24G30G10G17
  21094140.447   -14576980.85849 -11163409.56048  21094140.001    21094145.909
  22389224.992    -7330730.61849  -5693489.26646  22389224.082    22389231.359
  22786970.779    -5909900.77649  -3941319.05746  22786970.249    22786976.089
  23750016.047     1335774.91149   1326517.17846  23750015.546    23750022.860
  20458375.611   -15096319.02049 -11740912.05848  20458375.491    20458380.765
  21164593.695   -16727197.26049 -13006489.83147  21164592.628    21164599.537
  21183299.174   -13796030.20049 -10471724.44647  21183298.358    21183305.322
 04  1 17  0  3 30.0000000  0  7G 6G 5G21G24G30G10G17
  21085026.199   -14624876.65249 -11200730.92048  21085025.720    21085031.658
  22407567.801    -7234338.99149  -5618378.94546  22407566.854    22407574.008
  22773576.296    -5980289.71549  -3996167.47946  22773575.632    22773581.343
  23765831.538     1418885.33149   1391278.54945  23765830.998    23765838.160
  20465768.383   -15057470.17549 -11710640.22048  20465768.243    20465773.494
  21171117.021   -16692916.93349 -12979777.86647  21171115.911    21171122.840
  21191825.800   -13751222.64449 -10436809.45047  21191824.935    21191831.908
 04  1 17  0  4  0.0000000  0  7G 6G 5G21G24G30G10G17
  21075948.743   -14672578.82149 -11237901.39948  21075948.285    21075954.274
  22425957.452    -7137700.09749  -5543075.93646  22425956.653    22425963.726
  22760222.240    -6050466.10249  -4050850.28746  22760221.427    22760227.052
  23781645.200     1501987.53649   1456033.50645  23781644.660    23781651.839
  20473266.626   -15018066.65049 -11679936.17048  20473266.512    20473271.735
  21177753.667   -16658040.98749 -12952601.78647  21177752.577    21177759.540
  21200393.994   -13706196.20249 -10401723.90247  21200393.143    21200400.130
 04  1 17  0  4 30.0000000  0  7G 6G 5G21G24G30G10G17
  21066909.440   -14720080.48849 -11274915.64548  21066909.012    21066915.010
  22444394.939    -7040810.99749  -5467577.97146  22444394.099    22444401.027
  22746909.613    -6120424.52549  -4105363.24046  22746908.613    22746914.301
  23797458.046     1585085.85249   1520785.43545  23797457.533    23797464.957
  20480871.177   -14978104.53249 -11648796.85548  20480871.058    20480876.294
  21184504.340   -16622565.45849 -12924958.49747  21184503.284    21184510.272
  21209004.621   -13660946.94049 -10366464.72747  21209003.832    21209010.789
 04  1 17  0  5  0.0000000  0  7G 6G 5G21G24G30G10G17
  21057907.501   -14767385.84349 -11311776.93248  21057907.054    21057913.063
  22462878.606    -6943679.77149  -5391891.34746  22462877.554    22462884.396
  22733637.427    -6190169.69149  -4159710.03846  22733636.431    22733642.122
  23813268.963     1668173.80649   1585529.29345  23813268.497    23813276.329
  20488580.637   -14937590.72949 -11617227.66248  20488580.571    20488585.763
  21191367.860   -16586497.20449 -12896853.35647  21191366.782    21191373.857
  21217656.349   -13615481.70749 -10331037.27247  21217655.563    21217662.490
 04  1 17  0  5 30.0000000  0  7G 6G 5G21G24G30G10G17
  21048944.097   -14814488.76049 -11348480.47748  21048943.639    21048949.618
  22481408.382    -6846304.20149  -5316014.31146  22481407.475    22481414.281
  22720406.778    -6259696.63949  -4213886.79546  22720405.830    22720411.496
  23829078.572     1751255.18049   1650268.04045  23829078.222    23829086.065
  20496395.789   -14896521.74149 -11585225.85648  20496395.711    20496400.889
  21198344.704   -16549833.29349 -12868284.06547  21198343.622    21198350.741
  21226349.867   -13569797.13049 -10295438.89647  21226349.054    21226355.904
 04  1 17  0  6  0.0000000  0  7G 6G 5G21G24G30G10G17
  21040019.575   -14861387.38849 -11385024.82048  21040019.098    21040025.088
  22499984.429    -6748686.43849  -5239948.54646  22499983.476    22499990.331
  22707217.580    -6329005.52449  -4267893.64346  22707216.731    22707222.339
  23844887.066     1834329.52049   1715001.30145  23844886.639    23844894.370
  20504316.421   -14854898.50949 -11552792.16248  20504316.347    20504321.503
  21205434.709   -16512574.76049 -12839251.42247  21205433.634    21205440.826
  21235085.017   -13523894.18449 -10259670.35947  21235084.137    21235090.877
 04  1 17  0  6 30.0000000  0  7G 6G 5G21G24G30G10G17
  21031133.083   -14908086.03349 -11421413.34148  21031132.610    21031138.618
  22518604.842    -6650834.75949  -5163700.52446  22518603.945    22518610.886
  22694069.030    -6398101.32949  -4321734.44346  22694068.204    22694073.702
  23860692.758     1917389.90649   1779723.67445  23860692.357    23860699.995
  20512341.198   -14812728.12449 -11519932.11948  20512341.102    20512346.226
  21212636.440   -16474728.92049 -12809761.14147  21212635.418    21212642.628
  21243860.319   -13477779.91149 -10223737.14647  21243859.432    21243866.069
 04  1 17  0  7  0.0000000  0  7G 6G 5G21G24G30G10G17
  21022285.670   -14954579.22949 -11457641.77848  21022285.195    21022291.273
  22537270.023    -6552748.00749  -5087269.32846  22537269.173    22537276.204
  22680961.927    -6466979.47149  -4375405.65546  22680961.057    22680966.467
  23876496.337     2000439.31949   1844437.50945  23876496.015    23876503.712
  20520470.556   -14770008.14949 -11486643.83248  20520470.464    20520475.553
  21219950.479   -16436293.36449 -12779811.33247  21219949.425    21219956.650
  21252676.278   -13431451.51749 -10187637.09447  21252675.429    21252682.064
 04  1 17  0  7 30.0000000  0  7G 6G 5G21G24G30G10G17
  21013477.552   -15000866.09849 -11493709.43148  21013477.063    21013483.210
  22555979.507    -6454429.14649  -5010657.27846  22555978.631    22555985.734
  22667896.055    -6535640.96849  -4428908.02646  22667895.093    22667900.485
  23892297.643     2083476.09249   1909141.47145  23892297.397    23892305.354
  20528704.121   -14726740.53849 -11452928.80848  20528704.004    20528709.089
  21227376.255   -16397270.41549 -12749403.81947  21227375.224    21227382.498
  21261532.631   -13384911.24149 -10151371.93747  21261531.758    21261538.389
 04  1 17  0  8  0.0000000  0  7G 6G 5G21G24G30G10G17
  21004708.705   -15046946.32349 -11529616.07348  21004708.223    21004714.422
  22574732.345    -6355881.81849  -4933867.17946  22574731.608    22574738.714
  22654871.263    -6604086.59149  -4482242.19746  22654870.240    22654875.608
  23908096.272     2166498.61049   1973834.33945  23908096.040    23908104.412
  20537041.395   -14682927.86349 -11418789.06348  20537041.302    20537046.360
  21234913.363   -16357662.46349 -12718540.46547  21234912.326    21234919.647
  21270428.836   -13338161.37649 -10114943.46747  21270427.939    21270434.620
 04  1 17  0  8 30.0000000  0  7G 6G 5G21G24G30G10G17
  20995979.668   -15092817.25149 -11565359.62248  20995979.206    20995985.463
  22593528.649    -6257107.50749  -4856900.22046  22593527.816    22593535.028
  22641887.747    -6672314.66049  -4535406.86446  22641886.818    22641892.091
  23923892.315     2249506.91949   2038516.12945  23923892.034    23923900.374
  20545482.302   -14638570.32449 -11384224.74148  20545482.239    20545487.312
  21242561.710   -16317469.99049 -12687221.63947  21242560.671    21242568.066
  21279364.783   -13291202.03749 -10078351.77247  21279363.923    21279370.671
 04  1 17  0  9  0.0000000  0  7G 6G 5G21G24G30G10G17
  20987290.997   -15138476.63349 -11600938.32448  20987290.521    20987296.714
  22612367.624    -6158108.17749  -4779757.92946  22612366.844    22612374.160
  22628945.922    -6740324.11549  -4588401.16446  22628945.017    22628950.216
  23939685.626     2332500.91449   2103186.76845  23939685.311    23939693.328
  20554026.708   -14593668.72849 -11349236.48548  20554026.674    20554031.809
  21250321.070   -16276694.21049 -12655448.28147  21250320.050    21250327.416
  21288340.500   -13244033.82749 -10041597.31747  21288339.669    21288346.438
 04  1 17  0  9 30.0000000  0  7G 6G 5G21G24G30G10G17
  20978641.352   -15183930.95549 -11636357.24848  20978640.839    20978646.982
  22631247.680    -6058893.75449  -4702448.03946  22631246.794    22631254.230
  22616044.277    -6808122.85149  -4641231.27846  22616043.349    22616048.401
  23955474.814     2415471.59149   2167839.26645  23955474.390    23955482.010
  20562672.906   -14548232.48049 -11313831.61848  20562672.888    20562678.026
  21258189.612   -16235344.80049 -12623227.94547  21258188.582    21258195.895
  21297354.297   -13196665.88949 -10004687.23647  21297353.449    21297360.229
 04  1 17  0 10  0.0000000  0  7G 6G 5G21G24G30G10G17
  20970032.150   -15229172.21349 -11671610.14648  20970031.659    20970037.787
  22650169.065    -5959460.71949  -4624967.78246  22650168.305    22650175.844
  22603184.008    -6875704.13549  -4693891.93946  22603183.042    22603187.998
  23971260.393     2498424.97849   2232478.25945  23971259.952    23971267.884
  20571421.820   -14502256.59749 -11278006.25848  20571421.761    20571426.900
  21266168.289   -16193417.00049 -12590556.89947  21266167.209    21266174.396
  21306407.189   -13149093.11849  -9967617.54047  21306406.242    21306413.058
 04  1 17  0 10 30.0000000  0  7G 6G 5G21G24G30G10G17
  20961465.233   -15274191.01149 -11706689.69748  20961464.810    20961470.957
  22669133.236    -5859803.45149  -4547312.80446  22669132.436    22669140.168
  22590366.609    -6943060.00149  -4746376.95446  22590365.595    22590370.419
  23987044.157     2581367.84549   2297109.04545  23987043.675    23987051.487
  20580274.608   -14455734.60449 -11241755.35648  20580274.572    20580279.696
  21274258.121   -16150904.48349 -12557430.23747  21274257.058    21274264.237
  21315500.004   -13101308.98149  -9930383.14547  21315499.177    21315506.068
 04  1 17  0 11  0.0000000  0  7G 6G 5G21G24G30G10G17
  20952939.381   -15318994.15149 -11741601.20448  20952938.972    20952945.136
  22688138.039    -5759933.21249  -4469491.88446  22688137.100    22688145.001
  22577590.467    -7010198.51449  -4798692.60646  22577589.510    22577594.337
  24002824.176     2664290.93549   2361724.43245  24002823.610    24002831.363
  20589229.471   -14408676.58249 -11205086.76748  20589229.413    20589234.513
  21282457.367   -16107817.31849 -12523855.79247  21282456.282    21282463.441
  21324631.498   -13053322.77349  -9892991.29147  21324630.655    21324637.528
 04  1 17  0 11 30.0000000  0  8G29G 6G 5G21G24G30G10G17
                  -1139894.41949   -877347.36943
  20944454.657   -15363581.69249 -11776344.71948  20944454.226    20944460.348
  22707182.119    -5659853.99649  -4391508.12146  22707181.476    22707189.569
  22564855.417    -7077120.82449  -4850839.78346  22564854.507    22564859.505
  24018599.936     2747191.88449   2426322.57645  24018599.460    24018606.601
  20598285.697   -14361085.60049 -11168002.88648  20598285.644    20598290.754
  21290765.169   -16064158.90549 -12489836.23247  21290764.121    21290771.350
  21333800.864   -13005137.68749  -9855444.46247  21333799.938    21333806.842
 04  1 17  0 12  0.0000000  0  8G29G 6G 5G21G24G30G10G17
                  -1210033.00349   -932001.60243
  20936011.937   -15407948.76249 -11810916.43948  20936011.471    20936017.513
  22726266.389    -5559564.97449  -4313360.87346  22726265.774    22726274.112
  22552162.273    -7143823.56649  -4902815.86646  22552161.354    22552166.362
  24034371.680     2830073.19949   2490905.41745  24034371.201    24034378.113
  20607443.690   -14312959.85149 -11130502.29948  20607443.634    20607448.760
  21299182.122   -16019927.50849 -12455370.18947  21299181.044    21299188.302
  21343008.336   -12956751.64349  -9817741.03947  21343007.493    21343014.395
 04  1 17  0 12 30.0000000  0  8G29G 6G 5G21G24G30G10G17
                  -1280063.34349   -986571.30143
  20927611.015   -15452096.17249 -11845317.00048  20927610.527    20927616.512
  22745389.927    -5459071.40449  -4235054.25246  22745389.005    22745397.507
  22539510.517    -7210308.82549  -4954622.50446  22539509.463    22539514.575
  24050139.183     2912931.62249   2555470.42045  24050138.585    24050145.426
  20616702.701   -14264303.37549 -11092588.17048  20616702.634    20616707.815
  21307707.237   -15975127.61049 -12420461.17047  21307706.182    21307713.437
  21352253.486   -12908168.27949  -9779883.87647  21352252.633    21352259.505
 04  1 17  0 13  0.0000000  0  7G 6G 5G21G24G30G10G17
  20919252.315   -15496021.09349 -11879544.18648  20919251.863    20919257.822
  22764551.816    -5358374.19749  -4156588.92246  22764550.980    22764559.705
  22526900.124    -7276575.29249  -5006258.63646  22526899.203    22526904.528
  24065902.262     2995767.36949   2620017.75445  24065901.673    24065908.753
  20626062.562   -14215116.46149 -11054260.70148  20626062.514    20626067.760
  21316340.589   -15929759.34349 -12385109.25347  21316339.485    21316346.653
  21361536.196   -12859387.41749  -9741872.81447  21361535.327    21361542.234
 04  1 17  0 13 30.0000000  0  7G 6G 5G21G24G30G10G17
  20910936.246   -15539722.12149 -11913596.91148  20910935.800    20910941.725
  22783751.760    -5257475.97349  -4077966.97146  22783751.167    22783760.107
  22514331.385    -7342622.78349  -5057724.13646  22514330.584    22514336.077
  24081660.996     3078579.67749   2684546.83045  24081660.453    24081667.405
  20635523.131   -14165400.98549 -11015521.37448  20635523.065    20635528.365
  21325081.753   -15883824.56049 -12349315.89647  21325080.584    21325087.672
  21370856.152   -12810410.55249  -9703709.01747  21370855.275    21370862.243
 04  1 17  0 14  0.0000000  0  8G29G 6G 5G21G24G30G10G17
                  -1489468.82449   -962004.53143
  20902662.765   -15583199.42549 -11947475.30748  20902662.308    20902668.179
  22802989.532    -5156381.08149  -3999191.77646  22802988.879    22802997.937
  22501804.144    -7408452.78649  -5109020.17146  22501803.416    22501809.061
  24097414.793     3161365.99549   2749055.63245  24097414.307    24097421.090
  20645083.610   -14115160.21649 -10976372.73248  20645083.586    20645088.881
  21333929.772   -15837327.40749 -12313084.33747  21333928.678    21333935.729
  21380212.744   -12761240.66049  -9665394.81747  21380211.887    21380219.026
 04  1 17  0 14 30.0000000  0  8G29G 6G 5G21G24G30G10G17
                  -1559030.56349   -829174.74043
  20894432.910   -15626447.52049 -11981175.09748  20894432.426    20894438.288
  22822265.039    -5055088.29449  -3920262.38746  22822264.216    22822273.395
  22489319.186    -7474061.25849  -5160143.59246  22489318.369    22489324.158
  24113164.419     3244129.77949   2813546.90445  24113163.913    24113170.488
  20654744.508   -14064391.93949 -10936813.03548  20654744.448    20654749.754
  21342885.271   -15790265.65449 -12276412.82247  21342884.179    21342891.223
  21389606.643   -12711875.11349  -9626928.15247  21389605.794    21389613.089
 04  1 17  0 15  0.0000000  0  8G29G 6G 5G21G24G30G10G17
                  -1628472.26049   -883259.42743
  20886245.594   -15669471.63949 -12014700.35948  20886245.124    20886251.062
  22841576.435    -4953606.92249  -3841186.03246  22841575.487    22841584.737
  22476875.052    -7539454.77349  -5211099.50246  22476874.164    22476880.188
  24128908.141     3326863.58449   2878014.77845  24128907.585    24128914.374
  20664504.114   -14013104.62449 -10896848.90048  20664504.092    20664509.416
  21351946.665   -15742647.53849 -12239307.77347  21351945.586    21351952.609
  21399036.367   -12662321.72049  -9588315.11847  21399035.536    21399042.834
 04  1 17  0 15 30.0000000  0  7G 6G 5G21G24G30G10G17
  20878100.108   -15712276.28249 -12048054.59548  20878099.642    20878105.638
  22860922.024    -4851945.49849  -3761969.37446  22860921.034    22860930.414
  22464470.732    -7604638.87649  -5261892.23946  22464469.871    22464476.032
  24144644.750     3409560.38149   2942453.84545  24144644.241    24144651.360
  20674361.056   -13961305.95049 -10856486.31048  20674361.048    20674366.374
  21361112.368   -15694481.26649 -12201775.59547  21361111.221    21361118.238
  21408500.462   -12612587.79549  -9549561.40647  21408499.614    21408506.911
 04  1 17  0 16  0.0000000  0  7G 6G 5G21G24G30G10G17
  20870002.880   -15754827.34549 -12081211.24148  20870002.418    20870008.436
  22880307.315    -4750074.31149  -3682589.27546  22880306.424    22880315.977
  22452112.218    -7669581.54549  -5312496.87146  22452111.517    22452117.829
  24160380.440     3492251.74749   3006888.68045  24160379.807    24160387.385
  20684321.057   -13908965.35949 -10815701.44348  20684321.112    20684326.481
  21370388.123   -15645736.27249 -12163792.47347  21370387.039    21370394.131
  21418004.824   -12562642.20949  -9510642.76547  21418004.004    21418011.305
 04  1 17  0 16 30.0000000  0  7G 6G 5G21G24G30G10G17
  20861948.802   -15797151.55049 -12114191.10848  20861948.364    20861954.346
  22899726.858    -4648024.04249  -3603069.62946  22899725.930    22899735.621
  22439794.598    -7734310.40249  -5362934.86846  22439793.904    22439800.316
  24176109.610     3574908.93549   3071296.88245  24176108.839    24176116.725
  20694378.540   -13856112.73349 -10774517.58048  20694378.610    20694384.013
  21379768.359   -15596442.90849 -12125382.04647  21379767.205    21379774.286
  21427543.920   -12512514.27449  -9471582.02847  21427543.100    21427550.372
 04  1 17  0 17  0.0000000  0  7G 6G 5G21G24G30G10G17
  20853939.526   -15839240.62049 -12146987.75148  20853939.048    20853945.005
  22919181.226    -4545790.54649  -3523407.19946  22919180.272    22919190.119
  22427518.920    -7798818.72849  -5413201.03046  22427518.303    22427524.755
  24191832.919     3657537.52449   3135682.78845  24191832.403    24191840.238
  20704534.431   -13802743.22049 -10732930.94948  20704534.459    20704539.915
  21389253.860   -15546596.50849 -12086540.67947  21389252.708    21389259.714
  21437118.727   -12462198.58949  -9432374.99847  21437117.862    21437125.187
 04  1 17  0 17 30.0000000  0  7G 6G 5G21G24G30G10G17
  20845974.430   -15881097.48549 -12179603.46648  20845973.923    20845979.873
  22938669.159    -4443380.87449  -3443607.50646  22938668.170    22938678.118
  22415284.647    -7863110.77449  -5463298.67646  22415283.872    22415290.368
  24207550.199     3740132.64049   3200042.60645  24207549.534    24207557.789
  20714787.550   -13748863.07749 -10690946.43948  20714787.561    20714793.002
  21398843.355   -15496203.22049 -12047273.17947  21398842.210    21398849.145
  21446728.059   -12411701.05949  -9393026.27647  21446727.240    21446734.636
 04  1 17  0 18  0.0000000  0  7G 6G 5G21G24G30G10G17
  20838054.291   -15922717.73649 -12212034.79348  20838053.766    20838059.764
  22958190.537    -4340794.84749  -3363670.38846  22958189.656    22958199.708
  22403092.121    -7927183.42249  -5513225.34946  22403091.292    22403097.733
  24223261.378     3822696.22249   3264377.86645  24223260.716    24223269.236
  20725138.024   -13694471.20749 -10648563.17148  20725137.986    20725143.432
  21408537.017   -15445262.46549 -12007579.07147  21408535.869    21408542.782
  21456372.369   -12361019.96949  -9353534.50647  21456371.533    21456378.945
 04  1 17  0 18 30.0000000  0  7G 6G 5G21G24G30G10G17
  20830179.443   -15964099.51149 -12244280.30348  20830178.997    20830185.035
  22977745.159    -4238034.68749  -3283597.57946  22977744.289    22977754.460
  22390941.273    -7991036.56249  -5562980.98346  22390940.435    22390946.854
  24238966.526     3905228.04449   3328688.37145  24238965.782    24238974.720
  20735585.558   -13639569.17149 -10605782.37748  20735585.503    20735590.949
  21418334.578   -15393775.84849 -11967459.62147  21418333.466    21418340.348
  21466051.501   -12310156.01049  -9313900.24747  21466050.652    21466058.036
 04  1 17  0 19  0.0000000  0  7G 6G 5G21G24G30G10G17
  20822350.467   -16005241.07349 -12276338.63048  20822350.027    20822356.034
  22997332.703    -4135102.75749  -3203390.94346  22997331.679    22997341.779
  22378832.107    -8054669.82449  -5612565.29446  22378831.347    22378837.789
  24254665.609     3987727.66949   3392973.78845  24254664.844    24254673.956
  20746129.752   -13584158.88049 -10562605.53048  20746129.733    20746135.201
  21428235.676   -15341745.20549 -11926916.24647  21428234.542    21428241.394
  21475765.190   -12259110.22449  -9274124.30347  21475764.318    21475771.711
 04  1 17  0 19 30.0000000  0  7G 6G 5G21G24G30G10G17
  20814567.128   -16046143.03349 -12308210.25848  20814566.655    20814572.601
  23016951.947    -4032003.98249  -3123054.28546  23016950.817    23016960.913
  22366764.570    -8118085.04149  -5661979.69646  22366763.901    22366770.304
  24270358.283     4070191.70549   3457231.49845  24270357.441    24270366.391
  20756769.980   -13528244.16749 -10519035.63548  20756769.967    20756775.438
  21438239.506   -15289174.78949 -11885952.26847  21438238.336    21438245.232
  21485512.759   -12207886.20949  -9234209.47247  21485511.910    21485519.341
 04  1 17  0 20  0.0000000  0  7G 6G 5G21G24G30G10G17
  20806829.936   -16086802.53249 -12339892.96048  20806829.432    20806835.297
  23036602.397    -3928739.75449  -3042588.69346  23036601.473    23036611.511
  22354739.046    -8181280.95149  -5711223.20547  22354738.177    22354744.545
  24286043.855     4152620.94749   3521462.09245  24286043.233    24286052.098
  20767506.053   -13471825.66049 -10475073.17448  20767506.065    20767511.534
  21448345.808   -15236065.42649 -11844568.34447  21448344.680    21448351.656
  21495294.235   -12156483.87149  -9194155.70347  21495293.398    21495300.888
 04  1 17  0 20 30.0000000  0  7G 6G 5G21G24G30G10G17
  20799139.545   -16127216.00049 -12371383.94948  20799139.036    20799144.826
  23056284.613    -3825310.47849  -2961994.50646  23056283.557    23056293.476
  22342755.440    -8244255.55749  -5760294.27347  22342754.483    22342760.791
  24301723.203     4235016.88449   3585666.73044  24301722.706    24301731.121
  20778337.954   -13414903.45249 -10430718.21247  20778337.996    20778343.470
  21458554.704   -15182417.43149 -11802764.69447  21458553.612    21458560.509
  21505109.849   -12104902.42449  -9153962.35647  21505109.013    21505116.506
 04  1 17  0 21  0.0000000  0  7G 6G 5G21G24G30G10G17
  20791495.954   -16167383.31249 -12402683.13248  20791495.457    20791501.229
  23075997.545    -3721719.95949  -2881274.66846  23075996.390    23076006.131
  22330813.554    -8307010.32449  -5809194.03647  22330812.620    22330818.932
  24317396.170     4317377.25949   3649843.64744  24317395.786    24317403.559
  20789265.168   -13357480.77349 -10385973.28647  20789265.181    20789270.640
  21468865.552   -15128234.16249 -11760543.95347  21468864.384    21468871.211
  21514959.173   -12053144.45949  -9113631.46747  21514958.274    21514965.732
 04  1 17  0 21 30.0000000  0  7G 6G 5G21G24G30G10G17
  20783899.231   -16207304.27649 -12433790.35348  20783898.756    20783904.502
  23095740.141    -3617972.45349  -2800432.49846  23095739.132    23095748.636
  22318913.157    -8369546.14749  -5857923.20047  22318912.339    22318918.691
  24333061.728     4399699.99049   3713991.26944  24333061.462    24333069.163
  20800286.987   -13299561.24849 -10340841.19447  20800286.941    20800292.358
  21479277.536   -15073519.18349 -11717908.88647  21479276.337    21479283.160
  21524841.401   -12001212.58149  -9073165.06147  21524840.563    21524848.002
 04  1 17  0 22  0.0000000  0  7G 6G 5G21G24G30G10G17
  20776350.386   -16246973.66449 -12464701.54348  20776349.912    20776355.650
  23115512.910    -3514066.95549  -2719467.22346  23115511.913    23115521.273
  22307055.366    -8431859.33849  -5906478.88047  22307054.568    22307060.877
  24348720.441     4481987.95949   3778111.79744  24348720.034    24348728.134
  20811403.629   -13241143.02049 -10295320.50647  20811403.585    20811408.985
  21489790.694   -15018271.11149 -11674858.43247  21489789.608    21489796.511
  21534757.269   -11949104.32949  -9032561.22047  21534756.418    21534763.807
 04  1 17  0 22 30.0000000  0  7G 6G 5G21G24G30G10G17
  20768849.234   -16286392.61849 -12495417.58748  20768848.765    20768854.506
  23135314.730    -3410008.76049  -2638382.95446  23135313.775    23135322.881
  22295239.479    -8493952.76949  -5954863.31147  22295238.588    22295244.830
  24364372.098     4564237.97049   3842202.77444  24364371.346    24364379.473
  20822614.245   -13182230.85449 -10249414.92247  20822614.194    20822619.579
  21500404.540   -14962494.79349 -11631396.35247  21500403.500    21500410.483
  21544705.848   -11896823.76349  -8991823.10447  21544705.011    21544712.370
 04  1 17  0 23  0.0000000  0  7G 6G 5G21G24G30G10G17
  20761395.245   -16325563.44849 -12525940.29548  20761394.785    20761400.557
  23155144.343    -3305804.50649  -2557184.88446  23155143.418    23155152.265
  22283464.596    -8555830.10949  -6003079.36447  22283463.679    22283469.919
  24380015.835     4646445.06449   3906260.28844  24380015.305    24380021.949
  20833917.792   -13122830.64549 -10203129.05047  20833917.729    20833923.106
  21511117.857   -14906196.24249 -11587527.33947  21511116.764    21511123.740
  21554686.363   -11844375.75049  -8950954.50847  21554685.552    21554692.793
 04  1 17  0 23 30.0000000  0  7G 6G 5G21G24G30G10G17
  20753990.451   -16364475.90549 -12556261.67748  20753989.952    20753995.746
  23175002.914    -3201447.95649  -2475868.13846  23175001.979    23175010.716
  22271732.493    -8617482.56049  -6051120.18947  22271731.591    22271737.739
  24395653.173     4728617.57749   3970290.87944  24395651.923    24395659.113
  20845315.478   -13062935.75549 -10156457.71447  20845315.388    20845320.767
  21521931.769   -14849369.08049 -11543246.42447  21521930.657    21521937.605
  21564700.190   -11791753.01349  -8909949.76747  21564699.369    21564706.461
 04  1 17  0 24  0.0000000  0  7G 6G 5G21G24G30G10G17
  20746633.967   -16403134.33549 -12586385.10348  20746633.475    20746639.275
  23194888.876    -3096947.50949  -2394439.27746  23194887.953    23194896.482
  22260041.803    -8678916.23249  -6098990.52447  22260041.054    22260047.218
  24411281.864     4810749.00848   4034289.46144  24411280.474    24411288.188
  20856805.797   -13002554.16249 -10109407.12048  20856805.704    20856811.059
  21532844.637   -14792021.41649 -11498559.91547  21532843.543    21532850.525
  21574745.941   -11738962.32749  -8868814.15347  21574745.125    21574752.147
 04  1 17  0 24 30.0000000  0  7G 6G 5G21G24G30G10G17
  20739326.865   -16441532.96049 -12616306.08948  20739326.403    20739332.219
  23214802.465    -2992301.69349  -2312897.13446  23214801.517    23214809.952
  22248393.827    -8740126.77649  -6146686.99447  22248393.018    22248399.182
  24426903.111     4892842.76048   4098258.63744                  24426901.466
  20868389.068   -12941683.93149 -10061975.77248  20868389.005    20868394.301
  21543856.908   -14734151.56549 -11453466.51247  21543855.839    21543862.794
  21584824.176   -11686001.07149  -8827545.62747  21584823.328    21584830.298
 04  1 17  0 25  0.0000000  0  7G 6G 5G21G24G30G10G17
  20732068.804   -16479674.04549 -12646026.39348  20732068.338    20732074.232
  23234742.339    -2887517.06149  -2231246.84646  23234741.432    23234749.826
  22236787.630    -8801117.96449  -6194212.52747  22236786.703    22236792.884
  24442517.000     4974894.28748   4162194.89844                  24442516.656
  20880064.222   -12880330.80749 -10014168.14848  20880064.172    20880069.409
  21554967.467   -14675765.43549 -11407970.80947  21554966.377    21554973.306
  21594933.844   -11632874.06249  -8786147.94347  21594933.019    21594939.961
 04  1 17  0 25 30.0000000  0  7G 6G 5G21G24G30G10G17
  20724860.138   -16517555.67849 -12675544.51948  20724859.658    20724865.645
  23254708.273    -2782595.83849  -2149490.10046  23254707.391    23254715.721
  22225223.156    -8861889.24049  -6241566.70847  22225222.229    22225228.435
  24458122.782     5056904.71058   4226099.18844                  24458122.758
  20891830.977   -12818496.58649  -9965985.63948  20891830.876    20891836.048
  21566175.793   -14616864.92349 -11362074.29447  21566174.718    21566181.687
  21605074.864   -11579582.19949  -8744621.80247  21605074.098    21605081.071
 04  1 17  0 26  0.0000000  0  7G 6G 5G21G24G30G10G17
  20717701.149   -16555176.29549 -12704859.26848  20717700.644    20717706.669
  23274699.819    -2677540.71749  -2067629.03446  23274698.881    23274707.058
  22213700.326    -8922440.82649  -6288749.71047  22213699.536    22213705.806
                   5138871.10558   4289969.38744
  20903688.759   -12756183.48049  -9917429.97948  20903688.687    20903693.815
  21577481.561   -14557452.39249 -11315778.80547  21577480.501    21577487.450
  21615247.164   -11526126.52149  -8702968.02847  21615246.376    21615253.372
 04  1 17  0 26 30.0000000  0  7G 6G 5G21G24G30G10G17
  20710592.872   -16592530.00249 -12733966.02948  20710592.395    20710598.442
  23294717.084    -2572349.80749  -1985662.14546  23294716.144    23294724.223
  22202220.127    -8982768.27149  -6335758.05247  22202219.463    22202225.766
                   5220798.14148   3052189.70643
  20915638.109   -12693389.30149  -9868499.44748  20915638.025    20915643.141
  21588885.151   -14497525.94949 -11269082.86547  21588884.106    21588891.064
  21625451.400   -11472503.71049  -8661184.01147  21625450.512    21625457.482
 04  1 17  0 27  0.0000000  0  7G 6G 5G21G24G30G10G17
  20703534.429   -16629622.18249 -12762869.00548  20703533.962    20703540.012
  23314758.346    -2467032.78449  -1903596.99346  23314757.449    23314765.447
  22190781.586    -9042878.64749  -6382597.25347  22190780.772    22190787.048
                   5302678.30248   3115948.05743
  20927677.289   -12630123.14349  -9819201.14848  20927677.191    20927682.298
  21600384.825   -14437094.89949 -11221993.72547  21600383.776    21600390.724
  21635685.696   -11418722.20849  -8619276.34247  21635684.837    21635691.738
 04  1 17  0 27 30.0000000  0  8G29G 6G 5G21G24G30G10G17
                   -941380.10249   -724831.37043
  20696527.102   -16666446.07449 -12791562.92348  20696526.613    20696532.648
  23334824.030    -2361587.40649  -1821431.80346  23334823.177    23334831.086
  22179385.239    -9102766.34149  -6429262.93347  22179384.452    22179390.687
                   5384515.10648   3179590.28343
  20939806.797   -12566382.14649  -9769532.84748  20939806.674    20939811.796
  21611981.016   -14376156.38549 -11174509.15947  21611979.997    21611986.919
  21645950.962   -11364777.93249  -8577241.83547  21645950.130    21645956.943
 04  1 17  0 28  0.0000000  0  8G29G 6G 5G21G24G30G10G17
                  -1006533.15149   -775599.19543
  20689570.914   -16703001.18849 -12820047.40548  20689570.408    20689576.431
  23354913.452    -2256017.19849  -1739169.34946  23354912.581    23354920.546
  22168030.966    -9162432.70149  -6475756.15147  22168030.282    22168036.428
                   5466308.99948   3068346.12143
  20952025.977   -12502169.47049  -9719497.00148  20952025.914    20952031.095
  21623673.229   -14314713.67749 -11126631.71547  21623672.113    21623679.082
  21656246.870   -11310672.92049  -8535082.07747  21656245.983    21656252.734
 04  1 17  0 28 30.0000000  0  8G29G 6G 5G21G24G30G10G17
                  -1071483.07649   -648799.16943
  20682665.550   -16739289.00849 -12848323.60248  20682665.039    20682671.080
  23375025.379    -2150327.76449  -1656813.97745  23375024.657    23375032.702
  22156718.256    -9221881.12049  -6522079.54847  22156717.604    22156723.695
                   5548054.98748   3132046.10643
  20964333.962   -12437490.44449  -9669097.77348  20964333.884    20964339.159
  21635460.174   -14252772.42149 -11078365.79447  21635459.103    21635466.120
  21666572.401   -11256411.60349  -8492800.52347  21666571.555    21666578.274
 04  1 17  0 29  0.0000000  0  8G29G 6G 5G21G24G30G10G17
                  -1136228.07549   -699251.15943
  20675811.133   -16775308.92049 -12876391.03848  20675810.644    20675816.677
  23395159.432    -2044522.24349  -1574368.16545  23395158.719    23395166.865
  22145447.193    -9281112.25049  -6568233.61147  22145446.327    22145452.325
                   5629752.24548   3195712.64843
  20976730.016   -12372348.40349  -9618337.74748  20976729.972    20976735.336
  21647341.447   -14190335.74749 -11029713.82947  21647340.338    21647347.412
  21676927.359   -11201996.02949  -8450398.76647  21676926.496    21676933.216
 04  1 17  0 29 30.0000000  0  8G 6G 5G21G24G30G10G17G18
  20669008.858   -16811054.91749 -12904245.03948  20669008.383    20669014.470
  23415315.662    -1938599.41149  -1491830.93845  23415315.064    23415323.382
  22134218.016    -9340121.38949  -6614214.71847  22134217.220    22134223.122
                   5711403.77048   3084773.13743
  20989214.642   -12306741.15149  -9567215.22548  20989214.599    20989220.045
  21659317.215   -14127402.08949 -10980674.61447  21659316.168    21659323.297
  21687312.311   -11147422.80549  -8407874.17047  21687311.407    21687318.176
                   -882389.94849   -663701.81443
 04  1 17  0 30  0.0000000  0  8G 6G 5G21G24G30G10G17G18
  20662257.572   -16846532.91549 -12931890.20948  20662257.127    20662263.244
  23435492.266    -1832569.62049  -1409210.37445  23435491.787    23435500.352
  22123029.738    -9398916.35149  -6660028.93647  22123028.956    22123034.712
                   5793001.78849   3148358.45043
  21001785.930   -12240678.49549  -9515737.84248  21001785.876    21001791.401
  21671385.719   -14063981.30949 -10931255.82047  21671384.702    21671391.811
  21697725.491   -11092700.81249  -8365233.65147  21697724.598    21697731.416
                   -992239.21149   -749300.03843
 04  1 17  0 30 30.0000000  0  8G 6G 5G21G24G30G10G17G18
  20655559.827   -16881729.74949 -12959316.29048  20655559.404    20655565.492
  23455691.278    -1726423.74649  -1326499.36245  23455690.713    23455699.189
  22111884.498    -9457485.56049  -6705667.23247  22111883.671    22111889.288
                   5874557.12649   3211919.10043
  21014445.663   -12174151.13349  -9463898.35648  21014445.582    21014451.191
  21683548.811   -14000064.11449 -10881450.20847  21683547.782    21683554.869
  21708169.034   -11037819.54249  -8322469.02447  21708168.128    21708174.975
                  -1102002.81249   -834831.75543
 04  1 17  0 31  0.0000000  0  9G29G 6G 5G21G24G30G10G17G18
                  -1393069.35049   -724410.70943
  20648915.062   -16916648.44049 -12986525.63648  20648914.624    20648920.666
  23475911.320    -1620168.55049  -1243703.15745  23475910.455    23475918.823
  22100781.331    -9515833.43049  -6751133.05847  22100780.448    22100785.897
                   5956065.388 8   1175115.560 1
  21027192.555   -12107165.87349  -9411702.06448  21027192.448    21027198.135
  21695804.994   -13935657.59849 -10831263.31347  21695803.957    21695811.023
  21718641.791   -10982784.63349  -8279584.66647  21718640.898    21718647.752
                  -1211682.71949   -635930.15643
 04  1 17  0 31 30.0000000  0  9G29G 6G 5G21G24G30G10G17G18
                  -1456725.50849   -599613.46143
  20642323.767   -16951285.67449 -13013515.66348  20642323.327    20642329.355
  23496151.911    -1513804.95349  -1160822.51745  23496150.854    23496159.045
  22089720.489    -9573958.55449  -6796425.32147  22089719.625    22089724.999
                   6037527.16448   3163407.48443
  21040026.454   -12039723.31549  -9359149.43348  21040026.363    21040032.095
  21708154.197   -13870762.32949 -10780695.56347  21708153.138    21708160.174
  21729143.900   -10927595.50349  -8236580.14447  21729143.027    21729149.894
                  -1321275.00049   -721316.50343
 04  1 17  0 32  0.0000000  0  8G 6G 5G21G24G30G10G17G18
  20635783.758   -16985653.36249 -13040295.65348  20635783.335    20635789.386
  23516410.174    -1407349.29249  -1077870.13345  23516408.809    23516416.791
  22078699.378    -9631874.65349  -6841554.71247  22078698.545    22078703.864
                   6118928.26849   3226831.80343
  21052944.367   -11971839.41349  -9306252.90048  21052944.280    21052950.031
  21720593.293   -13805394.41949 -10729759.52147  21720592.257    21720599.253
  21739672.571   -10872266.79949  -8193466.86147  21739671.669    21739678.620
                  -1430791.04849   -806640.13843
 04  1 17  0 32 30.0000000  0  9G29G 6G 5G21G24G30G10G17G18
                  -1583380.86449   -698305.27144                  23980673.620
  20629297.002   -17019741.17849 -13066857.55448  20629296.585    20629302.681
  23536686.755    -1300795.49149   -994841.26245  23536685.431    23536693.159
  22067719.873    -9689572.42649  -6886513.96447  22067719.056    22067724.277
                   6200277.16548   3290215.56143
  21065947.468   -11903507.61549  -9253007.35248  21065947.388    21065953.137
  21733123.637   -13739547.36449 -10678450.11547  21733122.572    21733129.528
  21750229.213   -10816790.61849  -8150238.65247  21750228.380    21750235.399
                  -1540219.45949   -609410.51843
 04  1 17  0 33  0.0000000  0  9G29G 6G 5G21G24G30G10G17G18
  23968688.592    -1646343.28048   -747366.85644  23968687.383    23968692.726
  20622868.097   -17053525.21749 -13093182.75748  20622867.676    20622873.782
  23556985.592    -1194123.84349   -911720.56745  23556984.519    23556991.947
  22056786.090    -9747029.68149  -6931285.80947  22056785.256    22056790.434
                   6281595.98048   3179943.19143
  21079039.580   -11834707.93249  -9199397.22648  21079039.535    21079045.324
  21745748.847   -13673201.55649 -10626752.07547  21745747.752    21745754.707
  21760818.136   -10761145.78949  -8106879.03447  21760817.250    21760824.303
                  -1649535.64049   -694584.69243
 04  1 17  0 33 30.0000000  0  9G29G 6G 5G21G24G30G10G17G18
  23956750.569    -1709074.35649   -796248.10044  23956750.337    23956754.300
  20616492.793   -17087027.54049 -13119288.43948  20616492.369    20616498.498
  23577302.230    -1087360.59849   -828528.51045  23577301.014    23577308.254
  22045893.404    -9804270.53749  -6975889.03847  22045892.616    22045897.806
                   6362860.20948   3243338.21443
  21092215.746   -11765466.61549  -9145442.96748  21092215.713    21092221.516
  21758463.905   -13606383.37349 -10574685.95147  21758462.860    21758469.769
  21771434.392   -10705357.24149  -8063407.42747  21771433.520    21771440.539
                  -1758760.76449   -779684.46243
 04  1 17  0 34  0.0000000  0  9G29G 6G 5G21G24G30G10G17G18
  23944858.234    -1771570.85349   -844946.56744  23944858.310    23944863.023
  20610171.444   -17120246.02749 -13145172.94948  20610171.026    20610177.183
  23597635.834     -980507.51049   -745266.44445  23597634.627    23597641.680
  22035042.171    -9861294.12449  -7020322.95347  22035041.358    22035046.542
                   6444070.08848   3306690.86843
  21105475.611   -11695785.29449  -9091145.84648  21105475.583    21105481.440
  21771268.528   -13539094.51149 -10522253.06947  21771267.525    21771274.454
  21782077.873   -10649425.36749  -8019824.13547  21782076.982    21782083.994
                  -1867892.11149   -581228.74943
 04  1 17  0 34 30.0000000  0 10G29G 6G 5G21G24G30G10G17G26G18
  23933010.933    -1833828.37949   -893458.82944  23933010.901    23933016.375
  20603904.664   -17153177.90549 -13170834.12548  20603904.234    20603910.391
  23617986.186     -873566.45349   -661935.81345  23617984.890    23617991.958
  22024232.411    -9918099.43849  -7064586.78847  22024231.612    22024236.812
                   6525226.03648   3196407.82543
  21118818.893   -11625665.46749  -9036507.02648  21118818.916    21118824.814
  21784162.595   -13471336.30349 -10469454.44547  21784161.519    21784168.448
  21792748.571   -10593350.13849  -7976129.13547  21792747.705    21792754.778
                   -787853.80749   -600254.69243
                  -1976926.03349   -666185.06143
 04  1 17  0 35  0.0000000  0 10G29G 6G 5G21G24G30G10G17G26G18
  23921210.530    -1895841.05649   -941780.34344  23921209.960    23921215.580
  20597693.291   -17185818.68449 -13196268.48048  20597692.854    20597699.064
  23638353.430     -766536.81149   -578536.15145  23638352.129    23638358.955
  22013464.764    -9974683.30449  -7108678.07247  22013464.056    22013469.193
                   6606330.73248   3259750.71943
  21132245.838   -11555106.21049  -8981525.80948  21132245.841    21132251.787
  21797145.902   -13403108.27949 -10416289.74847  21797144.861    21797151.843
  21803446.929   -10537129.50949  -7932320.84647  21803446.078    21803453.169
                   -876492.43149   -669319.61243
                  -2085857.19349   -751057.86543
 04  1 17  0 35 30.0000000  0  9G29G 6G 5G21G24G30G10G17G18
  23909456.217    -1957608.57049   -989910.78444  23909455.629    23909461.637
  20591537.102   -17218169.39649 -13221476.79648  20591536.666    20591542.921
  23658736.463     -659423.78949   -495071.52345  23658735.058    23658741.969
  22002738.841   -10031048.58949  -7152599.02047  22002738.121    22002743.226
                   6687380.99748   3323051.22043
  21145755.442   -11484112.72449  -8926206.21847  21145755.438    21145761.441
  21810217.622   -13334415.85949 -10362763.16547  21810216.571    21810223.597
  21814172.255   -10480767.18549  -7888402.13147  21814171.394    21814178.549
                  -2194685.77949   -554510.99343
 04  1 17  0 36  0.0000000  0 10G29G 6G 5G21G24G30G10G17G26G18
  23897748.831    -2019129.97549  -1037849.46244  23897747.664    23897754.763
  20585435.958   -17250230.44949 -13246459.41048  20585435.550    20585441.829
  23679134.381     -552231.90449   -411545.45745  23679132.977    23679139.765
  21992054.145   -10087197.42949  -7196351.31247  21992053.328    21992058.467
                   6768374.67958   3212171.17443
  21159346.769   -11412689.56649  -8870551.82747  21159346.769    21159352.832
  21823376.838   -13265263.57749 -10308878.25547  21823375.791    21823382.804
  21824923.851   -10424266.41049  -7844375.54647  21824922.981    21824930.222
                   -676463.49119   -741662.19143
                  -2303411.47949   -639230.65043
 04  1 17  0 36 30.0000000  0 10G29G 6G 5G21G24G30G10G17G26G18
  23886090.116    -2080397.22949  -1085590.09845  23886089.074    23886096.342
  20579391.361   -17281994.98949 -13271210.97448  20579390.954    20579397.171
  23699547.801     -444958.60449   -327955.93945  23699546.464    23699553.372
  21981411.519   -10143124.45649  -7239930.76547  21981410.756    21981415.913
                   6849316.39557   3275135.95043
  21173020.368   -11340833.94849  -8814560.45147  21173020.383    21173026.498
  21836624.064   -13195648.97849 -10254633.09647  21836622.991    21836630.051
  21835702.542   -10367623.02749  -7800237.82747  21835701.728    21835709.031
                   -764837.09549   -557624.05943
                  -2412027.17049   -723863.87243
 04  1 17  0 37  0.0000000  0  9G29G 6G 5G21G30G10G17G26G18
  23874479.641    -2141409.94549  -1133132.41645  23874478.662    23874485.993
  20573403.051   -17313463.97349 -13295732.23948  20573402.610    20573408.812
  23719975.558     -337609.34249   -244307.24945  23719974.273    23719981.192
  21970810.618   -10198832.30949  -7283339.43247  21970809.865    21970815.042
  21186775.304   -11268550.73449  -8758235.88947  21186775.341    21186781.544
  21849958.191   -13125577.13049 -10200031.64147  21849957.150    21849964.248
  21846507.855   -10310840.35849  -7755991.58247  21846507.008    21846514.393
                   -853115.68349   -626411.10643
                  -2520532.45649   -526458.71143
 04  1 17  0 37 30.0000000  0  8G29G 6G 5G21G30G10G17G18
  23862919.110    -2202160.77049  -1180470.66145  23862918.126    23862925.521
  20567471.996   -17344631.54549 -13320018.62948  20567471.556    20567477.781
  23740417.886     -230182.30749   -160597.93945  23740416.981    23740423.659
  21960252.265   -10254316.90049  -7326574.11947  21960251.494    21960256.629
  21200611.918   -11195838.37649  -8701576.92547  21200611.972    21200618.269
  21863379.737   -13055046.25749 -10145072.50047  21863378.708    21863385.824
  21857340.263   -10253915.41349  -7711634.46947  21857339.409    21857346.828
                  -2628920.92349   -610915.09643
 04  1 17  0 38  0.0000000  0  8G29G 6G 5G21G30G10G17G18
  23851407.910    -2262652.62649  -1227607.06245  23851406.905    23851413.868
  20561597.536   -17375501.71549 -13344073.28848  20561597.103    20561603.345
  23760873.640     -122685.51649    -76834.26545  23760873.062    23760879.068
  21949735.304   -10309583.87349  -7369639.23847  21949734.525    21949739.649
  21214528.714   -11122704.79549  -8644589.73547  21214528.787    21214535.191
  21876887.056   -12984064.32949 -10089761.89747  21876886.017    21876893.147
  21868198.538   -10196854.73549  -7667171.59247  21868197.642    21868205.094
                  -2737195.80449   -695281.60643
 04  1 17  0 38 30.0000000  0  9G29G 6G 5G21G30G10G17G26G18
  23839946.443    -2322881.79749  -1274538.74945  23839945.580    23839952.156
  20555780.105   -17406072.28349 -13367894.49048  20555779.670    20555785.914
  23781342.533      -15121.28349      6981.91444  23781341.721    23781347.788
  21939259.834   -10364632.90649  -7412534.52747  21939258.977    21939264.172
  21228525.304   -11049152.10849  -8587275.97147  21228525.368    21228531.827
  21890479.713   -12912633.61249 -10034101.59447  21890478.697    21890485.945
  21879082.532   -10139658.88649  -7622603.39347  21879081.627    21879089.110
                   -748942.19749   -560570.83943
                  -2845354.37349   -498520.08843
 04  1 17  0 39  0.0000000  0  9G29G 6G 5G21G30G10G17G26G18
  23828536.439    -2382840.55949  -1321259.76145  23828535.538    23828541.976
  20550021.008   -17436336.70349 -13391477.14048  20550020.547    20550026.759
  23801824.991       92513.04949     90852.76344  23801823.660    23801829.541
  21928826.713   -10419458.65249  -7455255.84147  21928825.990    21928831.184
  21242602.315   -10975177.53749  -8529633.47447  21242602.272    21242608.719
  21904158.287   -12840751.84649  -9978089.82247  21904157.288    21904164.618
  21889992.973   -10082323.67349  -7577926.60547  21889992.084    21889999.606
                   -836798.10449   -629027.04843
                  -2953389.01049   -582701.38943
 04  1 17  0 39 30.0000000  0  8G29G 6G 5G21G30G10G17G18
  23817177.356    -2442530.76049  -1367771.53445  23817176.852    23817183.268
  20544319.547   -17466298.18749 -13414823.73248  20544319.064    20544325.240
  23822319.146      200209.94549    174772.36244  23822317.813    23822323.551
  21918435.400   -10474066.24549  -7497807.15647  21918434.554    21918439.660
  21256758.024   -10900788.66549  -8471668.13947  21256757.983    21256764.448
  21917921.280   -12768426.39349  -9921732.31347  21917920.290    21917927.666
  21900928.692   -10024855.20149  -7533145.97147  21900927.834    21900935.395
                  -3061301.85849   -666786.55943
 04  1 17  0 40  0.0000000  0  8G29G 6G 5G21G30G10G17G18
  23805870.245    -2501949.88549  -1414072.06645  23805869.600    23805876.035
  20538675.967   -17495955.54549 -13437933.33748  20538675.481    20538681.589
  23842824.430      307966.42449    258738.39944  23842823.496    23842828.449
  21908085.336   -10528456.08549  -7540188.78847  21908084.479    21908089.591
  21270992.134   -10825988.25949  -8413382.12147  21270992.059    21270998.484
  21931768.196   -12695659.93849  -9865031.17447  21931767.254    21931774.697
  21911889.478    -9967254.56849  -7488262.36147  21911888.715    21911896.359
                  -3169091.33349   -750775.67843
 04  1 17  0 40 30.0000000  0  9G29G 6G 5G21G30G10G17G26G18
  23794615.764    -2561092.37349  -1460157.00645  23794615.330    23794621.281
  20533091.031   -17525304.55849 -13460802.67848  20533090.537    20533096.624
  23863341.002      415782.75049    342751.05344  23863340.234    23863344.936
  21897777.055   -10582625.44649  -7582398.62947  21897776.265    21897781.446
  21285304.505   -10750776.30349  -8354775.42347  21285304.430    21285310.805
  21945699.098   -12622452.80449  -9807986.63547  21945698.060    21945705.513
  21922876.014    -9909519.92949  -7443274.32447  21922875.220    21922882.847
                   -641052.75549   -487701.39143
                  -3276752.13549   -474009.16543
 04  1 17  0 41  0.0000000  0  9G29G 6G 5G21G30G10G17G26G18
  23783414.466    -2619955.60149  -1506024.31545  23783413.906    23783419.636
  20527565.053   -17554343.66149 -13483430.52548  20527564.603    20527570.631
  23883868.461      523656.20049    426808.28144  23883867.613    23883871.682
  21887510.703   -10636574.88149  -7624437.08947  21887509.962    21887515.196
  21299694.682   -10675155.41449  -8295850.06447  21299694.638    21299700.983
  21959713.168   -12548807.69149  -9750600.82647  21959712.168    21959719.706
  21933887.645    -9851652.94949  -7398183.15947  21933886.906    21933894.515
                   -728434.72649   -555789.17943
                  -3384282.41349   -557792.73543
 04  1 17  0 41 30.0000000  0  8G29G 6G 5G21G30G10G17G18
  23772265.913    -2678539.49049  -1551673.95945  23772265.604    23772271.358
  20522097.843   -17583074.30349 -13505818.02048  20522097.358    20522103.345
  23904405.770      631581.35549    510905.72144  23904405.366    23904409.279
  21877285.674   -10690307.11849  -7666306.31047  21877284.941    21877290.271
  21314161.559   -10599131.19449  -8236610.42947  21314161.563    21314167.886
  21973809.630   -12474730.24849  -9692878.13047  21973808.589    21973816.157
  21944923.917    -9793657.12549  -7352991.60147  21944923.186    21944930.744
                  -3491682.74049   -641470.19243
 04  1 17  0 42  0.0000000  0  8G29G 6G 5G21G30G10G17G18
  23761171.373    -2736838.21949  -1597101.45145  23761171.364    23761177.689
  20516690.095   -17611491.95149 -13527961.61848  20516689.641    20516695.610
  23924952.870      739558.47549    595043.71844  23924952.510    23924956.814
  21867102.614   -10743819.23549  -7708003.99547  21867101.831    21867107.150
  21328705.232   -10522703.23149  -8177056.18447  21328705.305    21328711.610
  21987988.302   -12400220.16749  -9634818.32147  21987987.263    21987994.889
  21955985.082    -9735530.44849  -7307698.07847  21955984.348    21955991.856
                  -3598947.50149   -445817.80743
 04  1 17  0 42 30.0000000  0  8G29G 6G 5G21G30G10G17G18
  23750131.083    -2794853.18649  -1642307.81645  23750131.277    23750137.858
  20511341.438   -17639599.19849 -13549863.34848  20511341.014    20511346.958
  23945509.057      847580.96249    679217.00644  23945508.161    23945513.072
  21856960.529   -10797115.60249  -7749533.57847  21856959.772    21856965.177
  21343324.524   -10445878.21749  -8117192.55847  21343324.634    21343330.899
  22002248.078   -12325284.18849  -9576426.63947  22002247.091    22002254.743
  21967070.109    -9677278.35749  -7262306.82647  21967069.374    21967076.849
                  -3706078.67949   -529296.02743
 04  1 17  0 43  0.0000000  0  9G29G 6G 5G21G30G10G17G26G18
  23739147.484    -2852574.26849  -1687285.17845  23739147.550    23739154.150
  20506053.524   -17667387.30249 -13571516.39048  20506053.035    20506059.004
  23966074.662      955653.53449    763429.34744  23966073.959    23966078.868
  21846860.801   -10850189.31649  -7790889.66247  21846860.104    21846865.570
  21358020.313   -10368651.51349  -8057015.91847  21358020.420    21358026.622
  22016589.761   -12249917.91549  -9517699.65847  22016588.773    22016596.470
  21978180.270    -9618894.34849  -7216812.77547  21978179.503    21978186.907
                   -642943.53649   -468224.66043
                  -3813066.37549   -612663.05844                  23714493.398
 04  1 17  0 43 30.0000000  0  8G29G 6G 5G21G30G10G17G18
  23728218.940    -2910005.30249  -1732036.53945  23728218.827    23728225.698
  20500825.369   -17694861.14649 -13592924.55448  20500824.904    20500830.900
  23986647.977     1063766.80249    847673.35944  23986646.962    23986652.738
  21836802.326   -10903047.11049  -7832077.49247  21836801.587    21836807.024
  21372790.822   -10291032.46049  -7996533.55747  21372790.885    21372797.030
  22031011.675   -12174130.57649  -9458644.57747  22031010.649    22031018.306
  21989314.070    -9560386.00049  -7171221.84147  21989313.315    21989320.655
  23694156.864    -3919915.15449   -695921.71045  23694156.436    23694162.265
 04  1 17  0 44  0.0000000  0  8G29G 6G 5G21G30G10G17G18
  23717345.691    -2967143.97749  -1776560.07645  23717345.424    23717352.929
  20495657.282   -17722019.72749 -13614087.06248  20495656.772    20495662.777
  24007228.244     1171918.00248    931946.91844  24007226.762    24007234.113
  21826784.881   -10955689.11349  -7873097.18247  21826784.142    21826789.517
  21387635.407   -10213024.26849  -7935747.97547  21387635.388    21387641.496
  22045513.050   -12097925.66849  -9399264.11247  22045512.029    22045519.623
  22000471.266    -9501754.93949  -7125535.28247  22000470.471    22000477.763
  23673851.148    -4026623.62549   -779071.01945  23673850.285    23673856.305
 04  1 17  0 44 30.0000000  0  9G29G 6G 5G21G30G10G17G26G18
  23706530.105    -3023979.59649  -1820847.47445  23706529.781    23706537.573
  20490550.862   -17748853.69649 -13634996.62248  20490550.367    20490556.435
  24027816.920     1280111.95448   1016253.78544  24027815.478    24027823.426
  21816809.918   -11008108.00849  -7913943.01747  21816809.147    21816814.487
  21402554.927   -10134621.79049  -7874655.15247  21402554.890    21402561.016
  22060094.840   -12021298.01549  -9339554.24147  22060093.825    22060101.328
  22011653.058    -9442994.26149  -7079747.73447  22011652.280    22011659.524
                   -902642.87149   -442803.74543
  23653574.101    -4133181.25049   -862102.79545  23653573.201    23653579.267
 04  1 17  0 45  0.0000000  0  9G29G 6G 5G21G30G10G17G26G18
  23695770.860    -3080520.67349  -1864905.36845  23695770.329    23695778.199
  20485504.432   -17775372.60849 -13655660.68548  20485503.961    20485510.037
  24048411.614     1388335.23548   1100583.54644  24048410.380    24048418.528
  21806875.300   -11060314.79349  -7954623.57747  21806874.515    21806879.795
  21417546.788   -10055838.84449  -7813265.86247  21417546.721    21417552.921
  22074754.553   -11944261.27149  -9279525.58347  22074753.496    22074760.803
  22022857.211    -9384116.16949  -7033868.69047  22022856.444    22022863.662
                   -988914.27449   -510026.84843
  23633323.918    -4239596.92749   -945024.00245  23633323.031    23633329.206
 04  1 17  0 45 30.0000000  0  8G29G 6G 5G21G30G10G17G18
  23685068.798    -3136759.43249  -1908727.70245  23685068.001    23685076.037
  20480519.151   -17801570.11649 -13676074.29648  20480518.692    20480524.769
  24069012.601     1496589.88349   1184937.69844  24069011.178    24069019.403
  21796981.892   -11112304.81749  -7995135.22947  21796981.094    21796986.356
  21432611.550    -9976672.98349  -7751578.20247  21432611.452    21432617.699
  22089492.366   -11866813.55149  -9219176.69447  22089491.294    22089498.558
  22034084.511    -9325116.59749  -6987894.98047  22034083.741    22034090.865
  23613102.303    -4345863.24049  -1027828.77145  23613101.211    23613107.528
 04  1 17  0 46  0.0000000  0  8G29G 6G 5G21G30G10G17G18
  23674424.345    -3192694.10049  -1952313.08045  23674423.698    23674432.111
  20475595.181   -17827445.81149 -13696237.14748  20475594.711    20475600.789
  24089618.858     1604872.25849   1269313.52544  24089617.434    24089625.236
  21787129.419   -11164079.49049  -8035479.07147  21787128.675    21787133.897
  21447748.339    -9897128.31849  -7689595.36347  21447748.303    21447754.562
  22104307.709   -11788958.66049  -9158510.53647  22104306.687    22104313.826
  22045334.621    -9265997.62449  -6941828.23647  22045333.773    22045340.942
  23592909.023    -4451979.17949  -1110516.38945  23592907.989    23592914.385
 04  1 17  0 46 30.0000000  0  9G29G 6G 5G21G30G10G17G26G18
  23663840.664    -3248310.28549  -1995650.29945  23663840.314    23663848.700
  20470734.959   -17852986.30149 -13716138.80548  20470734.495    20470740.586
  24110231.473     1713191.85449   1353718.34844  24110230.095    24110237.995
  21777320.202   -11215626.88449  -8075645.82747  21777319.456    21777324.667
  21462959.105    -9817195.48749  -7627310.07147  21462959.003    21462965.243
  22119202.367   -11710687.30149  -9097519.85847  22119201.335    22119208.343
  22056609.409    -9206748.28049  -6895659.91147  22056608.498    22056615.725
                   -541028.25749   -405304.50743
  23572746.985    -4557930.57449  -1193075.81845  23572745.938    23572752.595
 04  1 17  0 47  0.0000000  0  9G29G 6G 5G21G30G10G17G26G18
  23653316.818    -3303614.51849  -2038744.42245  23653316.539    23653324.440
  20465937.031   -17878199.44649 -13735785.38148  20465936.597    20465942.660
  24130848.753     1821536.38349   1438142.57044  24130847.363    24130855.479
  21767552.362   -11266956.92149  -8115643.21247  21767551.628    21767556.742
  21478241.381    -9736886.72149  -7564731.83147  21478241.293    21478247.522
  22134173.931   -11632012.02249  -9036214.42847  22134172.891    22134179.776
  22067906.825    -9147379.21249  -6849398.29047  22067906.016    22067913.278
                   -626651.63849   -472024.44743
  23552614.918    -4663724.69249  -1275512.67345  23552613.784    23552620.660
 04  1 17  0 47 30.0000000  0  9G29G 6G 5G21G30G10G17G26G18
  23642852.790    -3358607.08749  -2081595.66945  23642852.224    23642859.418
  20461201.157   -17903086.44149 -13755177.81848  20461200.736    20461206.833
  24151469.052     1929900.83048   1522582.35844  24151468.316    24151477.096
  21757825.414   -11318072.45049  -8155473.43847  21757824.612    21757829.736
  21493594.073    -9656207.59449  -7501864.99547  21493594.044    21493600.280
  22149221.219   -11552938.08749  -8974598.37047  22149220.174    22149227.063
  22079226.505    -9087893.68849  -6803045.92047  22079225.710    22079232.969
                   -712108.12349   -538613.72844                  23651303.995
  23532512.512    -4769361.96949  -1357827.31545  23532511.481    23532518.482
 04  1 17  0 48  0.0000000  0  9G29G 6G 5G21G30G10G17G26G18
  23632448.047    -3413282.69849  -2124199.96045  23632447.708    23632454.767
  20456528.003   -17927643.61849 -13774313.25848  20456527.631    20456533.763
  24172093.281     2038284.43348   1607037.06944  24172092.272    24172101.531
  21748139.522   -11368971.37249  -8195134.89847  21748138.797    21748143.909
  21509017.206    -9575158.62749  -7438709.97847  21509017.197    21509023.383
  22164344.306   -11473466.36149  -8912672.34147  22164343.224    22164350.035
  22090568.652    -9028290.79949  -6756602.09947  22090567.838    22090575.018
  23635056.315     -797392.12448   -605068.73744  23635061.457    23635082.904
  23512440.683    -4874837.87749  -1440016.24445  23512439.827    23512446.991
 04  1 17  0 48 30.0000000  0  9G29G 6G 5G21G30G10G17G26G18
  23622105.075    -3467633.40049  -2166551.07845  23622104.837    23622111.937
  20451919.034   -17951864.20249 -13793186.40748  20451918.641    20451924.732
  24192721.661     2146690.28348   1691509.07744  24192720.648    24192730.720
  21738496.051   -11419648.05249  -8234623.16747  21738495.283    21738500.370
  21524511.193    -9493737.08549  -7375264.63347  21524511.191    21524517.418
  22179543.590   -11393594.14749  -8850434.23447  22179542.502    22179549.277
  22101934.053    -8968565.92149  -6710063.21347  22101933.170    22101940.311
  23618869.739     -882494.80649   -671382.61044  23618880.909    23618882.736
  23492401.042    -4980144.67649  -1522073.38345  23492400.351    23492407.525
 04  1 17  0 49  0.0000000  0  9G29G 6G 5G21G30G10G17G26G18
  23611823.691    -3521663.33949  -2208652.22745  23611823.375    23611830.207
  20447373.115   -17975753.44449 -13811801.38148  20447372.718    20447378.746
  24213352.801     2255109.11148   1775991.26544  24213351.129    24213362.381
  21728893.457   -11470109.95449  -8273944.08547  21728892.661    21728897.715
  21540074.279    -9411952.66549  -7311536.54047  21540074.277    21540080.518
  22194817.128   -11313331.10749  -8787891.60847  22194816.078    22194822.812
  22113321.091    -8908726.82249  -6663435.34547  22113320.177    22113327.351
  23602713.158     -967419.73649   -737557.63445  23602715.380    23602720.966
  23472392.671    -5085286.84949  -1604002.23145  23472392.181    23472399.546
 04  1 17  0 49 30.0000000  0  9G29G 6G 5G21G30G10G17G26G18
  23601604.508    -3575366.66049  -2250498.87045  23601604.040    23601610.565
  20442891.114   -17999306.66149 -13830154.51648  20442890.721    20442896.733
  24233986.198     2363541.22948   1860483.78444  24233984.053    24233996.933
  21719332.161   -11520354.20449  -8313095.40647  21719331.370    21719336.438
  21555706.456    -9329804.96449  -7247525.36347  21555706.495    21555712.722
  22210165.226   -11232676.92449  -8725044.17347  22210164.163    22210170.856
  22124730.146    -8848771.08149  -6616716.56947  22124729.349    22124736.579
  23586588.947    -1052160.08449   -803588.87145  23586590.243    23586595.090
  23452417.059    -5190259.04349  -1685798.68345  23452416.401    23452423.843
 04  1 17  0 50  0.0000000  0  9G29G 6G 5G21G30G10G17G26G18
  23591447.244    -3628743.85349  -2292091.39645  23591446.691    23591453.078
  20438472.759   -18022525.47749 -13848247.07248  20438472.360    20438478.317
  24254621.236     2471981.03748   1944982.26744  24254618.750    24254632.222
  21709811.789   -11570383.68749  -8352079.37647  21709811.021    21709816.108
  21571406.704    -9247299.94649  -7183235.74947  21571406.686    21571412.931
  22225586.558   -11151637.46949  -8661896.54447  22225585.477    22225592.231
  22136160.734    -8788703.14649  -6569910.37647  22136159.905    22136167.170
  23570499.261    -1136715.50949   -869476.04545  23570498.895    23570504.533
  23432473.461    -5295062.55549  -1767463.65545  23432472.667    23432480.319
 04  1 17  0 50 30.0000000  0  9G29G 6G 5G21G30G10G17G26G18
  23581353.415    -3681787.55649  -2333424.04245  23581352.829    23581358.903
  20434119.264   -18045403.68249 -13866074.22948  20434118.824    20434124.721
  24275258.906     2580430.92448   2029488.65844  24275255.971    24275270.179
  21700333.131   -11620193.86649  -8390892.46547  21700332.333    21700337.474
  21587175.233    -9164435.70049  -7118666.23047  21587175.220    21587181.476
  22241081.537   -11070210.92049  -8598447.27847  22241080.430    22241087.194
  22147613.457    -8728518.97249  -6523013.60647  22147612.607    22147619.851
  23554444.081    -1221077.39649   -935212.60245  23554444.010    23554451.740
  23412563.361    -5399689.51049  -1848991.07545  23412562.552    23412570.428
 04  1 17  0 51  0.0000000  0  9G29G 6G 5G21G30G10G17G26G18
  23571322.949    -3734500.17649  -2374498.72245  23571322.063    23571327.895
  20429829.835   -18067944.87949 -13883638.77248  20429829.403    20429835.239
  24295897.820     2688882.75758   2113996.44944  24295894.018    24295907.806
  21690895.036   -11669790.64449  -8429539.26447  21690894.227    21690899.428
  21603010.554    -9081220.09349  -7053822.92147  21603010.587    21603016.890
  22256648.776   -10988405.17849  -8534702.53147  22256647.663    22256654.334
  22159087.110    -8668224.58749  -6476030.96147  22159086.303    22159093.472
  23538426.295    -1305247.84449  -1000799.86045  23538426.636    23538434.595
  23392686.329    -5504143.14849  -1930383.43645  23392685.372    23392693.466
 04  1 17  0 51 30.0000000  0  9G29G 6G 5G21G30G10G17G26G18
  23561355.760    -3786878.29049  -2415312.72645  23561354.793    23561360.685
  20425605.004   -18090146.86249 -13900938.99448  20425604.568    20425610.320
  24316535.589     2797335.39748   2198504.90244  24316533.382    24316545.354
  21681497.720   -11719172.85149  -8468018.86047  21681496.992    21681502.223
  21618912.357    -8997655.21049  -6988707.44647  21618912.398    21618918.765
  22272287.669   -10906222.49649  -8470664.07247  22272286.497    22272293.248
  22170581.761    -8607820.11349  -6428962.51647  22170581.016    22170588.074
  23522446.823    -1389222.41249  -1066234.39945  23522447.028    23522454.532
  23372842.402    -5608420.66349  -2011638.56645  23372841.659    23372850.149
 04  1 17  0 52  0.0000000  0  9G29G 6G 5G21G30G10G17G26G18
  23551453.178    -3838916.13849  -2455861.60045  23551452.229    23551458.008
  20421445.599   -18112005.02949 -13917971.31048  20421445.128    20421450.825
  24337175.252     2905789.12148   2283014.24144  24337172.933    24337183.382
  21672142.066   -11768337.59449  -8506328.99947  21672141.229    21672146.449
  21634880.752    -8913740.73049  -6923319.55747  21634880.774    21634887.225
  22287998.231   -10823662.36149  -8406331.49547  22287997.171    22288003.936
  22182097.818    -8547303.54549  -6381806.73247  22182097.034    22182104.027
  23506505.883    -1472994.39849  -1131511.16145  23506505.368    23506512.903
  23353033.269    -5712516.62449  -2092752.21645  23353032.572    23353041.439
 04  1 17  0 52 30.0000000  0  9G29G 6G 5G21G30G10G17G26G18
  23541615.745    -3890611.59249  -2496143.65345  23541614.910    23541620.599
  20417351.666   -18133518.56349 -13934735.07548  20417351.202    20417356.908
  24357814.974     3014240.66348   2367521.85244  24357812.894    24357820.747
  21662827.489   -11817285.74149  -8544470.37047  21662826.677    21662831.864
  21650915.042    -8829480.05649  -6857661.90847  21650915.083    21650921.559
  22303780.102   -10740728.15249  -8341707.42147  22303779.045    22303785.787
  22193634.979    -8486676.00749  -6334564.47647  22193634.097    22193641.068
  23490602.341    -1556560.85649  -1196627.80545  23490602.215    23490610.636
  23333259.326    -5816429.51749  -2173723.20345  23333258.291    23333267.391
 04  1 17  0 53  0.0000000  0  9G29G 6G 5G21G30G10G17G26G18
  23531842.977    -3941966.86649  -2536160.62645  23531842.185    23531847.975
  20413322.753   -18154690.75749 -13951232.86848  20413322.291    20413327.957
  24378452.393     3122682.79149   2452022.08644  24378450.405    24378456.923
  21653553.136   -11866022.62149  -8582447.11447  21653552.358    21653557.494
  21667013.766    -8744880.83949  -6791740.47347  21667013.788    21667020.245
  22319631.718   -10657427.57549  -8276797.86947  22319630.601    22319637.365
  22205191.926    -8425943.50249  -6287240.43147  22205191.116    22205198.143
  23474739.119    -1639923.22049  -1261585.40845  23474739.155    23474747.241
  23313519.711    -5920161.99549  -2254553.61645  23313518.417    23313527.616
 04  1 17  0 53 30.0000000  0  9G29G 6G 5G21G30G10G17G26G18
  23522137.044    -3992970.09049  -2575903.33345  23522136.354    23522142.348
  20409360.826   -18175510.76349 -13967456.22148  20409360.374    20409366.002
  24399088.435     3231122.26749   2536520.37244  24399087.249    24399092.033
  21644320.842   -11914538.53949  -8620251.67447  21644320.039    21644325.170
  21683178.173    -8659936.54849  -6725550.13647  21683178.198    21683184.640
  22335554.194   -10573754.35649  -8211597.94547  22335553.059    22335559.865
  22216770.570    -8365097.27949  -6239827.77347  22216769.751    22216776.878
  23458917.686    -1723068.58949  -1326373.88345  23458917.538    23458925.466
  23293816.393    -6023702.19049  -2335234.20445  23293815.317    23293824.529
 04  1 17  0 54  0.0000000  0  9G29G 6G 5G21G30G10G17G26G18
  23512496.788    -4043628.67149  -2615377.43145  23512496.198    23512502.373
  20405464.325   -18195986.98549 -13983411.69248  20405463.881    20405469.465
  24419721.277     3339546.83749   2621006.94144  24419719.583    24419724.788
  21635128.567   -11962844.06849  -8657892.29747  21635127.753    21635132.855
  21699405.748    -8574660.04649  -6659100.93947  21699405.794    21699412.190
  22351545.137   -10489721.30549  -8146117.63447  22351544.008    22351550.827
  22228368.676    -8304148.15749  -6192334.93247  22228367.891    22228375.180
  23443136.450    -1806003.21949  -1390998.16345  23443135.984    23443143.749
  23274148.101    -6127057.76449  -2415770.92345  23274147.193    23274156.476
 04  1 17  0 54 30.0000000  0  9G29G 6G 5G21G30G10G17G26G18
  23502923.796    -4093932.18149  -2654574.86545  23502923.495    23502930.012
  20401635.009   -18216110.38649 -13999092.24048  20401634.542    20401640.103
  24440352.071     3447961.50349   2705485.86244  24440349.481    24440355.987
  21625977.868   -12010931.41649  -8695362.91547  21625977.068    21625982.099
  21715697.550    -8489046.29649  -6592388.95347  21715697.605    21715703.973
  22367605.604   -10405323.47449  -8080353.08447  22367604.440    22367611.264
  22239987.640    -8243089.45849  -6144756.70947  22239986.858    22239994.252
  23427396.489    -1888715.95949  -1455449.56545  23427395.993    23427404.057
  23254517.223    -6230218.57649  -2496155.86245  23254516.254    23254525.490
 04  1 17  0 55  0.0000000  0  9G29G 6G 5G21G30G10G17G26G18
  23493418.751    -4143879.81649  -2693495.01645  23493418.565    23493425.277
  20397872.810   -18235881.10449 -14014497.96848  20397872.317    20397877.817
  24460979.602     3556361.83849   2789953.59944  24460976.530    24460984.050
  21616868.291   -12058802.41449  -8732664.93547  21616867.504    21616872.502
  21732052.600    -8403100.12049  -6525417.92647  21732052.673    21732058.974
  22383734.528   -10320565.46149  -8014307.86447  22383733.394    22383740.166
  22251627.032    -8181923.76649  -6097095.11347  22251626.270    22251633.788
  23411698.520    -1971205.02649  -1519726.68945  23411698.240    23411706.869
  23234923.436    -6333184.08449  -2576388.63045  23234922.398    23234931.716
 04  1 17  0 55 30.0000000  0  9G29G 6G 5G21G30G10G17G26G18
  23483981.443    -4193472.02749  -2732138.17745  23483981.169    23483988.096
  20394177.315   -18255300.89749 -14029630.25448  20394176.825    20394182.312
  24481602.858     3664742.77149   2874406.24944  24481600.073    24481608.310
  21607799.246   -12106460.41449  -8769800.99047  21607798.482    21607803.515
  21748469.906    -8316827.31449  -6458192.38647  21748469.947    21748476.130
  22399930.918   -10235453.07249  -7947986.50647  22399929.711    22399936.401
  22263286.179    -8120654.67449  -6049352.94547  22263285.418    22263292.927
  23396043.613    -2053469.92349  -1583829.08345  23396043.427    23396052.227
  23215366.015    -6435955.55349  -2656470.20745  23215365.398    23215374.671
 04  1 17  0 56  0.0000000  0  9G29G 6G 5G21G30G10G17G26G18
  23474613.189    -4242701.06649  -2770498.37345  23474612.965    23474620.004
  20390549.934   -18274362.94949 -14044483.77548  20390549.436    20390554.904
  24502222.998     3773106.69748   2958845.63344  24502219.778    24502229.258
  21598771.689   -12153900.77849  -8806767.45047  21598770.922    21598775.855
  21764949.826    -8230225.49349  -6390710.46647  21764949.828    21764955.921
  22416195.066   -10149983.78349  -7881387.04747  22416193.942    22416200.622
  22274965.899    -8059277.86249  -6001526.84047  22274965.073    22274972.576
  23380433.222    -2135501.67249  -1647749.82345  23380433.084    23380442.001
  23195846.939    -6538525.57949  -2736394.80745  23195846.910    23195856.060
 04  1 17  0 56 30.0000000  0  9G29G 6G 5G21G30G10G17G26G18
  23465314.049    -4291567.86049  -2808576.26445  23465313.872    23465320.897
  20386990.205   -18293069.51749 -14059060.29948  20386989.711    20386995.102
  24522837.091     3881447.50948   3043267.01244  24522835.238    24522846.005
  21589784.937   -12201126.51649  -8843566.66847  21589784.153    21589789.034
  21781491.150    -8143301.17749  -6322977.24947  21781491.057    21781497.076
  22432525.930   -10064164.40349  -7814514.79047  22432524.797    22432531.476
  22286665.181    -7997797.72849  -5953620.23447  22286664.324    22286671.821
  23364866.999    -2217300.69349  -1711489.26445  23364866.671    23364876.019
  23176366.765    -6640894.96449  -2816163.04845  23176366.545    23176375.607
 04  1 17  0 57  0.0000000  0  9G29G 6G 5G21G30G10G17G26G18
  23456084.571    -4340068.29149  -2846368.72445  23456084.272    23456091.414
  20383498.703   -18311417.54349 -14073357.44048  20383498.218    20383503.530
  24543446.875     3989764.45848   3127669.81344  24543446.171    24543458.433
  21580839.233   -12248136.53349  -8880197.79147  21580838.427    21580843.273
  21798093.510    -8056055.59049  -6254993.69147  21798093.414    21798099.370
  22448923.076    -9977996.02149  -7747370.58847  22448921.975    22448928.728
  22298384.181    -7936213.76749  -5905632.71746  22298383.281    22298390.805
  23349346.027    -2298861.65449  -1775043.16745  23349345.884    23349355.291
  23156925.521    -6743060.27249  -2895772.27845  23156925.104    23156934.004
 04  1 17  0 57 30.0000000  0  9G29G 6G 5G21G30G10G17G26G18
  23446923.890    -4388204.09549  -2883877.06545  23446923.893    23446931.288
  20380074.918   -18329409.60049 -14087377.20048  20380074.418    20380079.716
  24564051.620     4098050.84548   3212048.79844  24564051.541    24564064.686
  21571933.697   -12294935.43749  -8916664.40347  21571932.882    21571937.736
  21814755.671    -7968495.80149  -6186765.29747  21814755.529    21814761.449
  22465385.486    -9891485.58649  -7679959.84347  22465384.358    22465391.022
  22310122.003    -7874530.35249  -5857567.70346  22310121.145    22310128.724
  23333870.846    -2380185.26549  -1838412.07645  23333870.827    23333879.793
  23137522.558    -6845023.73949  -2975224.23245  23137522.296    23137530.788
 04  1 17  0 58  0.0000000  0  9G29G 6G 5G21G30G10G17G26G18
  23437834.519    -4435967.31449  -2921095.06145  23437834.466    23437842.074
  20376720.148   -18347038.93349 -14101114.31648  20376719.651    20376724.932
  24584651.803     4206309.38748   3296406.07544  24584652.303    24584665.792
  21563069.239   -12341517.90449  -8952962.37247  21563068.449    21563073.362
  21831478.040    -7880619.29149  -6118290.10747  21831477.882    21831483.843
  22481913.515    -9804630.64049  -7612280.65347  22481912.286    22481918.948
  22321879.624    -7812743.44049  -5809422.03946  22321878.785    22321886.276
  23318442.751    -2461262.50449  -1901589.00545  23318442.777    23318451.108
  23118159.902    -6946777.27549  -3054512.59345  23118159.501    23118167.566
 04  1 17  0 58 30.0000000  0  9G29G 6G 5G21G30G10G17G26G18
  23428816.116    -4483359.51449  -2958023.95745  23428815.879    23428823.435
  20373433.921   -18364308.04849 -14114570.74748  20373433.426    20373438.717
  24605245.360     4314533.85048   3380736.78144  24605246.352    24605260.991
  21554245.300   -12387887.93149  -8989094.80347  21554244.557    21554249.408
  21848259.227    -7792432.99649  -6049573.53447  21848259.115    21848265.158
  22498505.608    -9717438.07849  -7544338.39546  22498504.430    22498511.155
  22333656.067    -7750857.79249  -5761199.44546  22333655.232    22333662.566
  23303061.570    -2542093.98049  -1964574.43245  23303061.207    23303069.514
  23098837.009    -7048322.76749  -3133638.84745  23098836.248    23098843.987
 04  1 17  0 59  0.0000000  0  9G29G 6G 5G21G30G10G17G26G18
  23419868.618    -4530378.88449  -2994662.33845  23419868.342    23419876.032
  20370216.397   -18381216.09949 -14127745.82948  20370215.903    20370221.185
  24625833.806     4422721.39748   3465038.72144  24625834.260    24625848.321
  21545461.669   -12434046.74649  -9025062.64847  21545460.828    21545465.588
  21865098.681    -7703940.54549  -5980618.39447  21865098.607    21865104.753
  22515161.299    -9629911.45249  -7476135.82646  22515160.099    22515166.850
  22345451.151    -7688874.53049  -5712900.77546  22345450.297    22345457.487
  23287726.624    -2622676.69249  -2027366.09545  23287726.383    23287735.062
  23079553.757    -7149659.02149  -3212602.04345  23079552.828    23079560.193
 04  1 17  0 59 30.0000000  0  9G29G 6G 5G21G30G10G17G26G18
  23410993.441    -4577019.89049  -3031005.89445  23410993.046    23411000.266
  20367068.417   -18397758.69749 -14140636.14348  20367067.932    20367073.200
  24646414.021     4530872.32148   3549312.09544  24646414.622    24646428.771
  21536718.594   -12479991.38749  -9060863.61647  21536717.811    21536722.580
  21881996.449    -7615141.73349  -5911424.53447  21881996.399    21882002.657
  22531880.606    -9542050.44449  -7407672.70346  22531879.425    22531886.205
  22357265.166    -7626791.67549  -5664524.51746  22357264.348    22357271.312
  23272440.608    -2703004.12249  -2089958.78145  23272440.415    23272449.034
  23060311.161    -7250780.48549  -3291397.90546  23060310.149    23060317.226
 04  1 17  1  0  0.0000000  0  9G29G 6G 5G21G30G10G17G26G18
  23402190.583    -4623280.71349  -3067053.21045  23402190.071    23402197.178
  20363990.040   -18413935.34049 -14153241.29248  20363989.563    20363994.833
  24666988.293     4638983.30348   3633554.39844  24666988.156    24667001.777
  21528016.288   -12525722.68849  -9096498.33347  21528015.475    21528020.172
  21898951.907    -7526040.11949  -5841994.72447  21898951.821    21898958.204
  22548662.884    -9453858.83249  -7338951.95346  22548661.656    22548668.390
  22369097.934    -7564610.62149  -5616071.72546  22369097.076    22369103.856
  23257203.786    -2783073.62849  -2152350.49445  23257203.723    23257211.946
  23041109.739    -7351685.49149  -3370025.05046  23041108.722    23041115.362
 04  1 17  1  0 30.0000000  0  9G29G 6G 5G21G30G10G17G26G18
  23393459.693    -4669160.97549  -3102803.99345  23393459.305    23393466.521
  20360981.238   -18429746.54449 -14165561.68748  20360980.756    20360986.003
  24687553.483     4747050.10849   3717762.14944  24687553.142    24687566.164
  21519354.117   -12571242.56649  -9131968.31547  21519353.312    21519358.006
  21915963.869    -7436640.82249  -5772332.95847  21915963.904    21915970.386
  22565507.088    -9365341.34149  -7269977.27946  22565505.956    22565512.739
  22380948.845    -7502334.08849  -5567544.53646  22380947.972    22380954.622
  23242016.657    -2862883.45249  -2214539.82345  23242016.516    23242023.918
  23021949.535    -7452374.11249  -3448483.58946  23021948.416    23021954.701
 04  1 17  1  1  0.0000000  0  9G29G 6G 5G21G30G10G17G26G18
  23384802.806    -4714652.49949  -3138251.85245  23384802.538    23384809.876
  20358043.310   -18445185.33749 -14177591.89548  20358042.820    20358048.042
  24708111.350     4855075.77648   3801938.00844  24708110.617    24708123.065
  21510733.169   -12616545.87749  -9167269.54047  21510732.410    21510737.024
  21933033.206    -7346941.07649  -5702437.07747  21933033.197    21933039.746
  22582413.854    -9276495.55749  -7200746.79646  22582412.721    22582419.474
  22392818.734    -7439957.44849  -5518939.33746  22392817.905    22392824.414
  23226880.701    -2942424.71149  -2276519.89045  23226880.525    23226887.160
  23002831.892    -7552838.36949  -3526767.31646  23002830.742    23002836.718
 04  1 17  1  1 30.0000000  0  9G29G 6G 5G21G30G10G17G26G18
  23376218.833    -4759761.27149  -3173401.46145  23376218.650    23376226.133
  20355174.927   -18460258.48949 -14189337.18748  20355174.436    20355179.660
  24728659.016     4963049.56849   3886073.28244  24728657.736    24728669.794
  21502151.930   -12661641.23349  -9202408.72447  21502151.080    21502155.662
  21950157.502    -7256952.04549  -5632315.76647  21950157.582    21950164.153
  22599381.184    -9187332.38949  -7131268.98946  22599379.915    22599386.584
  22404706.032    -7377489.45249  -5470262.94946  22404705.195    22404711.562
  23211794.591    -3021702.08549  -2338294.34945  23211794.489    23211800.802
  22983755.499    -7653084.47549  -3604881.03646  22983754.478    22983760.203
 04  1 17  1  2  0.0000000  0  9G29G 6G 5G21G30G10G17G26G18
  23367709.719    -4804478.25249  -3208245.77145  23367709.422    23367716.871
  20352377.685   -18474957.79749 -14200791.17648  20352377.193    20352382.445
  24749197.716     5070975.65949   3970171.52445  24749196.345    24749207.497
  21493611.386   -12706522.06249  -9237380.75347  21493610.493    21493615.078
  21967337.777    -7166669.90649  -5561966.07147  21967337.758    21967344.285
  22616409.445    -9097847.93749  -7061540.83446  22616408.207    22616414.824
  22416611.763    -7314924.06349  -5421510.67746  22416611.013    22416617.187
  23196760.740    -3100705.22249  -2399855.12145  23196760.597    23196767.112
  22964722.318    -7753103.71149  -3682817.98946  22964721.374    22964726.888
 04  1 17  1  2 30.0000000  0  9G29G 6G 5G21G30G10G17G26G18
  23359275.039    -4848802.67549  -3242784.19945  23359274.800    23359282.019
  20349651.391   -18489283.98049 -14211954.41048  20349650.920    20349656.188
  24769726.655     5178849.87949   4054229.29545  24769725.673    24769735.060
  21485111.211   -12751190.51049  -9272187.28447  21485110.368    21485114.945
  21984572.815    -7076099.65649  -5491391.86547  21984572.797    21984579.258
  22633497.871    -9008047.07549  -6991566.11946  22633496.706    22633503.344
  22428535.576    -7252264.32549  -5372684.88546  22428534.848    22428540.902
  23181779.395    -3179432.67449  -2461201.06645  23181779.249    23181785.982
  22945732.301    -7852895.68449  -3760577.83946  22945731.491    22945736.771
 04  1 17  1  3  0.0000000  0  9G29G 6G 5G21G30G10G17G26G18
  23350916.402    -4892728.67249  -3277012.15845  23350916.038    23350922.923
  20346997.059   -18503231.99249 -14222822.97048  20346996.627    20347001.921
  24790245.070     5286673.24849   4138247.41545  24790244.629    24790253.139
  21476652.061   -12795643.38849  -9306825.84847  21476651.194    21476655.787
  22001862.828    -6985240.39949  -5420592.46547  22001862.797    22001869.212
  22650646.747    -8917929.00549  -6921344.23146  22650645.554    22650652.118
  22440477.999    -7189507.00049  -5323783.05746  22440477.271    22440483.260
  23166851.652    -3257877.05249  -2522326.43145  23166851.403    23166858.552
  22926786.799    -7952454.74249  -3838156.20946  22926785.897    22926790.968
 04  1 17  1  3 30.0000000  0  9G29G 6G 5G21G30G10G17G26G18
  23342631.991    -4936262.02649  -3310934.16945  23342631.673    23342638.664
  20344413.527   -18516808.60449 -14233402.13148  20344413.096    20344418.344
  24810752.041     5394435.41749   4222217.93845  24810752.053    24810759.777
  21468232.448   -12839888.48249  -9341302.50447  21468231.613    21468236.199
  22019205.633    -6894103.38049  -5349576.62347  22019205.651    22019212.000
  22667853.876    -8827504.88449  -6850883.87046  22667852.662    22667859.211
  22452437.267    -7126660.97549  -5274812.10946  22452436.481    22452442.535
  23151976.906    -3336043.27249  -2583235.07245  23151976.690    23151983.876
  22907884.285    -8051786.63049  -3915557.55846  22907883.512    22907888.456
 04  1 17  1  4  0.0000000  0  9G29G 6G 5G21G30G10G17G26G18
  23334424.336    -4979392.95849  -3344542.60545  23334423.925    23334430.873
  20341902.307   -18530004.90849 -14243684.93848  20341901.874    20341907.117
  24831248.688     5502141.55749   4306144.70945  24831248.185    24831255.810
  21459853.666   -12883918.65349  -9375611.68747  21459852.853    21459857.448
  22036602.238    -6802683.99249  -5278340.74647  22036602.248    22036608.566
  22685119.979    -8736769.87249  -6780181.25546  22685118.889    22685125.502
  22464414.713    -7063719.45449  -5225766.75546  22464413.900    22464419.925
  23137157.182    -3413920.19049  -2643918.27545  23137157.030    23137164.060
  22889026.790    -8150881.79049  -3992774.43146  22889026.228    22889031.041
 04  1 17  1  4 30.0000000  0  8G29G 6G21G30G10G17G26G18
  23326294.109    -5022117.09349  -3377834.05745  23326293.753    23326300.639
  20339464.102   -18542817.76949 -14253668.96348  20339463.672    20339468.907
  21451516.101   -12927732.24349  -9409752.11147  21451515.285    21451519.926
  22054052.448    -6710983.22649  -5206885.63047  22054052.397    22054058.639
  22702445.332    -8645724.83649  -6709237.06146  22702444.145    22702450.721
  22476410.496    -7000681.42149  -5176646.20046  22476409.685    22476415.661
  23122393.466    -3491502.55949  -2704371.95045  23122393.391    23122400.070
  22870215.464    -8249735.93649  -4069803.52346  22870214.809    22870219.575
 04  1 17  1  5  0.0000000  0  8G29G 6G21G30G10G17G26G18
  23318240.888    -5064437.90849  -3410811.22345  23318240.508    23318247.119
  20337098.044   -18555251.46449 -14263357.53248  20337097.570    20337102.818
  21443218.626   -12971334.96849  -9443728.21847  21443217.869    21443222.535
  22071554.503    -6619009.89149  -5135218.10547  22071554.441    22071560.636
  22719827.957    -8554378.64149  -6638058.18446  22719826.751    22719833.343
  22488423.463    -6937553.09549  -5127455.28946  22488422.629    22488428.561
  23107685.487    -3568792.33349  -2764597.63945  23107685.303    23107691.784
  22851449.322    -8348352.81749  -4146647.72146  22851448.502    22851453.307
 04  1 17  1  5 30.0000000  0  8G29G 6G21G30G10G17G26G18
  23310264.952    -5106353.01549  -3443472.25445  23310264.509    23310270.869
  20334804.337   -18567304.70649 -14272749.64848  20334803.888    20334809.144
  21434961.196   -13014727.67549  -9477540.68447  21434960.396    21434965.071
  22089107.833    -6526766.80549  -5063340.39947  22089107.799    22089113.949
  22737267.223    -8462733.95849  -6566646.73646  22737266.158    22737272.801
  22500453.377    -6874335.12949  -5078194.52846  22500452.601    22500458.539
  23093033.635    -3645786.20149  -2824592.75945  23093033.626    23093040.130
  22832728.728    -8446730.15849  -4223305.27646  22832727.842    22832732.659
 04  1 17  1  6  0.0000000  0  8G29G 6G21G30G10G17G26G18
  23302366.391    -5147861.31749  -3475816.31145  23302365.928    23302371.983
  20332583.062   -18578977.26049 -14281845.11948  20332582.606    20332587.930
  21426743.470   -13057911.31649  -9511190.23447  21426742.725    21426747.425
  22106711.705    -6434258.11349  -4991255.72047  22106711.672    22106717.756
  22754762.602    -8370795.01449  -6495005.99446  22754761.526    22754768.209
  22512499.990    -6811029.46249  -5028865.43246  22512499.221    22512505.255
  23078439.101    -3722481.72749  -2884355.41145  23078438.930    23078445.466
  22814053.752    -8544867.23649  -4299775.60546  22814052.890    22814057.699
 04  1 17  1  6 30.0000000  0  8G29G 6G21G30G10G17G26G18
  23294546.058    -5188958.21149  -3507839.76845  23294545.572    23294551.327
  20330434.884   -18590265.61849 -14290641.22348  20330434.443    20330439.802
  21418566.045   -13100883.67349  -9544675.15647  21418565.276    21418570.044
  22124365.996    -6341484.62449  -4918964.71047  22124365.950    22124371.996
  22772313.892    -8278562.27049  -6423136.30646  22772312.856    22772319.513
  22524563.669    -6747634.61149  -4979466.83446  22524562.830    22524568.931
  23063902.387    -3798873.31249  -2943881.22545  23063902.282    23063908.895
  22795425.376    -8642759.67749  -4376055.33046  22795424.446    22795429.216
 04  1 17  1  7  0.0000000  0  8G29G 6G21G30G10G17G26G18
  23286804.162    -5229641.83649  -3539541.23246  23286803.661    23286809.401
  20328359.996   -18601168.83549 -14299137.20848  20328359.550    20328365.013
  21410428.697   -13143645.60549  -9577996.09647  21410427.919    21410432.690
  22142070.012    -6248449.64349  -4846469.93747  22142069.984    22142076.005
  22789920.571    -8186039.08849  -6351040.30546  22789919.427    22789926.105
  22536644.137    -6684151.48049  -4929999.44146  22536643.177    22536649.472
  23049424.196    -3874957.76349  -3003167.75245  23049423.916    23049430.661
  22776843.875    -8740405.86349  -4452143.15646  22776842.970    22776847.706
 04  1 17  1  7 30.0000000  0  8G29G 6G21G30G10G17G26G18
  23279140.943    -5269911.60649  -3570920.19146  23279140.487    23279146.227
  20326358.432   -18611687.14149 -14307333.27148  20326357.985    20326363.491
  21402331.034   -13186198.67949  -9611154.30047  21402330.235    21402335.082
  22159822.917    -6155157.70749  -4773774.95247  22159822.894    22159828.923
  22807581.623    -8093229.88649  -6278721.43846  22807580.421    22807587.231
  22548740.779    -6620582.30849  -4880465.01446  22548739.873    22548746.385
  23035004.524    -3950733.20949  -3062213.48245  23035004.228    23035011.094
  22758309.325    -8837805.06249  -4528038.53246  22758308.472    22758313.144
 04  1 17  1  8  0.0000000  0  8G29G 6G21G30G10G17G26G18
  23271557.450    -5309762.82749  -3601973.01346  23271557.066    23271562.828
  20324430.774   -18621816.87249 -14315226.54448  20324430.320    20324435.874
  21394273.456   -13228541.08949  -9644148.34047  21394272.654    21394277.520
  22177624.581    -6061609.59549  -4700880.34747  22177624.550    22177630.598
  22825296.777    -8000135.14349  -6206180.09046  22825295.617    22825302.660
  22560854.085    -6556925.66449  -4830862.42546  22560853.236    22560859.918
  23020644.730    -4026193.81249  -3121013.89545  23020644.429    23020651.184
  22739822.433    -8934952.91149  -4603738.06446  22739821.779    22739826.395
 04  1 17  1  8 30.0000000  0  8G29G 6G21G30G10G17G26G18
  23264054.602    -5349190.40349  -3632695.74446  23264054.231    23264059.988
  20322577.886   -18631553.64849 -14322813.62648  20322577.452    20322583.036
  21386256.457   -13270669.79749  -9676975.86647  21386255.723    21386260.565
  22195475.089    -5967804.99549  -4627785.87447  22195475.062    22195481.081
  22843066.398    -7906754.86249  -6133416.22146  22843065.265    22843072.316
  22572984.608    -6493178.96849  -4781189.66346  22572983.729    22572990.543
  23006346.098    -4101333.11649  -3179563.89945  23006345.978    23006352.024
  22721384.753    -9031844.13749  -4679237.62546  22721383.914    22721388.506
 04  1 17  1  9  0.0000000  0  8G29G 6G21G30G10G17G26G18
  23256631.666    -5388197.92449  -3663091.14046  23256631.339    23256637.247
  20320798.870   -18640902.26149 -14330098.23448  20320798.434    20320804.100
  21378278.956   -13312591.25849  -9709641.90147  21378278.246    21378283.085
  22213372.637    -5873753.02349  -4554498.65547  22213372.572    22213378.602
  22860888.795    -7813097.72449  -6060436.61946  22860887.547    22860894.652
  22585131.006    -6429348.76449  -4731451.82746  22585130.140    22585137.075
  22992108.282    -4176153.66849  -3237865.51845  22992108.135    22992113.383
  22702994.869    -9128482.65649  -4754540.27846  22702994.145    22702998.855
 04  1 17  1  9 30.0000000  0  8G29G 6G21G30G10G17G26G18
  23249289.507    -5426781.43249  -3693156.13946  23249289.073    23249295.115
  20319094.366   -18649859.44449 -14337077.83648  20319093.924    20319099.593
  21370341.390   -13354303.50749  -9742144.91047  21370340.651    21370345.390
  22231317.065    -5779454.64749  -4481019.42347  22231317.000    22231323.013
  22878763.670    -7719164.42949  -5987241.83946  22878762.432    22878769.631
  22597293.518    -6365433.95649  -4681648.06546  22597292.690    22597299.679
  22977932.114    -4250649.86649  -3295914.41345  22977931.909    22977937.033
  22684653.874    -9224864.23949  -4829642.71746  22684653.192    22684658.081
 04  1 17  1 10  0.0000000  0  8G29G 6G21G30G10G17G26G18
  23242028.783    -5464937.03849  -3722887.71446  23242028.308    23242034.306
  20317464.872   -18658422.34949 -14343750.21348  20317464.422    20317470.117
  21362443.863   -13395805.17549  -9774483.83347  21362443.148    21362447.825
  22249308.110    -5684911.40349  -4407349.38847  22249308.064    22249314.034
  22896690.660    -7624956.75049  -5913833.25446  22896689.452    22896696.808
  22609472.454    -6301433.41549  -4631777.49546  22609471.599    22609478.661
  22963818.706    -4324816.85849  -3353706.81845  22963818.469    22963823.671
  22666362.440    -9320985.31149  -4904542.15846  22666361.745    22666366.854
 04  1 17  1 10 30.0000000  0  8G29G 6G21G30G10G17G26G18
  23234850.142    -5502660.67449  -3752282.69646  23234849.698    23234855.534
  20315911.069   -18666587.74849 -14350112.84248  20315910.608    20315916.301
  21354586.846   -13437094.25649  -9806657.10347  21354586.078    21354590.710
  22267345.504    -5590124.20649  -4333489.26547  22267345.477    22267351.433
  22914669.830    -7530475.41649  -5840211.42446  22914668.625    22914676.025
  22621667.846    -6237345.78549  -4581839.07546  22621667.026    22621674.048
  22949768.774    -4398649.38249  -3411238.58745  22949768.536    22949774.023
  22648121.330    -9416841.87849  -4979235.50846  22648120.643    22648125.958
 04  1 17  1 11  0.0000000  0  8G29G 6G21G30G10G17G26G18
  23227752.872    -5539957.03449  -3781344.71846  23227752.332    23227758.029
  20314431.721   -18674361.19549 -14356170.05348  20314431.292    20314437.036
  21346768.787   -13478178.21549  -9838670.54447  21346768.060    21346772.633
  22285427.406    -5495102.92749  -4259446.73947  22285427.419    22285433.368
  22932699.313    -7435729.92349  -5766383.75746  22932698.093    22932705.524
  22633878.390    -6173178.64549  -4531838.68746  22633877.593    22633884.587
  22935781.959    -4472150.50749  -3468512.13845  22935781.779    22935787.381
  22629929.717    -9512438.97649  -5053726.66146  22629928.957    22629934.376
 04  1 17  1 11 30.0000000  0  8G29G 6G21G30G10G17G26G18
  23220737.915    -5576819.90849  -3810068.97246  23220737.498    23220743.020
  20313028.014   -18681737.35749 -14361917.69748  20313027.614    20313033.400
  21338990.671   -13519052.59849  -9870520.67047  21338989.905    21338994.419
  22303554.134    -5399846.33449  -4185220.84847  22303554.161    22303560.083
  22950779.390    -7340719.08249  -5692349.32046  22950778.097    22950785.489
  22646104.684    -6108928.23849  -4481773.41446  22646103.889    22646110.868
  22921859.436    -4545312.82049  -3525521.64545  22921859.278    22921865.077
  22611788.659    -9607770.21749  -5128010.66046  22611787.875    22611793.377
 04  1 17  1 12  0.0000000  0  8G29G 6G21G30G10G17G26G18
  23213805.766    -5613248.27049  -3838454.62346  23213805.427    23213810.857
  20311699.997   -18688716.10449 -14367355.65548  20311699.593    20311705.397
  21331252.011   -13559719.22449  -9902208.90547  21331251.282    21331255.765
  22321724.873    -5304358.73549  -4110814.95247  22321724.822    22321730.742
  22968909.027    -7245446.86749  -5618111.21446  22968907.796    22968915.134
  22658346.393    -6044596.59649  -4431644.83946  22658345.615    22658352.701
  22908001.775    -4618134.09549  -3582265.40245  22908001.760    22908007.620
  22593698.556    -9702834.54549  -5202086.66046  22593697.679    22593703.229
 04  1 17  1 12 30.0000000  0  8G29G 6G21G30G10G17G26G18
  23206957.257    -5649237.15549  -3866497.82946  23206956.998    23206962.462
  20310448.376   -18695293.36549 -14372480.77848  20310447.950    20310453.769
  21323553.451   -13600175.53649  -9933733.26747  21323552.682    21323557.146
  22339939.489    -5208640.09749  -4036229.03347  22339939.442    22339945.352
  22987088.535    -7149913.24849  -5543669.42446  22987087.231    22987094.589
  22670604.106    -5980181.56049  -4381451.28346  22670603.298    22670610.489
  22894210.625    -4690608.03849  -3638738.52246  22894210.458    22894216.146
  22575660.199    -9797627.28249  -5275951.04546  22575659.186    22575664.670
 04  1 17  1 13  0.0000000  0  8G29G 6G21G30G10G17G26G18
  23200192.876    -5684784.55849  -3894197.04146  23200192.601    23200197.998
  20309273.348   -18701468.05849 -14377292.20748  20309272.923    20309278.764
  21315894.856   -13640421.70549  -9965093.88447  21315894.064    21315898.540
  22358197.530    -5112693.58149  -3961465.54247  22358197.412    22358203.324
  23005317.031    -7054121.14149  -5469026.20546  23005315.802    23005323.162
  22682877.668    -5915683.27649  -4331192.86146  22682876.881    22682884.125
  22880485.973    -4762731.28249  -3694938.35646  22880485.849    22880491.476
  22557673.756    -9892146.23649  -5349602.09846  22557672.828    22557678.212
 04  1 17  1 13 30.0000000  0  8G29G 6G21G30G10G17G26G18
  23193512.106    -5719892.30149  -3921553.64746  23193511.836    23193517.167
  20308174.373   -18707242.85049 -14381792.02448  20308173.994    20308179.855
  21308275.433   -13680461.80849  -9996293.92447  21308274.648    21308278.995
  22376497.485    -5016525.98549  -3886529.78046  22376497.433    22376503.377
  23023593.624    -6958077.29849  -5394186.84046  23023592.319    23023599.770
  22695166.047    -5851106.57249  -4280873.33146  22695165.334    22695172.703
  22866827.944    -4834504.15149  -3750865.16446  22866827.785    22866833.421
  22539739.164    -9986393.45149  -5423041.39246  22539738.164    22539743.526
 04  1 17  1 14  0.0000000  0  8G29G 6G21G30G10G17G26G18
  23186915.524    -5754557.14349  -3948565.14746  23186915.303    23186920.527
  20307152.022   -18712615.30049 -14385978.33548  20307151.612    20307157.482
  21300695.512   -13720294.62849 -10027332.45147  21300694.736    21300698.974
  22394839.340    -4920139.04049  -3811423.10646  22394839.205    22394845.193
  23041917.835    -6861783.36449  -5319152.58646  23041916.423    23041923.906
  22707469.567    -5786450.66549  -4230492.07446  22707468.847    22707476.263
  22853237.444    -4905922.25749  -3806515.55146  22853237.273    22853242.836
  22521856.649   -10080365.95249  -5496266.64446  22521855.684    22521861.092
 04  1 17  1 14 30.0000000  0  8G29G 6G21G30G10G17G26G18
  23180404.377    -5788773.57049  -3975227.22146  23180404.120    23180409.231
  20306207.144   -18717580.65749 -14389847.42248  20306206.726    20306212.591
  21293155.595   -13759916.88749 -10058206.90447  21293154.816    21293158.999
  22413222.879    -4823532.53849  -3736145.33146  22413222.758    22413228.739
  23060289.614    -6765238.85549  -5243923.08246  23060288.195    23060295.670
  22719788.654    -5721712.68849  -4180046.87546  22719788.008    22719795.327
  22839715.867    -4976978.62649  -3861884.03146  22839715.714    22839721.269
  22504027.405   -10174057.69749  -5569273.09846  22504026.587    22504032.020
 04  1 17  1 15  0.0000000  0  8G29G 6G21G30G10G17G26G18
  23173977.938    -5822545.06449  -4001542.61346  23173977.609    23173982.566
  20305338.911   -18722143.06049 -14393402.52048  20305338.477    20305344.322
  21285654.709   -13799334.36749 -10088921.78847  21285653.968    21285658.011
  22431646.748    -4726714.56049  -3660702.77546  22431646.634    22431652.594
  23078707.430    -6668451.54549  -5168504.39146  23078706.174    23078713.701
  22732122.381    -5656898.71849  -4129542.47646  22732121.720    22732128.949
  22826262.674    -5047675.23049  -3916972.20846  22826262.527    22826268.248
  22486250.911   -10267472.35349  -5642063.65246  22486250.223    22486255.702
 04  1 17  1 15 30.0000000  0  8G29G 6G21G30G10G17G26G18
  23167637.571    -5855863.66949  -4027505.11046  23167637.159    23167642.092
  20304548.626   -18726295.69649 -14396638.32048  20304548.214    20304554.071
  21278193.839   -13838541.65849 -10119472.88647  21278193.054    21278197.110
  22450111.296    -4629682.56049  -3585093.45146  22450111.181    22450117.150
  23097172.111    -6571418.81449  -5092894.45046  23097170.991    23097178.402
  22744471.571    -5592003.35549  -4078974.64946  22744470.920    22744478.136
  22812879.721    -5118003.09649  -3971773.05146  22812879.582    22812885.382
  22468528.673   -10360602.20649  -5714632.28046  22468528.022    22468533.555
 04  1 17  1 16  0.0000000  0  8G29G 6G21G30G10G17G26G18
  23161382.852    -5888731.16249  -4053116.07846  23161382.459    23161387.518
  20303835.895   -18730041.10549 -14399556.80148  20303835.487    20303841.287
  21270772.380   -13877542.15649 -10149862.85047  21270771.541    21270775.566
  22468615.284    -4532443.19949  -3509322.54346  22468615.142    22468621.189
  23115682.391    -6474147.09749  -5017098.28546  23115681.227    23115688.587
  22756835.512    -5527031.02649  -4028346.84446  22756834.851    22756841.948
  22799566.722    -5187962.47849  -4026286.77446  22799566.599    22799572.576
  22450860.528   -10453448.90149  -5786980.26646  22450859.753    22450865.361
 04  1 17  1 16 30.0000000  0  8G29G 6G21G30G10G17G26G18
  23155214.677    -5921144.67949  -4078373.30646  23155214.329    23155219.459
  20303201.144   -18733376.90049 -14402156.09848  20303200.736    20303206.496
  21263390.319   -13916335.54149 -10180091.42147  21263389.482    21263393.439
  22487158.273    -4434998.28249  -3433391.46746  22487158.224    22487164.399
  23134237.914    -6376638.03149  -4941117.17246  23134236.611    23134244.022
  22769214.300    -5461980.83649  -3977658.37646  22769213.531    22769220.569
  22786324.747    -5257548.74849  -4080509.74546  22786324.666    22786330.627
  22433246.690   -10546009.17049  -5859105.05546  22433245.977    22433251.642
 04  1 17  1 17  0.0000000  0  9G29G 6G21G30G10G17G26G18G16
  23149132.958    -5953104.38849  -4103276.92046  23149132.589    23149137.716
  20302644.109   -18736304.40049 -14404437.25148  20302643.682    20302649.391
  21256047.234   -13954924.07449 -10210160.37847  21256046.325    21256050.251
  22505739.485    -4337353.15049  -3357304.38446  22505739.391    22505745.737
  23152837.576    -6278896.96549  -4864955.28546  23152836.175    23152843.503
  22781607.182    -5396856.26149  -3926911.93346  22781606.442    22781613.356
  22773154.136    -5326761.02549  -4134441.29946  22773153.954    22773159.862
  22415687.284   -10638283.43849  -5931006.98746  22415686.594    22415692.361
                  -1706244.86649  -1319962.00143
 04  1 17  1 17 30.0000000  0  9G29G 6G21G30G10G17G26G18G16
  23143138.879    -5984603.62449  -4127821.71246  23143138.468    23143143.563
  20302165.899   -18738817.62649 -14406395.59048  20302165.463    20302171.109
  21248743.917   -13993302.99249 -10240065.99347  21248743.041    21248746.959
  22524358.951    -4239505.85949  -3281059.76746  22524359.031    22524365.576
  23171481.699    -6180921.61549  -4788610.83946  23171480.318    23171487.606
  22794015.141    -5331652.37349  -3876103.70346  22794014.392    22794021.141
  22760056.192    -5395591.14049  -4188075.07246  22760056.031    22760061.864
  22398183.577   -10730264.78749  -6002680.68246  22398183.000    22398188.879
                  -1776715.03549  -1374873.84644                  23987449.516
 04  1 17  1 18  0.0000000  0  9G29G 6G21G30G10G17G26G18G16
  23137231.514    -6015646.87949  -4152011.20546  23137231.088    23137236.260
  20301765.507   -18740921.76249 -14408035.15048  20301765.080    20301770.682
  21241479.210   -14031478.92849 -10269813.43447  21241478.351    21241482.320
  22543015.336    -4141466.00549  -3204665.10046  22543015.285    22543022.024
  23190168.577    -6082721.15749  -4712090.98146  23190167.281    23190174.535
  22806436.977    -5266376.23749  -3825239.15546  22806436.182    22806442.655
  22747030.569    -5464042.09249  -4241413.37146  22747030.279    22747036.212
  22380734.893   -10821957.79149  -6074129.67746  22380734.340    22380740.267
  23974113.827    -1846773.54749  -1429464.78845  23974111.978    23974118.086
 04  1 17  1 18 30.0000000  0  9G29G 6G21G30G10G17G26G18G16
  23131412.143    -6046227.27549  -4175840.03146  23131411.777    23131417.015
  20301444.114   -18742610.87849 -14409351.33148  20301443.693    20301449.211
  21234253.941   -14069447.40649 -10299399.22647  21234253.113    21234257.073
  22561708.513    -4043231.60649  -3128118.84846  22561708.554    22561715.554
  23208898.637    -5984293.59149  -4635394.16546  23208897.435    23208904.626
  22818873.374    -5201023.51749  -3774314.92846  22818872.513    22818878.755
  22734078.340    -5532105.64749  -4294449.84846  22734078.066    22734084.258
  22363342.517   -10913355.34749  -6145348.46446  22363341.921    22363347.866
  23960861.137    -1916413.53649  -1483729.60745  23960858.443    23960867.848
 04  1 17  1 19  0.0000000  0  9G29G 6G21G30G10G17G26G18G16
  23125680.685    -6076345.13849  -4199308.44046  23125680.385    23125685.724
  20301201.528   -18743885.82549 -14410344.77648  20301201.101    20301206.579
  21227067.858   -14107210.48949 -10328824.96847  21227067.017    21227070.924
  22580437.728    -3944807.77649  -3051424.97746  22580437.868    22580445.136
  23227671.030    -5885643.76349  -4558524.15646  23227669.879    23227677.102
  22831323.764    -5135596.89649  -3723333.11346  22831322.874    22831329.023
  22721199.989    -5599780.64349  -4347183.53646  22721199.741    22721206.275
  22346006.256   -11004457.90549  -6216337.38846  22346005.682    22346011.552
  23947687.948    -1985634.96349  -1537668.28945  23947685.283    23947695.062
 04  1 17  1 19 30.0000000  0  9G29G 6G21G30G10G17G26G18G16
  23120038.336    -6105995.39849  -4222412.47846  23120038.061    23120043.421
  20301038.554   -18744742.46749 -14411012.27048  20301038.114    20301043.509
  21219921.390   -14144765.30449 -10358088.41847  21219920.545    21219924.481
  22599203.432    -3846194.25949  -2974583.31246  22599203.327    22599210.726
  23246485.724    -5786771.53849  -4481480.85246  23246484.643    23246491.917
  22843788.673    -5070093.56549  -3672291.54946  22843787.775    22843793.938
  22708396.909    -5667060.53549  -4399609.33646  22708396.684    22708403.395
  22328727.223   -11095260.34449  -6287092.44447  22328726.564    22328732.366
  23934595.770    -2054432.40049  -1591276.57845  23934593.785    23934602.723
 04  1 17  1 20  0.0000000  0  9G29G 6G21G30G10G17G26G18G16
  23114484.822    -6135179.05049  -4245152.94146  23114484.475    23114489.870
  20300954.831   -18745182.46649 -14411355.11248  20300954.402    20300959.754
  21212813.912   -14182114.93849 -10387191.99847  21212813.105    21212817.058
  22618004.016    -3747396.99349  -2897598.45946  22618003.772    22618011.331
  23265341.770    -5687682.27749  -4404268.43846  23265340.669    23265347.918
  22856267.323    -5004517.18149  -3621193.05146  22856266.546    22856272.601
  22695669.018    -5733944.94549  -4451726.97946  22695668.886    22695675.652
  22311505.045   -11185763.60749  -6357614.38447  22311504.407    22311510.121
  23921584.768    -2122806.68249  -1644555.21045  23921583.021    23921590.864
 04  1 17  1 20 30.0000000  0  9G29G 6G21G30G10G17G26G18G16
  23109020.872    -6163891.64849  -4267526.34746  23109020.459    23109025.977
  20300951.107   -18745202.08149 -14411370.37548  20300950.674    20300955.983
  21205745.997   -14219256.84749 -10416133.70948  21205745.228    21205749.170
  22636839.330    -3648416.37449  -2820470.72846  22636839.172    22636846.715
  23284239.208    -5588376.01649  -4326886.91646  23284238.047    23284245.159
  22868760.533    -4938865.25349  -3570035.68346  22868759.747    22868765.608
  22683017.562    -5800427.89249  -4503531.78746  22683017.414    22683024.321
  22294340.745   -11275962.91849  -6427899.46847  22294340.050    22294345.695
  23908655.144    -2190752.94149  -1697500.29845  23908653.703    23908660.458
 04  1 17  1 21  0.0000000  0  9G29G 6G21G30G10G17G26G18G16
  23103645.933    -6192136.72749  -4289535.43746  23103645.489    23103651.084
  20301026.583   -18744805.43849 -14411061.29048  20301026.162    20301031.426
  21198716.796   -14256196.16549 -10444917.55648  21198715.964    21198719.911
  22655708.366    -3549260.42349  -2743206.38146  22655707.979    22655715.509
  23303176.163    -5488860.91349  -4249342.68146  23303175.058    23303182.135
  22881266.971    -4873143.41749  -3518823.85046  22881266.169    22881271.969
  22670441.887    -5866511.27749  -4555025.25246  22670441.831    22670448.913
  22277233.423   -11365861.75649  -6497950.44147  22277232.883    22277238.457
  23895806.196    -2258274.38749  -1750114.32645  23895804.987    23895811.253
 04  1 17  1 21 30.0000000  0  9G29G 6G21G30G10G17G26G18G16
  23098361.008    -6219907.52849  -4311174.96546  23098360.678    23098366.493
  20301182.432   -18743986.79549 -14410423.36248  20301181.984    20301187.213
  21191726.792   -14292928.62249 -10473540.21448  21191725.983    21191729.929
  22674610.936    -3449927.38349  -2665804.03246  22674610.513    22674617.922
  23322153.191    -5389135.29449  -4171634.40046  23322152.130    23322159.170
  22893787.366    -4807347.49649  -3467554.27546  22893786.611    22893792.510
  22657943.919    -5932187.17949  -4606201.20346  22657943.862    22657951.137
  22260184.754   -11455453.29949  -6567761.93447  22260184.185    22260189.726
  23883039.781    -2325364.12149  -1802392.00645  23883038.428    23883043.875
 04  1 17  1 22  0.0000000  0  9G29G 6G21G30G10G17G26G18G16
  23093167.336    -6247200.73149  -4332442.33546  23093166.964    23093172.845
  20301419.041   -18742743.23249 -14409454.33948  20301418.610    20301423.816
  21184776.475   -14329452.60049 -10502000.42648  21184775.665    21184779.623
  22693546.731    -3350418.65449  -2588264.78646  22693546.524    22693553.808
  23341170.253    -5289199.60549  -4093762.43346  23341169.304    23341176.123
  22906322.244    -4741475.93049  -3416225.76746  22906321.543    22906327.434
  22645524.647    -5997450.45249  -4657055.62846  22645524.490    22645531.822
  22243195.229   -11544733.78149  -6637331.07147  22243194.707    22243200.203
  23870355.026    -2392018.24549  -1854330.15345  23870353.969    23870359.662
 04  1 17  1 22 30.0000000  0  9G29G 6G21G30G10G17G26G18G16
  23088063.546    -6274020.88749  -4353341.08446  23088063.067    23088069.029
  20301735.471   -18741080.38749 -14408158.58748  20301735.031    20301740.200
  21177864.502   -14365775.01449 -10530303.57148  21177863.710    21177867.687
  22712514.673    -3250743.67749  -2510595.99545  22712514.143    22712521.226
  23360225.770    -5189063.19649  -4015734.04946  23360224.762    23360231.307
  22918870.268    -4675536.23949  -3364844.15446  22918869.477    22918875.305
  22633183.405    -6062304.31449  -4707591.01746  22633183.044    22633190.528
  22226264.056   -11633707.83149  -6706661.40947  22226263.518    22226269.004
  23857752.569    -2458241.78049  -1905932.86145  23857751.792    23857757.438
 04  1 17  1 23  0.0000000  0  9G29G 6G21G30G10G17G26G18G16
  23083051.090    -6300361.41449  -4373866.11046  23083050.557    23083056.584
  20302132.881   -18738992.10849 -14406531.34248  20302132.436    20302137.550
  21170991.946   -14401890.57749 -10558445.53147  21170991.148    21170995.052
  22731514.519    -3150900.36349  -2432796.02445  22731513.850    22731520.651
  23379319.961    -5088723.95049  -3937547.60846  23379318.903    23379325.132
  22931432.066    -4609523.56149  -3313405.68646  22931431.290    22931437.104
  22620921.400    -6126740.67149  -4757801.08646  22620920.903    22620928.676
  22209392.461   -11722368.52349  -6775747.58247  22209391.888    22209397.364
  23845233.658    -2524027.17449  -1957194.08845  23845233.239    23845239.168
 04  1 17  1 23 30.0000000  0  9G29G 6G21G30G10G17G26G18G16
  23078128.967    -6326225.96449  -4394020.26246  23078128.575    23078134.723
  20302610.389   -18736482.61049 -14404575.87248  20302609.956    20302615.022
  21164157.591   -14437805.06749 -10586430.81847  21164156.829    21164160.695
  22750544.493    -3050897.03049  -2354871.34445  22750543.895    22750550.587
  23398451.265    -4988189.91249  -3859209.38246  23398450.110    23398456.054
  22944006.864    -4543443.38749  -3261914.62946  22944006.055    22944011.788
  22608738.181    -6190761.50149  -4807687.38346  22608737.737    22608745.855
  22192579.792   -11810719.68249  -6844592.56447  22192579.177    22192584.674
  23832798.673    -2589377.66349  -2008116.48645  23832797.817    23832803.828
 04  1 17  1 24  0.0000000  0  9G29G 6G21G30G10G17G26G18G16
  23073298.816    -6351607.17049  -4413797.78446  23073298.498    23073304.816
  20303169.319   -18733545.51749 -14402287.20648  20303168.899    20303173.905
  21157362.532   -14473512.97249 -10614255.12547  21157361.783    21157365.751
  22769605.414    -2950731.18549  -2276820.05045  22769604.911    22769611.350
  23417619.944    -4887458.03049  -3780716.99946  23417618.859    23417624.518
  22956595.402    -4477290.91549  -3210367.22346  22956594.540    22956600.078
  22596635.944    -6254358.08249  -4857243.08646  22596635.465    22596643.785
  22175827.543   -11898753.15049  -6913189.99047  22175826.895    22175832.385
  23820447.239    -2654285.72249  -2058694.11145  23820446.387    23820452.141
 04  1 17  1 24 30.0000000  0  9G29G 6G21G30G10G17G26G18G16
  23068560.496    -6376505.86649  -4433199.32846  23068560.278    23068566.746
  20303809.345   -18730182.28749 -14399666.48348  20303808.906    20303813.883
  21150606.309   -14509016.86949 -10641920.45247  21150605.551    21150609.545
  22788696.059    -2850408.08049  -2198646.19645  22788695.824    22788702.156
  23436825.141    -4786533.68549  -3702074.64846  23436824.154    23436829.665
  22969197.091    -4411068.80449  -3158765.56046  22969196.186    22969201.663
  22584614.738    -6317529.67149  -4906467.62546  22584614.317    22584622.630
  22159135.502   -11986470.06049  -6981540.75347  22159134.860    22159140.331
  23808179.888    -2718751.84349  -2108927.40045  23808179.050    23808184.326
 04  1 17  1 25  0.0000000  0  9G29G 6G21G30G10G17G26G18G16
  23063914.755    -6400918.97449  -4452222.47146  23063914.495    23063921.141
  20304530.970   -18726390.32149 -14396711.68948  20304530.536    20304535.450
  21143889.053   -14544315.64549 -10669425.96547  21143888.321    21143892.346
  22807816.730    -2749929.27149  -2120351.02345  22807816.387    22807822.609
  23456066.885    -4685417.81849  -3623283.06146  23456065.923    23456071.191
  22981812.057    -4344776.16049  -3107108.94446  22981811.213    22981816.519
  22572675.516    -6380271.50749  -4955357.29046  22572674.923    22572683.179
  22142504.386   -12073867.17049  -7049642.32347  22142503.744    22142509.163
  23795996.910    -2782772.54149  -2158813.58245  23795996.424    23796001.544
 04  1 17  1 25 30.0000000  0  9G29G 6G21G30G10G17G26G18G16
  23059361.429    -6424846.68649  -4470867.40846  23059361.097    23059367.888
  20305334.000   -18722170.51049 -14393423.50548  20305333.560    20305338.437
  21137210.625   -14579411.15449 -10696773.07847  21137209.854    21137213.930
  22826965.933    -2649299.79149  -2041938.45945  22826965.600    22826971.769
  23475344.074    -4584115.38449  -3544346.08346  23475343.118    23475348.202
  22994440.237    -4278415.14249  -3055399.05146  22994439.291    22994444.502
  22560818.068    -6442582.30549  -5003911.08446  22560817.422    22560825.682
  22125934.195   -12160944.24049  -7117494.51647  22125933.545    22125938.936
  23783898.247    -2846347.74049  -2208352.59445  23783897.612    23783903.708
 04  1 17  1 26  0.0000000  0  9G29G 6G21G30G10G17G26G18G16
  23054901.352    -6448284.28449  -4489130.42246  23054901.004    23054907.862
  20306219.230   -18717518.87349 -14389798.83848  20306218.747    20306223.613
  21130571.411   -14614300.58449 -10723959.61547  21130570.640    21130574.715
  22846143.956    -2548519.39549  -1963408.30545  22846143.424    22846149.659
  23494656.775    -4482626.25449  -3465263.65746  23494655.819    23494660.806
  23007081.678    -4211983.27649  -3003633.94146  23007080.739    23007085.990
  22549043.616    -6504455.92149  -5052124.22646  22549043.122    22549051.275
  22109425.737   -12247696.63649  -7185093.71547  22109425.113    22109430.446
  23771885.232    -2909472.64249  -2257540.74645  23771884.687    23771891.146
 04  1 17  1 26 30.0000000  0  9G29G 6G21G30G10G17G26G18G16
  23050534.420    -6471232.70349  -4507012.24846  23050533.978    23050540.929
  20307186.264   -18712436.70149 -14385838.68548  20307185.808    20307190.666
  21123970.873   -14648986.44649 -10750987.52448  21123970.120    21123974.196
  22865349.339    -2447593.44249  -1884764.69645  22865348.968    22865355.111
  23514004.093    -4380955.12149  -3386039.37546  23514003.184    23514007.904
  23019736.099    -4145483.18649  -2951815.66446  23019735.120    23019740.551
  22537352.728    -6565891.68949  -5099996.16246  22537352.276    22537360.217
  22092979.055   -12334124.57849  -7252440.08747  22092978.409    22092983.729
  23759958.832    -2972147.49649  -2306378.21445  23759958.072    23759964.652
 04  1 17  1 27  0.0000000  0  9G29G 6G21G30G10G17G26G18G16
  23046259.958    -6493694.26749  -4524514.72246  23046259.627    23046266.681
  20308234.663   -18706927.35749 -14381545.66848  20308234.192    20308239.060
  21117408.319   -14683473.39049 -10777860.42448  21117407.513    21117411.545
  22884581.269    -2346529.04749  -1806013.24045  22884580.835    22884587.152
  23533384.852    -4279108.78249  -3306678.58346  23533383.898    23533388.386
  23032402.535    -4078919.43049  -2899947.78546  23032401.681    23032407.227
  22525744.913    -6626890.28849  -5147527.46846  22525744.552    22525752.474
  22076593.529   -12420230.67249  -7319535.67547  22076592.953    22076598.261
  23748118.065    -3034374.24249  -2354866.50945  23748117.459    23748123.058
 04  1 17  1 27 30.0000000  0  9G29G 6G21G30G10G17G26G18G16
  23042079.991    -6515659.64949  -4541630.56446  23042079.641    23042086.750
  20309365.981   -18700981.93449 -14376912.85548  20309365.529    20309370.389
  21110885.103   -14717753.12849 -10804571.87448  21110884.279    21110888.313
  22903840.542    -2245321.08349  -1727149.93145  22903840.082    22903846.512
  23552800.044    -4177081.90549  -3227177.12046  23552799.027    23552803.526
  23045082.620    -4012284.30349  -2848024.29146  23045081.772    23045087.522
  22514222.350    -6687440.69149  -5194709.53146  22514221.949    22514230.069
  22060271.284   -12506004.82749  -7386372.61247  22060270.653    22060275.937
  23736364.497    -3096143.32249  -2402998.24545  23736363.796    23736368.581
 04  1 17  1 28  0.0000000  0  9G29G 6G21G30G10G17G26G18G16
  23037993.407    -6537134.91949  -4558364.48246  23037993.109    23038000.130
  20310579.033   -18694607.22549 -14371945.52648  20310578.559    20310583.465
  21104399.784   -14751833.46649 -10831127.93948  21104399.009    21104403.021
  22923124.898    -2143980.31349  -1648183.12545  22923124.591    22923131.121
  23572247.607    -4074884.65849  -3147542.90646  23572246.464    23572251.005
  23057774.778    -3945586.17749  -2796051.70246  23057773.965    23057779.899
  22502784.012    -6747547.49049  -5241545.94346  22502783.867    22502792.060
  22044010.969   -12591453.02949  -7452955.55847  22044010.349    22044015.587
  23724696.258    -3157460.44249  -2450777.73345  23724695.675    23724700.436
 04  1 17  1 28 30.0000000  0  9G29G 6G21G30G10G17G26G18G16
  23034001.903    -6558110.69449  -4574709.19846  23034001.572    23034008.503
  20311875.424   -18687794.26349 -14366636.70948  20311874.982    20311879.910
  21097953.953   -14785706.82949 -10857522.72648  21097953.111    21097957.101
  22942435.817    -2042501.72249  -1569108.91945  22942435.432    22942441.893
  23591728.422    -3972512.10149  -3067772.06845  23591727.288    23591731.751
  23070480.543    -3878817.19349  -2744023.90046  23070479.709    23070485.604
  22491432.589    -6807199.71249  -5288028.12346  22491432.545    22491440.391
  22027814.481   -12676565.55049  -7519276.93347  22027813.892    22027819.089
  23713115.843    -3218315.66149  -2498197.31445  23713115.083    23713120.180
 04  1 17  1 29  0.0000000  0  9G29G 6G21G30G10G17G26G18G16
  23030104.587    -6578591.19349  -4590667.97546  23030104.241    23030111.178
  20313254.297   -18680547.99249 -14360990.24548  20313253.867    20313258.832
  21091546.273   -14819379.15849 -10883760.86448  21091545.467    21091549.438
  22961771.396    -1940893.97449  -1489934.08045  22961770.966    22961777.246
  23611240.807    -3869972.74749  -2987871.27445  23611239.749    23611244.153
  23083198.479    -3811983.55949  -2691945.71246  23083197.734    23083203.622
  22480167.227    -6866399.94649  -5334158.09346  22480167.214    22480174.643
  22011681.118   -12761346.52749  -7585339.96747  22011680.511    22011685.680
  23701622.204    -3278712.80349  -2545259.92445  23701621.420    23701627.472
 04  1 17  1 29 30.0000000  0  9G29G 6G21G30G10G17G26G18G16
  23026301.924    -6598572.93849  -4606238.12346  23026301.693    23026308.822
  20314716.248   -18672865.26949 -14355003.69448  20314715.785    20314720.763
  21085177.266   -14852848.27749 -10909840.65748  21085176.486    21085180.446
  22981131.270    -1839158.07949  -1410659.37445  22981130.794    22981137.032
  23630784.869    -3767266.94849  -2907840.78545  23630783.800    23630788.258
  23095929.212    -3745083.38449  -2639815.69646  23095928.392    23095934.216
  22468988.951    -6925143.01149  -5379931.82746  22468988.833    22468995.923
  21995611.537   -12845792.02749  -7651141.58947  21995610.966    21995616.121
  23690216.591    -3338647.95649  -2591962.57945  23690215.855    23690222.294
 04  1 17  1 30  0.0000000  0  9G29G 6G21G30G10G17G26G18G16
  23022594.355    -6618055.25549  -4621419.10746  23022594.180    23022601.442
  20316261.177   -18664746.29949 -14348677.20448  20316260.745    20316265.736
  21078846.722   -14886115.50749 -10935763.13847  21078845.899    21078849.873
  23000514.903    -1737297.76149  -1331287.73445  23000514.275    23000520.387
  23650359.948    -3664398.54649  -2827683.58945  23650358.818    23650363.480
  23108672.176    -3678118.19649  -2587634.99246  23108671.390    23108677.272
  22457897.929    -6983426.78249  -5425347.67946  22457897.781    22457904.687
  21979605.970   -12929901.19349  -7716681.13347  21979605.446    21979610.591
  23678899.280    -3398120.27649  -2638304.61845  23678898.360    23678904.911
 04  1 17  1 30 30.0000000  0  9G29G 6G21G30G10G17G26G18G16
  23018982.653    -6637034.33449  -4636207.94946  23018982.490    23018989.894
  20317889.854   -18656187.64549 -14342008.11248  20317889.388    20317894.378
  21072554.955   -14919178.38249 -10961526.37947  21072554.194    21072558.187
  23019921.840    -1635313.58249  -1251819.57745  23019921.270    23019927.351
  23669965.900    -3561367.38849  -2747399.57045  23669964.804    23669969.794
  23121427.940    -3611085.69449  -2535401.86646  23121427.189    23121433.181
  22446895.321    -7041245.75649  -5470401.36346  22446895.168    22446902.045
  21963665.295   -13013669.72749  -7781955.24547  21963664.702    21963669.813
  23667670.775    -3457125.38549  -2684282.56745  23667669.973    23667676.312
 04  1 17  1 31  0.0000000  0  9G29G 6G21G30G10G17G26G18G16
  23015466.976    -6655508.96049  -4650603.72446  23015466.754    23015474.273
  20319602.196   -18647188.69949 -14334995.92348  20319601.783    20319606.779
  21066302.113   -14952037.22049 -10987130.62847  21066301.293    21066305.346
  23039352.002    -1533208.52849  -1172257.23645  23039351.429    23039357.336
  23689602.367    -3458176.27249  -2666990.89745  23689601.371    23689606.336
  23134196.607    -3543986.30249  -2483116.57846  23134195.700    23134201.533
  22435981.770    -7098596.97249  -5515090.56846  22435981.603    22435988.457
  21947789.669   -13097096.13149  -7846962.76847  21947789.122    21947794.237
  23656531.921    -3515661.46949  -2729895.08145  23656531.054    23656536.814
 04  1 17  1 31 30.0000000  0 10G29G 6G21G30G15G10G17G26G18G16
  23012046.440    -6673484.45649  -4664610.54346  23012046.082    23012053.666
  20321397.268   -18637755.30249 -14327645.20448  20321396.860    20321401.834
  21060086.683   -14984698.75349 -11012581.13647  21060085.926    21060090.007
  23058803.179    -1430992.27149  -1092608.24045  23058802.633    23058808.352
                  -1306007.74949  -1005749.67643
  23709267.419    -3354834.48149  -2586464.84445  23709266.616    23709271.551
  23146976.217    -3476827.03649  -2430784.68146  23146975.413    23146981.507
  22425156.639    -7155484.27549  -5559418.26046  22425156.397    22425163.182
  21931978.386   -13180185.23949  -7911707.46547  21931977.718    21931982.825
  23645481.244    -3573733.61049  -2775146.07145  23645480.155    23645485.873
 04  1 17  1 32  0.0000000  0 10G29G 6G21G30G15G10G17G26G18G16
  23008722.286    -6690952.61549  -4678222.05346  23008721.923    23008729.493
  20323276.523   -18627879.84049 -14319950.02348  20323276.089    20323281.005
  21053910.182   -15017156.75749 -11037873.04847  21053909.352    21053913.423
  23078276.033    -1328661.15349  -1012869.72545  23078275.752    23078281.203
                  -1384187.77049  -1066669.58543
  23728962.106    -3251337.91849  -2505818.17145  23728961.341    23728966.153
  23159768.655    -3409601.67049  -2378401.23146  23159767.847    23159774.033
  22414421.454    -7211897.78549  -5603376.78446  22414421.299    22414427.924
  21916232.811   -13262928.70749  -7976182.83347  21916232.098    21916237.233
  23634520.387    -3631333.22249  -2820028.81345  23634519.334    23634525.366
 04  1 17  1 32 30.0000000  0 10G29G 6G21G30G15G10G17G26G18G16
  23005494.702    -6707913.29749  -4691438.12146  23005494.388    23005501.838
  20325239.765   -18617562.85149 -14311910.79748  20325239.340    20325244.224
  21047772.034   -15049412.19049 -11063007.11947  21047771.251    21047775.359
  23097770.604    -1226219.13949   -933044.81345  23097770.037    23097775.260
                  -1462284.17149  -1127524.97743
  23748685.622    -3147690.53949  -2425053.95345  23748684.668    23748689.291
  23172573.366    -3342311.52249  -2325967.33546  23172572.722    23172579.026
  22403776.977    -7267835.75249  -5646964.73446  22403776.728    22403783.114
  21900553.181   -13345325.69649  -8040388.21747  21900552.453    21900557.551
  23623649.339    -3688459.86249  -2864543.02745  23623648.179    23623654.386
 04  1 17  1 33  0.0000000  0 10G29G 6G21G30G15G10G17G26G18G16
  23002363.951    -6724365.59249  -4704258.03746  23002363.605    23002370.936
  20327287.069   -18606803.94449 -14303527.20848  20327286.632    20327291.505
  21041672.354   -15081465.61249 -11087983.77247  21041671.574    21041675.700
  23117285.481    -1123669.69149   -853136.20845  23117284.796    23117289.744
                  -1540297.42149   -980215.28143
  23768437.274    -3043895.14749  -2344174.42345  23768436.263    23768440.804
  23185390.535    -3274957.54849  -2273483.68146  23185389.789    23185396.091
  22393223.357    -7323295.64149  -5690180.16646  22393223.134    22393229.159
  21884939.687   -13427375.11449  -8104322.76247  21884938.932    21884943.996
  23612868.799    -3745111.96049  -2908687.46245  23612867.662    23612873.698
 04  1 17  1 33 30.0000000  0 10G29G 6G21G30G15G10G17G26G18G16
  22999329.467    -6740311.49849  -4716683.37046  22999329.225    22999336.378
  20329418.095   -18595605.38049 -14294801.04148  20329417.667    20329422.476
  21035610.508   -15113320.39449 -11112805.64947  21035609.751    21035613.887
  23136819.191    -1021018.83049   -773148.55445  23136818.734    23136823.602
                  -1618230.52649  -1040944.50843
  23788215.980    -2939957.52149  -2263184.06945  23788214.772    23788219.616
  23198218.924    -3207542.96849  -2220952.81546  23198218.347    23198224.459
  22382760.784    -7378277.57649  -5733023.15646  22382760.517    22382766.254
  21869392.013   -13509078.13649  -8167987.39847  21869391.296    21869396.349
  23602178.112    -3801290.95249  -2952463.23245  23602176.964    23602183.899
 04  1 17  1 34  0.0000000  0 10G29G 6G21G30G15G10G17G26G18G16
  22996392.058    -6755748.03749  -4728711.79446  22996391.759    22996398.775
  20331633.261   -18583964.70349 -14285730.36048  20331632.794    20331637.557
  21029586.856   -15144974.93149 -11137471.48547  21029586.061    21029590.160
  23156371.910     -918267.77949   -693082.83445  23156371.689    23156376.540
                  -1696081.79549  -1101610.57743
  23808021.279    -2835878.63549  -2182083.64745  23808020.232    23808025.451
  23211059.512    -3140066.68049  -2168373.86246  23211058.739    23211065.045
  22372389.847    -7432776.90149  -5775490.10446  22372389.597    22372395.294
  21853910.809   -13590432.15249  -8231380.07547  21853910.053    21853915.095
  23591577.908    -3856993.30849  -2995867.59145  23591576.811    23591584.333
 04  1 17  1 34 30.0000000  0 10G29G 6G21G30G15G10G17G26G18G16
  22993552.692    -6770669.77549  -4740339.07446  22993552.335    22993559.187
  20333933.392   -18571877.28849 -14276311.57748  20333932.931    20333937.649
  21023601.948   -15176425.47949 -11161978.37847  21023601.174    21023605.267
  23175944.041     -815415.57149   -612938.29945  23175943.738    23175948.549
                  -1773847.35749   -954512.89143
  23827853.683    -2731657.29549  -2100872.20345  23827852.771    23827858.244
  23223912.227    -3072524.68249  -2115743.73246  23223911.570    23223917.780
  22362112.100    -7486786.84149  -5817575.70346  22362111.813    22362117.604
  21838497.133   -13671431.22449  -8294496.17847  21838496.364    21838501.395
  23581069.876    -3912213.56149  -3038896.33245  23581068.845    23581075.981
 04  1 17  1 35  0.0000000  0 10G29G 6G21G30G15G10G17G26G18G16
  22990810.679    -6785080.16649  -4751567.89546  22990810.223    22990817.007
  20336317.819   -18559346.75649 -14266547.50448  20336317.351    20336322.088
  21017654.962   -15207676.83149 -11186330.04947  21017654.191    21017658.329
  23195534.216     -712469.57949   -532720.66345  23195533.696    23195538.720
                  -1851531.67849  -1015045.99443
  23847712.255    -2627300.47249  -2019555.18645  23847711.252    23847716.853
  23236776.911    -3004921.99749  -2063066.28246  23236776.115    23236782.172
  22351926.878    -7540308.94649  -5859281.19746  22351926.743    22351932.568
  21823150.453   -13752078.09449  -8357337.83347  21823149.698    21823154.731
  23570653.006    -3966954.40349  -3081551.49245  23570652.037    23570658.785
 04  1 17  1 35 30.0000000  0 10G29G 6G21G30G15G10G17G26G18G16
  22988166.590    -6798975.29449  -4762395.23046  22988166.163    22988172.712
  20338787.185   -18546369.82049 -14256435.58748  20338786.731    20338791.500
  21011746.514   -15238726.08849 -11210524.24647  21011745.711    21011749.844
  23215142.174     -609430.07849   -452430.20245  23215141.592    23215146.465
                  -1929131.95949  -1075513.76344                  24089340.158
  23867596.704    -2522807.95249  -1938132.43245  23867595.837    23867601.383
  23249653.394    -2937256.08249  -2010339.58746  23249652.669    23249658.643
  22341835.947    -7593337.58949  -5900602.15846  22341835.769    22341841.461
  21807871.670   -13832368.50449  -8419901.72647  21807870.845    21807875.904
  23560328.262    -4021211.65049  -3123829.84645  23560327.514    23560333.240
 04  1 17  1 36  0.0000000  0 10G29G 6G21G30G15G10G17G26G18G16
  22985620.663    -6812354.58349  -4772820.61246  22985620.356    22985626.650
  20341341.562   -18532946.27149 -14245975.65948  20341341.093    20341345.894
  21005876.320   -15269573.84149 -11234561.42847  21005875.545    21005879.683
  23234767.303     -506300.51849   -372069.54345  23234766.745    23234771.400
  24074583.807    -2006648.53049  -1135916.17544  24074583.013    24074589.224
  23887506.226    -2418182.86349  -1856606.36845  23887505.344    23887510.794
  23262541.874    -2869527.84149  -1957564.29846  23262540.968    23262546.670
  22331839.465    -7645870.47349  -5941536.80446  22331839.229    22331844.704
  21792660.848   -13912301.20149  -8482186.88647  21792660.055    21792665.163
  23550095.672    -4074984.10949  -3165730.45245  23550094.970    23550100.598
 04  1 17  1 36 30.0000000  0 10G29G 6G21G30G15G10G17G26G18G16
  22983173.213    -6825215.82149  -4782842.30746  22983172.960    22983179.079
  20343981.252   -18519074.40549 -14235166.39948  20343980.805    20343985.614
  21000044.627   -15300219.54049 -11258441.16847  21000043.852    21000047.962
  23254408.562     -403082.79349   -291640.15045  23254408.389    23254412.972
  24059848.263    -2084080.53249  -1196252.69444  24059845.384    24059855.568
  23907440.469    -2313426.58749  -1774978.09045  23907439.744    23907445.418
  23275442.073    -2801736.56749  -1904739.93746  23275441.257    23275447.008
  22321937.933    -7697903.92649  -5982082.28846  22321937.694    22321942.918
  21777518.530   -13991873.72649  -8544191.39547  21777517.778    21777522.952
  23539955.153    -4128269.20349  -3207251.18345  23539954.529    23539961.263
 04  1 17  1 37  0.0000000  0 10G29G 6G21G30G15G10G17G26G18G16
  22980824.235    -6837559.76649  -4792460.92246  22980823.886    22980829.925
  20346706.005   -18504755.45449 -14224008.75348  20346705.559    20346710.394
  20994250.971   -15330665.08749 -11282164.94047  20994250.183    20994254.308
  23274066.291     -299781.67149   -211145.80745  23274066.060    23274070.381
  24045128.252    -2161429.62048  -1256524.65044  24045125.146    24045135.654
  23927398.949    -2208543.50449  -1693251.00145  23927398.087    23927404.295
  23288354.145    -2733884.19649  -1851867.93346  23288353.109    23288358.880
  22312131.720    -7749436.70149  -6022237.62446  22312131.363    22312136.475
  21762444.749   -14071086.13149  -8605915.28747  21762444.054    21762449.298
  23529908.269    -4181066.84649  -3248392.16245  23529907.724    23529914.769
 04  1 17  1 37 30.0000000  0 10G29G 6G21G30G15G10G17G26G18G16
  22978574.157    -6849383.95049  -4801674.52846  22978573.804    22978579.776
  20349516.242   -18489987.50549 -14212501.23948  20349515.783    20349520.637
  20988495.656   -15360909.10749 -11305731.67847  20988494.927    20988499.000
  23293739.461     -196398.85749   -130587.77745  23293739.200    23293743.377
  24030423.499    -2238694.68348  -1316731.17444  24030421.491    24030433.122
  23947381.358    -2103535.30749  -1611426.44745  23947380.424    23947387.021
  23301277.471    -2665970.00349  -1798947.77046  23301276.712    23301282.691
  22302421.290    -7800464.99249  -6061999.85046  22302420.916    22302426.096
  21747440.028   -14149935.72549  -8667356.46147  21747439.401    21747444.680
  23519954.626    -4233374.33549  -3289151.19445  23519953.983    23519960.985
 04  1 17  1 38  0.0000000  0  9G29G 6G21G30G10G17G26G18G16
  22976423.732    -6860685.09749  -4810480.56246  22976423.353    22976429.136
  20352412.454   -18474767.61049 -14200641.56448  20352411.998    20352416.886
  20982779.175   -15390949.78749 -11329139.96948  20982778.405    20982782.341
  23313427.536      -92934.88649    -49966.51745  23313427.511    23313431.619
  23967387.261    -1998402.16349  -1529504.49645  23967386.466    23967393.164
  23314213.609    -2597991.93949  -1745977.81646  23314212.616    23314218.651
  22292807.724    -7850983.46049  -6101364.84546  22292807.441    22292812.693
  21732505.234   -14228418.49049  -8728511.80047  21732504.600    21732509.909
  23510095.561    -4285187.81649  -3329525.32245  23510094.750    23510100.900
 04  1 17  1 38 30.0000000  0  9G29G 6G21G30G10G17G26G18G16
  22974372.810    -6871463.18549  -4818879.02146  22974372.453    22974378.193
  20355394.610   -18459096.16249 -14188430.02548  20355394.144    20355399.045
  20977101.173   -15420788.03049 -11352390.51248  20977100.376    20977104.275
  23333130.638       10606.30649     30714.85445  23333130.310    23333134.336
  23987416.317    -1893147.23349  -1447487.65244  23987415.467    23987422.711
  23327161.306    -2529951.11249  -1692958.97446  23327160.383    23327166.174
  22283291.719    -7900990.54849  -6140331.34246  22283291.348    22283296.627
  21717640.328   -14306534.10149  -8789381.04147  21717639.631    21717644.965
  23500329.488    -4336506.97349  -3369514.19745  23500328.940    23500334.997
 04  1 17  1 39  0.0000000  0  9G29G 6G21G30G10G17G26G18G16
  22972420.647    -6881722.59949  -4826873.32246  22972420.264    22972425.873
  20358461.761   -18442978.00449 -14175870.40348  20358461.311    20358466.234
  20971460.516   -15450429.28449 -11375487.56648  20971459.810    20971463.711
  23352846.502      114216.35749    111449.89944  23352846.411    23352850.420
  24007466.762    -1787778.61049  -1365382.22444  24007466.276    24007473.731
  23340120.095    -2461853.39549  -1639895.82046  23340119.002    23340124.878
  22273872.309    -7950488.88249  -6178901.41946  22273872.079    22273877.321
  21702844.490   -14384286.53849  -8849967.29747  21702843.824    21702849.158
  23490657.236    -4387335.49149  -3409120.82245  23490656.567    23490662.253
 04  1 17  1 39 30.0000000  0  9G29G 6G21G30G10G17G26G18G16
  22970567.880    -6891458.99249  -4834460.08546  22970567.487    22970573.046
  20361614.665   -18426409.26449 -14162959.68148  20361614.198    20361619.169
  20965858.101   -15479870.56149 -11398428.79448  20965857.339    20965861.184
  23372574.891      217895.49849    192238.82744  23372575.583    23372579.880
  24027539.527    -1682295.86549  -1283187.89144  24027538.812    24027546.536
  23353089.810    -2393695.80449  -1586786.00446  23353088.893    23353094.665
  22264551.001    -7999472.60949  -6217070.49346  22264550.712    22264555.884
  21688118.814   -14461670.91749  -8910266.75547  21688118.078    21688123.393
  23481079.043    -4437668.66049  -3448341.40045  23481078.407    23481084.241
 04  1 17  1 40  0.0000000  0  9G29G 6G21G30G10G17G26G18G16
  22968815.035    -6900670.51249  -4841637.84146  22968814.571    22968819.864
  20364853.588   -18409388.47149 -14149696.70048  20364853.116    20364858.134
  20960293.796   -15509111.15849 -11421213.63648  20960293.021    20960296.856
  23392316.982      321641.92749    273080.15544  23392317.486    23392322.428
  24047633.773    -1576700.50949  -1200905.77044  24047632.830    24047640.931
  23366071.514    -2325477.49249  -1533628.86845  23366070.486    23366075.885
  22255328.166    -8047937.97049  -6254835.64146  22255327.938    22255333.226
  21673463.665   -14538684.67549  -8970277.40747  21673462.874    21673468.145
  23471595.917    -4487504.00449  -3487174.09145  23471595.123    23471600.700
 04  1 17  1 40 30.0000000  0  9G29G 6G21G30G10G17G26G18G16
  22967161.827    -6909357.09249  -4848406.57146  22967161.445    22967166.718
  20368178.523   -18391915.65949 -14136081.50348  20368178.064    20368183.078
  20954767.586   -15538151.76049 -11443842.63848  20954766.817    20954770.652
  23412071.547      425451.91548    353970.97944  23412071.669    23412076.457
  24067748.855    -1470995.56149  -1118538.26444  24067747.766    24067755.567
  23379064.040    -2257199.47649  -1480425.19845  23379063.222    23379068.605
  22246204.480    -8095882.97449  -6292195.33146  22246204.223    22246209.576
  21658879.093   -14615326.87649  -9029998.54847  21658878.331    21658883.580
  23462207.356    -4536840.87049  -3525618.32645  23462206.672    23462212.296
 04  1 17  1 41  0.0000000  0 10G29G 6G21G30G15G10G17G26G18G16
  22965608.532    -6917519.91549  -4854767.17746  22965608.070    22965613.074
  20371589.162   -18373992.62749 -14122115.48748  20371588.703    20371593.760
  20949278.928   -15566994.84249 -11466317.73848  20949278.147    20949281.954
  23431837.138      529320.31148    434907.33444  23431836.977    23431841.496
                  -1131010.77949   -871577.20743
  24087883.620    -1365186.00048  -1036089.24344  24087882.607    24087889.890
  23392067.851    -2188864.41549  -1427177.08945  23392066.889    23392072.159
  22237179.946    -8143307.29649  -6329149.29346  22237179.671    22237185.098
  21644365.077   -14691598.33749  -9089430.80147  21644364.328    21644369.565
  23452913.927    -4585679.92349  -3563674.69745  23452913.136    23452918.532
 04  1 17  1 41 30.0000000  0 10G29G 6G21G30G15G10G17G26G18G16
  22964155.538    -6925155.25749  -4860716.75146  22964155.126    22964160.043
  20375086.071   -18355616.08649 -14107796.09248  20375085.612    20375090.675
  20943828.346   -15595637.69149 -11488636.80548  20943827.550    20943831.345
  23451612.772      633246.97649    515889.11744  23451613.306    23451618.303
                  -1207608.26949   -931265.73843
  24108038.553    -1259271.33549   -953558.33244  24108037.793    24108044.886
  23405082.681    -2120469.56749  -1373882.40345  23405081.899    23405087.266
  22228255.672    -8190205.55849  -6365693.32846  22228255.289    22228260.755
  21629922.255   -14767494.98249  -9148570.98547  21629921.597    21629926.852
  23443715.500    -4634016.89049  -3601339.80445  23443714.794    23443720.386
 04  1 17  1 42  0.0000000  0 10G29G 6G21G30G15G10G17G26G18G16
  22962803.530    -6932260.48849  -4866253.24546  22962803.053    22962807.861
  20378669.726   -18336783.86049 -14093121.61348  20378669.271    20378674.366
  20938416.182   -15624078.84249 -11510798.70848  20938415.387    20938419.153
  23471399.994      737230.78148    596915.42844  23471400.088    23471405.738
                  -1284119.94149   -990887.88643
  24128213.838    -1153252.14748   -870945.93644  24128212.588    24128219.559
  23418109.754    -2052013.61549  -1320540.07745  23418108.882    23418113.883
  22219432.152    -8236573.48349  -6401824.11546  22219431.727    22219437.264
  21615551.305   -14843014.04649  -9207416.94847  21615550.736    21615555.990
  23434613.452    -4681848.86749  -3638611.42045  23434612.655    23434618.162
 04  1 17  1 42 30.0000000  0 10G29G 6G21G30G15G10G17G26G18G16
  22961550.975    -6938842.26849  -4871381.85046  22961550.520    22961555.208
  20382338.739   -18317502.84649 -14078097.42748  20382338.291    20382343.422
  20933040.995   -15652325.74849 -11532809.25048  20933040.188    20933043.968
  23491196.871      841261.44148    677978.24644  23491196.663    23491202.106
                  -1360553.53249   -844810.74043
  24148407.336    -1047138.76949   -788260.16744  24148405.473    24148412.035
  23431146.487    -1983504.25549  -1267156.14945  23431145.655    23431150.414
  22210708.569    -8282415.89349  -6437545.41346  22210708.077    22210713.732
  21601251.334   -14918161.04749  -9265972.99547  21601250.705    21601255.917
  23425606.506    -4729181.68749  -3675494.08345  23425605.681    23425610.825
 04  1 17  1 43  0.0000000  0 10G29G 6G21G30G15G10G17G26G18G16
  22960399.581    -6944892.79849  -4876096.50846  22960399.206    22960403.712
  20386094.603   -18297765.51049 -14062717.67148  20386094.181    20386099.313
  20927704.149   -15680371.21449 -11554662.82448  20927703.362    20927707.143
  23511002.446      945343.00748    759080.73544  23511002.063    23511008.751
                  -1436901.75049   -904302.25643
  24168619.185     -940926.33848   -705497.19444  24168618.112    24168622.969
  23444195.074    -1914934.53549  -1213725.18645  23444194.172    23444198.800
  22202086.625    -8327722.99649  -6472849.59046  22202086.256    22202092.038
  21587023.788   -14992927.63949  -9324232.61847  21587023.055    21587028.240
  23416695.923    -4776006.97449  -3711981.24445  23416695.129    23416700.105
 04  1 17  1 43 30.0000000  0 10G29G 6G21G30G15G10G17G26G18G16
  22959348.299    -6950417.23549  -4880401.21546  22959347.855    22959352.251
  20389936.255   -18277577.61249 -14046986.82648  20389935.811    20389940.974
  20922404.359   -15708221.79749 -11576364.55348  20922403.591    20922407.339
  23530816.547     1049466.64048    840215.99344  23530816.266    23530823.591
                  -1513170.70649   -963732.57744                  23855230.781
  24188848.361     -834623.39748   -622663.69044  24188846.830    24188851.143
  23457253.587    -1846310.86849  -1160252.19445  23457252.752    23457257.265
  22193565.989    -8372498.47149  -6507739.52046  22193565.625    22193571.537
  21572867.678   -15067318.43649  -9382199.41747  21572866.935    21572872.088
  23407881.014    -4822329.40649  -3748076.60445  23407880.312    23407885.053
 04  1 17  1 44  0.0000000  0 10G29G 6G21G30G15G10G17G26G18G16
  22958398.560    -6955407.90349  -4884289.99646  22958398.152    22958402.481
  20393865.048   -18256931.71049 -14030899.09748  20393864.631    20393869.785
  20917142.986   -15735870.68049 -11597909.11048  20917142.194    20917145.929
  23550639.785     1153636.13849    921386.99644  23550639.339    23550646.691
  23840732.764    -1589353.57349  -1023095.70645  23840728.887    23840735.541
  24209095.639     -728225.76249   -539756.41744  24209094.382    24209098.427
  23470323.850    -1777626.52449  -1106731.86545  23470323.083    23470327.405
  22185148.238    -8416732.95549  -6542207.89646  22185147.962    22185154.023
  21558784.566   -15141325.31149  -9439867.05747  21558783.835    21558788.970
  23399163.380    -4868141.04249  -3783773.93145  23399162.657    23399167.319
 04  1 17  1 44 30.0000000  0 10G29G 6G21G30G15G10G17G26G18G16
  22957550.791    -6959862.91349  -4887761.38646  22957550.408    22957554.566
  20397881.346   -18235826.23949 -14014453.25948  20397880.881    20397886.014
  20911920.091   -15763316.78749 -11619295.65948  20911919.310    20911923.095
  23570471.080     1257849.89748   1002592.49644  23570470.933
  23826251.618    -1665449.29249  -1082390.90445  23826250.240    23826254.221
  24229360.159     -621734.71548   -456776.32244  24229358.993    24229363.080
  23483405.746    -1708880.71949  -1053163.71045  23483404.877    23483409.321
  22176834.398    -8460422.67049  -6576251.75746  22176834.137    22176840.185
  21544775.100   -15214945.50849  -9497233.38347  21544774.323    21544779.465
  23390543.432    -4913439.24749  -3819071.15845  23390542.774    23390547.364
 04  1 17  1 45  0.0000000  0 10G29G 6G21G30G15G10G17G26G18G16
  22956804.232    -6963786.29049  -4890818.50946  22956803.865    22956807.825
  20401984.231   -18214265.45449 -13997652.63148  20401983.771    20401988.915
  20906734.947   -15790564.85349 -11640527.88648  20906734.179    20906737.863
  23590309.612     1362100.49248   1083826.68444  23590309.427
  23811786.850    -1741462.42549  -1141621.75645  23811785.044    23811789.444
  24249641.636     -515157.01048   -373728.74344  24249640.482    24249644.578
  23496498.466    -1640078.04249   -999551.19145  23496497.603    23496501.833
  22168623.805    -8503569.83549  -6609872.87246  22168623.561    22168629.535
  21530838.421   -15288182.31149  -9554300.97147  21530837.761    21530842.869
  23382020.479    -4958227.30249  -3853970.89445  23382019.864    23382024.553
 04  1 17  1 45 30.0000000  0 10G29G 6G21G30G15G10G17G26G18G16
  22956158.402    -6967180.28149  -4893463.12546  22956157.973    22956161.805
  20406173.287   -18192251.98449 -13980499.26348  20406172.810    20406177.956
  20901586.981   -15817617.79049 -11661608.06848  20901586.213    20901589.831
  23610153.546     1466381.95748   1165084.95844  23610153.442
  23797337.474    -1817396.21149  -1200790.76745  23797335.557    23797339.614
  24269938.216     -408498.35248   -290618.05844  24269937.171    24269941.066
  23509601.288    -1571222.05149   -945897.13145  23509600.432    23509604.485
  22160516.340    -8546175.09349  -6643071.70246  22160516.034    22160521.954
  21516974.487   -15361037.60249  -9611071.27147  21516973.799    21516978.868
  23373594.460    -5002506.97349  -3888474.46745  23373593.688    23373598.331
 04  1 17  1 46  0.0000000  0 10G29G 6G21G30G15G10G17G26G18G16
  22955615.429    -6970033.40849  -4895686.29246  22955615.018    22955618.810
  20410450.640   -18169774.51949 -13962984.34348  20410450.169    20410455.302
  20896478.158   -15844465.06649 -11682527.99748  20896477.370    20896480.950
  23630004.648     1570702.22948   1246373.48844  23630005.076
  23782904.530    -1893239.65349  -1259889.40845  23782902.700    23782907.158
  24290251.560     -301750.71448   -207438.04644  24290250.490    24290253.884
  23522716.419    -1502302.17649   -892193.32345  23522715.592    23522719.601
  22152514.352    -8588225.10149  -6675837.88246  22152514.084    22152520.042
  21503185.626   -15433498.72349  -9667534.42947  21503184.895    21503189.892
  23365267.427    -5046266.04849  -3922572.40945  23365266.702    23365271.106
 04  1 17  1 46 30.0000000  0 10G29G 6G21G30G15G10G17G26G18G16
  22955174.023    -6972352.70749  -4897493.50846  22955173.624    22955177.378
  20414814.856   -18146840.41649 -13945113.60148  20414814.398    20414819.525
  20891407.007   -15871114.28949 -11703293.59648  20891406.190    20891409.737
                   1675050.69048   1327683.97644
  23768487.456    -1969000.27149  -1318923.48445  23768486.030    23768490.387
  24310580.303     -194923.72548   -124196.23244  24310578.645    24310582.566
  23535841.972    -1433325.89549   -838445.52345  23535841.127    23535845.528
  22144616.898    -8629725.10649  -6708175.50546  22144616.721    22144622.818
  21489470.449   -15505572.34849  -9723695.63847  21489469.740    21489474.681
  23357038.088    -5089511.31149  -3956269.97745  23357037.330    23357041.680
 04  1 17  1 47  0.0000000  0 10G29G 6G21G30G15G10G17G26G18G16
  22954835.445    -6974131.82049  -4898879.78846  22954835.118    22954838.871
  20419267.089   -18123444.00349 -13926882.61548  20419266.616    20419271.754
  20886374.512   -15897560.16849 -11723900.74948  20886373.704    20886377.248
  23669723.562     1779430.22148   1409018.68144                  23669725.139
  23754087.272    -2044672.68349  -1377888.87945  23754086.148    23754090.704
  24330924.023      -88014.26948    -40890.15644                  24330922.695
  23548978.947    -1364288.06849   -784649.77545  23548978.272    23548983.159
  22136825.730    -8670667.26549  -6740078.42746  22136825.485    22136831.757
  21475830.359   -15577251.58749  -9779549.53547  21475829.652    21475834.545
  23348907.619    -5132235.84949  -3989561.76345  23348907.048    23348911.175
 04  1 17  1 47 30.0000000  0 10G29G 6G21G30G15G10G17G26G18G16
  22954597.554    -6975382.34249  -4899854.17446  22954597.183    22954600.861
  20423805.059   -18099596.75449 -13908300.32748  20423804.614    20423809.747
  20881378.434   -15923814.86949 -11744358.92548  20881377.583    20881381.089
                   1883825.86848   1490365.90544
  23739701.960    -2120268.85249  -1436794.85345  23739700.428    23739705.610
  24351280.338       18963.31048     42469.05144                  24351278.563
  23562125.725    -1295200.89549   -730815.56045  23562124.931    23562130.258
  22129138.790    -8711061.05149  -6771554.06246  22129138.587    22129145.055
  21462263.248   -15648547.02149  -9835104.36547  21462262.555    21462267.456
  23340874.519    -5174450.31849  -4022456.11045  23340873.920    23340877.911
 04  1 17  1 48  0.0000000  0 10G29G 6G21G30G15G10G17G26G18G16
  22954462.522    -6976092.13549  -4900407.21646  22954462.076    22954465.727
  20428431.022   -18075287.04049 -13889357.67348  20428430.602    20428435.716
  20876420.805   -15949866.99649 -11764659.25348  20876419.965    20876423.521
  23709461.452     1988246.13748   1571732.29544  23709462.400    23709465.818
  23725333.275    -2195777.44349  -1495632.53945  23725331.883    23725337.234
  24371652.602      126017.87148    125888.27744                  24371650.436
  23575283.578    -1226053.19749   -676934.22145  23575282.763    23575288.839
  22121558.850    -8750892.92349  -6802591.81746  22121558.684    22121565.250
  21448771.600   -15719445.79649  -9890350.10847  21448770.985    21448775.844
  23332940.843    -5216142.16349  -4054943.20845  23332940.252    23332944.212
 04  1 17  1 48 30.0000000  0 10G29G 6G21G30G15G10G17G26G18G16
  22954429.733    -6976264.34549  -4900541.37046  22954429.259    22954432.866
  20433144.386   -18050518.25049 -13870057.30348  20433143.969    20433149.033
  20871501.088   -15975720.26249 -11784804.62848  20871500.231    20871503.808
  23729336.074     2092684.50649   1653112.79944  23729335.884    23729339.494
  23710981.313    -2271202.06048  -1554404.78544  23710980.008    23710984.350
  24392037.164      233143.62948    209362.97144                  24392035.396
  23588452.219    -1156848.68349   -623008.63145  23588451.555    23588458.198
  22114085.771    -8790164.15349  -6833192.72646  22114085.597    22114092.218
  21435354.910   -15789951.08749  -9945289.24547  21435354.293    21435359.089
  23325106.093    -5257314.07849  -4087025.17345  23325105.465    23325109.412
 04  1 17  1 49  0.0000000  0 10G29G 6G21G30G15G10G17G26G18G16
  22954498.526    -6975902.71549  -4900259.53846  22954498.052    22954501.634
  20437944.392   -18025294.13049 -13850402.13648  20437943.946    20437949.011
  20866618.350   -16001378.88449 -11804798.32948  20866617.501    20866621.080
  23749213.414     2197134.19749   1734502.14044  23749211.913    23749215.796
  23696643.194    -2346546.83949  -1613114.93544  23696642.396    23696646.845
                    340333.60058    292887.68044
  23601630.873    -1087592.10049   -569042.41245  23601630.161    23601637.499
  22106719.012    -8828876.61449  -6863358.24046  22106718.897    22106725.392
  21422012.704   -15860065.09949  -9999923.48647  21422012.070    21422016.753
  23317369.671    -5297969.06549  -4118704.34445  23317369.132    23317373.061
 04  1 17  1 49 30.0000000  0 10G29G 6G21G30G15G10G17G26G18G16
  22954670.560    -6974998.36149  -4899554.80246  22954670.082    22954673.635
  20442832.621   -17999606.35749 -13830385.66948  20442832.172    20442837.251
  20861774.158   -16026835.25449 -11824634.43248  20861773.275    20861776.887
  23769093.705     2301600.23449   1815904.19044                  23769091.228
  23682323.292    -2421803.91448  -1671756.61844  23682322.297    23682325.635
                    447594.05457   1771217.20143
  23614821.273    -1018275.13449   -515029.16145  23614820.560    23614828.068
  22099460.665    -8867019.91049  -6893080.23146  22099460.542    22099466.943
  21408746.728   -15929778.63449 -10054245.66747  21408746.063    21408750.661
  23309733.381    -5338097.85349  -4149973.47045  23309732.788    23309736.698
 04  1 17  1 50  0.0000000  0 10G29G 6G21G30G15G10G17G26G18G16
  22954944.105    -6973560.50249  -4898434.35546  22954943.574    22954947.221
  20447807.301   -17973464.22749 -13810015.16148  20447806.838    20447811.924
  20856966.673   -16052098.20749 -11844319.81648  20856965.803    20856969.486
  23788974.564     2406070.34548   1897309.43044  23788971.610    23788975.163
  23668018.546    -2496982.60949  -1730337.26144  23668017.520    23668019.557
                    554911.47258   1854839.14443
  23628021.622     -948907.43548   -460976.37845  23628020.832    23628028.497
  22092309.218    -8904601.34449  -6922364.41246  22092309.102    22092315.330
  21395555.331   -15999100.11149 -10108262.33847  21395554.606    21395559.175
  23302195.569    -5377708.69749  -4180839.01345  23302195.007    23302198.565
 04  1 17  1 50 30.0000000  0 10G29G 6G21G30G15G10G17G26G18G16
  22955321.021    -6971579.42149  -4896890.62646  22955320.453    22955324.166
  20452870.207   -17946858.24949 -13789283.22248  20452869.793    20452874.867
  20852197.639   -16077158.98649 -11863847.67848  20852196.815    20852200.520
  23808855.523     2510551.16049   1978722.96844  23808853.352    23808857.671
  23653729.070    -2572073.75249  -1788849.76444  23653728.784    23653729.993
                    662295.30658   1938511.80643
  23641232.924     -879480.14948   -406877.19845  23641232.026    23641240.295
  22085266.872    -8941609.39349  -6951201.80746  22085266.728    22085272.832
  21382440.596   -16068018.62749 -10161965.03047  21382439.875    21382444.379
  23294758.102    -5416791.45149  -4211293.06845  23294757.655    23294761.170
 04  1 17  1 51  0.0000000  0 10G29G 6G21G30G15G10G17G26G18G16
  22955800.871    -6969056.82849  -4894924.93246  22955800.350    22955804.261
  20458021.052   -17919790.36649 -13768191.35048  20458020.607    20458025.666
  20847466.715   -16102019.63949 -11883219.58748  20847465.910    20847469.651
  23828739.000     2615037.45049   2060140.83744  23828736.768    23828740.882
  23639455.663    -2647079.50149  -1847295.73144  23639455.356    23639457.131
                    769739.72958   1787144.93643
  23654454.988     -809995.56549   -352733.32045  23654454.232    23654462.729
  22078333.637    -8978044.07949  -6979592.42047  22078333.528    22078339.483
  21369402.307   -16136535.42649 -10215354.68147  21369401.551    21369406.016
  23287421.364    -5455347.30849  -4241336.56845  23287420.853    23287423.824
 04  1 17  1 51 30.0000000  0 11G29G 6G21G22G30G15G10G17G26G18G16
  22956383.344    -6965995.25049  -4892539.25246  22956382.847    22956386.948
  20463259.263   -17892263.30649 -13746741.67848  20463258.811    20463263.855
  20842773.330   -16126683.44349 -11902438.10848  20842772.509    20842776.203
                  -1178569.73649   -893375.84543
  23848622.264     2719523.56549   2141558.51544  23848620.094    23848624.626
  23625197.649    -2722002.57849  -1905677.29444  23625197.150    23625199.734
                    877239.77058   1870968.86043
  23667688.073     -740456.65749   -298547.11745  23667687.140    23667695.659
  22071509.321    -9013906.07849  -7007536.79047  22071509.252    22071515.114
  21356440.006   -16204652.49249 -10268432.86447  21356439.295    21356443.702
                  -5493378.05249  -4270970.87345
 04  1 17  1 52  0.0000000  0  9G29G 6G21G30G15G17G26G18G16
  22957069.604    -6962388.82249  -4889729.03146  22957069.142    22957073.174
  20468585.926   -17864271.46849 -13724929.84348  20468585.473    20468590.516
  20838118.399   -16151144.95849 -11921498.99848  20838117.562    20838121.286
  23868505.354     2824012.19948   2222978.20444  23868503.869    23868508.747
  23610956.278    -2796837.60949  -1963990.25444  23610955.577    23610958.921
  23680932.528     -670857.91649   -244314.37745  23680931.383    23680940.132
  22064795.545    -9049187.77649  -7035028.96847  22064795.430    22064801.141
  21343555.098   -16272362.84049 -10321194.12047  21343554.395    21343558.764
  23273048.125    -5530877.34049  -4300191.05645  23273047.485    23273050.402
 04  1 17  1 52 30.0000000  0  9G29G 6G21G30G15G17G26G18G16
  22957858.920    -6958240.74549  -4886496.73346  22957858.436    22957862.436
  20474000.297   -17835818.38049 -13702758.59248  20473999.865    20474004.907
  20833501.186   -16175407.70749 -11940405.00848  20833500.388    20833504.213
  23888387.211     2928496.81649   2304394.73844  23888386.473    23888392.232
  23596730.197    -2871588.33949  -2022237.53544  23596730.107    23596733.723
  23694186.526     -601203.69949   -190038.31945  23694185.658    23694194.724
  22058191.757    -9083890.91449  -7062070.33246  22058191.632    22058197.316
  21330747.102   -16339669.15349 -10373640.53747  21330746.392    21330750.690
  23266012.586    -5567847.86549  -4328999.19045  23266011.986    23266015.053
 04  1 17  1 53  0.0000000  0  9G29G 6G21G30G15G17G26G18G16
  22958751.320    -6953550.81749  -4882842.21546  22958750.857    22958754.850
  20479502.512   -17806903.76149 -13680227.70648  20479502.086    20479507.139
  20828921.819   -16199472.11449 -11959156.47348  20828921.018    20828924.857
  23908267.854     3032974.71849   2385806.01744  23908267.761    23908274.524
  23582520.667    -2946254.77949  -2080419.12445  23582520.393    23582525.448
  23707451.842     -531493.70149   -135718.82145  23707450.893    23707460.115
  22051698.456    -9118013.04949  -7088658.95746  22051698.337    22051704.023
  21318016.330   -16406570.04149 -10425771.04647  21318015.565    21318019.774
  23259078.089    -5604288.39649  -4357394.37445  23259077.526    23259080.375
 04  1 17  1 53 30.0000000  0  9G29G 6G21G30G15G17G26G18G16
  22959746.855    -6948319.00049  -4878765.44346  22959746.418    22959750.396
  20485092.484   -17777528.03949 -13657337.51948  20485092.046    20485097.125
  20824380.237   -16223337.97649 -11977753.21948  20824379.442    20824383.312
  23928147.751     3137442.69549   2467209.57244  23928147.208    23928154.533
  23568327.206    -3020837.51848  -2138535.45244  23568326.751    23568332.660
  23720727.651     -461728.88949    -81356.63545  23720726.653    23720735.962
  22045315.849    -9151552.81949  -7114793.80146  22045315.806    22045321.581
  21305362.714   -16473065.00349 -10477585.24547  21305361.955    21305366.097
  23252244.467    -5640198.66849  -4385376.37645  23252244.026    23252246.710
 04  1 17  1 54  0.0000000  0  9G29G 6G21G30G15G17G26G18G16
  22960846.043    -6942542.68649  -4874264.39946  22960845.538    22960849.598
  20490770.728   -17747688.49649 -13634085.92348  20490770.295    20490775.397
  20819876.845   -16247003.25749 -11996193.67748  20819876.070    20819879.929
  23948024.752     3241900.34249   2548605.07745  23948024.708    23948032.905
  23554149.474    -3095333.74449  -2196584.42645  23554149.064    23554156.511
  23734013.846     -391906.61349    -26949.66745  23734012.975    23734022.809
  22039045.024    -9184505.49549  -7140471.17346  22039044.987    22039050.803
  21292787.031   -16539150.31249 -10529080.24547  21292786.291    21292790.382
  23245512.624    -5675575.05349  -4412942.35545  23245512.087    23245514.553
 04  1 17  1 54 30.0000000  0  9G29G 6G21G30G15G17G26G18G16
  22962048.337    -6936224.29649  -4869340.93746  22962047.786    22962051.904
  20496536.689   -17717387.89249 -13610475.03948  20496536.243    20496541.393
  20815411.093   -16270470.79549 -12014480.04048  20815410.272    20815414.116
  23967898.526     3346342.03749   2629988.18045  23967899.369    23967908.262
  23539988.484    -3169746.36548  -2254568.19745  23539987.719    23539995.933
  23747310.802     -322030.03349     27499.63245  23747310.089    23747319.852
  22032885.838    -9216872.09349  -7165691.84946  22032885.761    22032891.553
  21280289.060   -16604827.59849 -10580257.29447  21280288.303    21280292.362
  23238881.931    -5710419.69949  -4440093.98245  23238881.239    23238883.647
 04  1 17  1 55  0.0000000  0  9G29G 6G21G30G15G17G26G18G16
  22963353.792    -6929362.84749  -4863994.32746  22963353.341    22963357.598
  20502390.578   -17686625.41849 -13586504.26948  20502390.101    20502395.249
  20810983.022   -16293739.82649 -12032611.73048  20810982.237    20810986.120
  23987769.498     3450765.96649   2711357.42145  23987770.453    23987780.139
  23525843.378    -3244074.88648  -2312486.40345  23525842.280    23525851.490
  23760618.888     -252098.37849     81991.85145  23760617.886    23760627.370
  22026838.639    -9248649.85549  -7190453.70246  22026838.607    22026844.336
  21267868.953   -16670095.45149 -10631115.31547  21267868.191    21267872.193
  23232352.463    -5744730.87949  -4466829.91545  23232351.958    23232354.405
 04  1 17  1 55 30.0000000  0  9G29G 6G21G30G15G17G26G18G16
  22964762.655    -6921959.82849  -4858225.71046  22964762.066    22964766.347
  20508332.040   -17655402.72349 -13562174.87848  20508331.538    20508336.693
  20806592.368   -16316812.41449 -12050590.34648  20806591.587    20806595.513
  24007637.046     3555167.48049   2792709.21944  24007637.378    24007647.309
  23511713.282    -3318320.84248  -2370340.32745  23511712.602    23511722.942
  23773936.647     -182113.27749    136525.67545  23773935.817    23773945.170
  22020903.751    -9279838.34249  -7214756.37846  22020903.686    22020909.316
  21255526.665   -16734954.53449 -10681654.80447  21255525.866    21255529.791
  23225924.621    -5778509.64949  -4493150.97445  23225924.076    23225926.290
 04  1 17  1 56  0.0000000  0  9G29G 6G21G30G15G17G26G18G16
  22966275.067    -6914011.00249  -4852031.80646  22966274.569    22966278.965
  20514361.826   -17623715.80549 -13537483.76248  20514361.313    20514366.490
  20802239.914   -16339684.47749 -12068412.70948  20802239.140    20802243.085
  24027500.502     3659547.99349   2874044.61544  24027500.258    24027510.447
  23497600.208    -3392480.38948  -2428126.87045  23497599.930    23497611.084
  23787265.343     -112071.33149    191103.85145  23787264.718    23787273.666
  22015082.165    -9310431.60949  -7238595.24146  22015082.026    22015087.589
  21243263.200   -16799399.11049 -10731871.31047  21243262.416    21243266.323
  23219599.422    -5811750.94049  -4519053.23645  23219598.587    23219600.640
 04  1 17  1 56 30.0000000  0  9G29G 6G21G30G15G17G26G18G16
  22967890.290    -6905522.71349  -4845417.53946  22967889.791    22967894.239
  20520478.735   -17591570.93449 -13512435.80148  20520478.229    20520483.407
  20797924.446   -16362362.05249 -12086083.52748  20797923.697    20797927.653
  24047358.160     3763898.31449   2955356.52044  24047357.808    24047367.748
  23483503.088    -3466559.69648  -2485850.87745  23483502.712    23483514.084
  23800604.280      -41978.61149    245721.56645  23800603.345    23800612.159
  22009372.861    -9340434.31549  -7261973.93946  22009372.678    22009378.226
  21231077.516   -16863434.68049 -10781769.11247  21231076.762    21231080.659
  23213374.948    -5844460.26849  -4544541.01545  23213374.246    23213376.046
 04  1 17  1 57  0.0000000  0  9G29G 6G21G30G15G17G26G18G16
  22969609.303    -6896488.81949  -4838378.11046  22969608.821    22969613.297
  20526684.032   -17558962.02649 -13487026.25348  20526683.503    20526688.668
  20793647.192   -16384839.37749 -12103598.30048  20793646.448    20793650.349
  24067210.446     3868221.60549   3036647.32444  24067210.495    24067220.052
  23469422.417    -3540552.81049  -2543507.73745  23469422.008    23469433.496
  23813953.346       28170.34549    300383.07045  23813952.363    23813961.205
  22003777.429    -9369838.55149  -7284886.28546  22003777.222    22003782.801
  21218970.959   -16927054.62349 -10831343.04947  21218970.213    21218974.086
  23207252.885    -5876631.06449  -4569609.11245  23207252.263    23207254.196
 04  1 17  1 57 30.0000000  0  9G29G 6G21G30G15G17G26G18G16
  22971431.570    -6886912.33149  -4830915.90246  22971431.139    22971435.693
  20532976.887   -17525892.39249 -13461257.69348  20532976.386    20532981.583
  20789407.413   -16407119.79149 -12120959.63748  20789406.613    20789410.508
  24087055.858     3972511.95748   3117912.50444  24087056.189    24087066.099
  23455357.244    -3614462.76848  -2601099.82145  23455357.065    23455368.686
  23827312.635       98372.44349    355086.04745  23827311.735    23827320.205
  21998295.578    -9398645.51849  -7307333.24246  21998295.337    21998300.968
  21206943.248   -16990260.84849 -10880594.60547  21206942.429    21206946.261
  23201232.976    -5908265.66449  -4594259.42045  23201232.331    23201234.504
 04  1 17  1 58  0.0000000  0 10G29G 6G21G22G30G15G17G26G18G16
  22973358.229    -6876786.99949  -4823025.99846  22973357.855    22973362.434
  20539358.586   -17492356.03949 -13435125.45548  20539358.088    20539363.287
  20785206.152   -16429197.34349 -12138162.90548  20785205.412    20785209.259
                  -1107873.54649   -850998.98344                  23901573.710
  24106895.380     4076772.75448   3199154.67144  24106895.645    24106906.080
  23441309.351    -3688283.62049  -2658622.49945  23441309.329    23441321.244
  23840683.085      168633.67249    409835.05245  23840682.159    23840690.452
  21992929.000    -9426847.38949  -7329308.68846  21992928.693    21992934.300
  21194995.505   -17053046.44149 -10929518.39647  21194994.671    21194998.462
  23195316.331    -5939357.13649  -4618486.49045  23195315.616    23195317.913
 04  1 17  1 58 30.0000000  0 10G29G 6G21G22G30G15G17G26G18G16
  22975387.902    -6866120.45349  -4814714.38146  22975387.570    22975392.232
  20545827.704   -17458360.43249 -13408635.36248  20545827.200    20545832.410
  20781042.174   -16451079.48549 -12155213.90348  20781041.404    20781045.178
  23882312.668    -1209059.19549   -929844.77744  23882312.559    23882319.477
  24126727.723     4180993.51848   3280365.59244  24126727.884    24126738.491
  23427277.967    -3762023.09449  -2716081.75145  23427277.443    23427289.012
  23854063.305      238946.03949    464623.92045  23854062.416    23854070.727
  21987676.337    -9454450.05249  -7350817.21146  21987676.049    21987681.658
  21183126.532   -17115417.65649 -10978119.29747  21183125.727    21183129.532
  23189501.718    -5969912.78149  -4642296.06645  23189501.122    23189503.291
 04  1 17  1 59  0.0000000  0 10G29G 6G21G22G30G15G17G26G18G16
  22977520.627    -6854913.25549  -4805981.48646  22977520.304    22977524.963
  20552384.076   -17423906.26149 -13381787.94848  20552383.561    20552388.776
  20776915.234   -16472766.64949 -12172112.97148  20776914.511    20776918.241
  23863093.232    -1310057.44449  -1008544.55045  23863093.524    23863098.449
  24146551.637     4285171.15548   3361542.92144  24146551.680    24146562.439
  23413261.876    -3835681.84949  -2773478.04245  23413260.965    23413272.196
  23867453.191      309309.26449    519452.42745  23867452.347    23867460.195
  21982537.941    -9481452.13149  -7371857.76546  21982537.696    21982543.266
  21171336.378   -17177374.53649 -11026397.34147  21171335.639    21171339.473
  23183789.048    -5999932.49949  -4665688.00645  23183788.448    23183790.729
 04  1 17  1 59 30.0000000  0 10G29G 6G21G22G30G15G17G26G18G16
  22979757.462    -6843158.98249  -4796822.27546  22979757.115    22979761.747
  20559028.911   -17388987.21949 -13354578.29248  20559028.441    20559033.659
  20772826.689   -16494252.66549 -12188855.29748  20772825.942    20772829.544
  23843910.853    -1410860.26349  -1087092.07745  23843910.485    23843916.270
  24166368.747     4389309.31948   3442689.51844  24166368.749    24166379.397
  23399261.706    -3909253.18049  -2830806.32045  23399260.969    23399271.638
  23880853.618      379729.39549    574325.27545  23880852.740    23880860.676
  21977515.415    -9507845.54349  -7392424.01946  21977515.133    21977520.650
  21159626.632   -17238909.42149 -11074346.56147  21159625.896    21159629.765
  23178179.804    -6029408.64649  -4688656.42245  23178179.251    23178181.788
 04  1 17  2  0  0.0000000  0 10G29G 6G21G22G30G15G17G26G18G16
  22982098.263    -6830858.41749  -4787237.39246  22982097.806    22982102.546
  20565762.032   -17353604.44349 -13327007.28848  20565761.539    20565766.743
  20768776.239   -16515538.43149 -12205441.58748  20768775.436    20768778.985
  23824766.207    -1511466.77849  -1165486.62145  23824765.389    23824771.292
  24186177.715     4493404.36549   3523802.51144  24186177.317    24186188.333
  23385278.288    -3982738.24949  -2888067.29645  23385277.309    23385287.632
  23894264.874      450205.45749    629241.70745  23894264.104    23894271.781
  21972608.813    -9533629.50849  -7412515.38146  21972608.610    21972614.112
  21147997.172   -17300022.58149 -11121967.16047  21147996.397    21148000.289
  23172673.738    -6058341.84549  -4711201.71745  23172673.332    23172676.094
 04  1 17  2  0 30.0000000  0 10G29G 6G21G22G30G15G17G26G18G16
  22984541.774    -6818017.76149  -4777231.66546  22984541.283    22984546.150
  20572582.218   -17317764.08649 -13299079.72448  20572581.738    20572586.921
  20764762.654   -16536629.96049 -12221876.52048  20764761.865    20764765.375
  23805657.562    -1611881.55349  -1243731.77145  23805656.868    23805662.754
  24205977.728     4597447.41649   3604874.97144  24205976.540    24205987.065
  23371310.477    -4056143.03249  -2945265.75745  23371309.189    23371318.791
  23907685.714      520731.26249    684196.88845  23907684.854    23907692.262
  21967817.489    -9558808.41949  -7432135.26646  21967817.177    21967822.631
  21136446.925   -17360719.28749 -11169263.24747  21136446.173    21136450.050
  23167270.137    -6086737.50549  -4733328.18745  23167269.733    23167272.568
 04  1 17  2  1  0.0000000  0 10G29G 6G21G22G30G15G17G26G18G16
  22987089.445    -6804629.41649  -4766799.14646  22987088.970    22987093.914
  20579490.906   -17281458.63949 -13270789.75948  20579490.435    20579495.558
  20760787.444   -16557519.75249 -12238154.26448  20760786.666    20760790.147
  23786587.056    -1712095.13249  -1321820.15145  23786586.560    23786592.302
  24225768.433     4701443.40649   3685910.76144  24225767.039    24225777.236
  23357359.067    -4129459.83349  -3002395.64745  23357357.758    23357367.105
  23921117.206      591314.40449    739196.75245  23921116.306    23921123.945
  21963143.031    -9583372.96249  -7451276.43347  21963142.743    21963148.142
  21124977.643   -17420990.69949 -11216227.94748  21124976.873    21124980.736
  23161970.129    -6114587.51549  -4755029.44345  23161969.893    23161972.906
 04  1 17  2  1 30.0000000  0 10G29G 6G21G22G30G15G17G26G18G16
  22989740.739    -6790695.87349  -4755941.80746  22989740.354    22989745.465
  20586487.642   -17244690.61349 -13242139.34248  20586487.172    20586492.254
  20756850.286   -16578210.13849 -12254276.61348  20756849.462    20756852.858
  23767555.012    -1812108.14349  -1399752.22445  23767554.553    23767560.192
  24245548.810     4805387.32949   3766905.96944  24245546.836    24245557.176
  23343423.938    -4202690.85849  -3059458.71245  23343422.634    23343431.715
  23934559.144      661952.25749    794239.26345  23934558.179    23934565.839
  21958585.214    -9607323.93349  -7469939.49147  21958585.048    21958590.400
  21113589.112   -17480838.08249 -11262862.22148  21113588.277    21113592.125
  23156774.041    -6141893.51349  -4776306.83145  23156773.729    23156776.697
 04  1 17  2  2  0.0000000  0 10G29G 6G21G22G30G15G17G26G18G16
  22992496.137    -6776216.62449  -4744659.25146  22992495.607    22992500.798
  20593572.443   -17207459.58249 -13213128.14648  20593572.017    20593577.060
  20752951.034   -16598700.63049 -12270243.21448  20752950.242    20752953.598
  23748561.788    -1911918.28049  -1477526.22344  23748561.354    23748566.638
  24265318.374     4909277.03949   3847858.99544  24265316.741    24265326.789
  23329505.171    -4275835.60449  -3116454.53845  23329503.750    23329512.631
  23948012.004      732645.46949    849324.92544  23948010.878    23948018.048
  21954144.693    -9630659.10649  -7488122.71347  21954144.532    21954149.873
  21102281.312   -17540260.29049 -11309165.20348  21102280.555    21102284.418
  23151681.545    -6168654.57849  -4797159.57445  23151681.205    23151684.324
 04  1 17  2  2 30.0000000  0 10G29G 6G21G22G30G15G17G26G18G16
  22995354.912    -6761193.47149  -4732952.85746  22995354.437    22995359.558
  20600745.116   -17169767.30749 -13183757.53148  20600744.661    20600749.702
  20749089.628   -16618992.56849 -12286055.09048  20749088.815    20749092.138
  23729606.961    -2011525.56549  -1555142.14144  23729606.576    23729611.610
  24285076.202     5013108.11249   3928766.30344  24285075.311    24285085.020
  23315602.705    -4348895.88349  -3173384.50945  23315601.086    23315609.592
  23961474.609      803392.38549    904452.35344  23961473.577    23961480.746
  21949821.433    -9653378.65749  -7505826.21747  21949821.245    21949826.496
  21091054.313   -17599258.24949 -11355137.60048  21091053.558    21091057.428
  23146692.695    -6194871.52549  -4817588.33745  23146692.348    23146695.403
 04  1 17  2  3  0.0000000  0 10G29G 6G21G22G30G15G17G26G18G16
  22998317.069    -6745627.20649  -4720823.27446  22998316.596    22998321.630
  20608005.322   -17131614.65349 -13154028.17848  20608004.875    20608009.919
  20745265.787   -16639086.75649 -12301712.87248  20745264.982    20745268.274
  23710690.932    -2110928.91049  -1632599.15744  23710690.959    23710695.479
  24304822.736     5116877.38749   4009625.46644  24304821.924    24304831.189
  23301715.632    -4421872.31049  -3230249.18245  23301714.248    23301722.681
  23974947.490      874191.81649    959620.76944  23974946.132    23974953.412
  21945615.292    -9675481.68249  -7523049.31947  21945615.137    21945620.439
  21079908.117   -17657831.58449 -11400779.12148  21079907.364    21079911.204
  23141807.321    -6220544.89249  -4837593.53745  23141806.930    23141810.125
 04  1 17  2  3 30.0000000  0 10G29G 6G21G22G30G15G17G26G18G16
  23001382.717    -6729516.97649  -4708269.83046  23001382.324    23001387.281
  20615353.328   -17093000.71049 -13123939.38848  20615352.888    20615357.911
  20741479.873   -16658982.07349 -12317215.70148  20741479.033    20741482.340
  23691814.743    -2210125.68849  -1709895.21244  23691814.338    23691818.359
  24324557.364     5220583.21549   4090435.14144  24324556.041    24324565.753
  23287845.042    -4494763.67349  -3287047.54545  23287843.791    23287851.710
  23988429.774      945045.31948   1014831.33244  23988428.017    23988435.906
  21941527.028    -9696965.43349  -7539789.87047  21941526.837    21941532.179
  21068843.146   -17715978.27349 -11446088.18848  21068842.414    21068846.162
  23137025.880    -6245673.05549  -4857173.91445  23137025.301    23137028.491
 04  1 17  2  4  0.0000000  0 10G29G 6G21G22G30G15G17G26G18G16
  23004552.212    -6712860.86649  -4695291.02146  23004551.800    23004556.726
  20622789.399   -17053923.65649 -13093489.73148  20622789.020    20622794.005
  20737732.008   -16678676.57349 -12332562.05248  20737731.188    20737734.609
  23672978.767    -2309112.03049  -1787027.26144  23672978.119    23672981.660
  24344279.726     5324224.96149   4171194.88544  24344278.009    24344288.088
  23273991.029    -4567568.10349  -3343778.16945  23273989.732    23273997.487
  24001922.927     1015954.54249   1070085.22744  24001921.834    24001929.743
  21937557.348    -9717826.36249  -7556045.10847  21937557.135    21937562.401
  21057859.966   -17773695.48949 -11491062.60248  21057859.187    21057862.856
  23132348.322    -6270253.29949  -4876327.32346  23132347.789    23132351.321
 04  1 17  2  4 30.0000000  0 10G29G 6G21G22G30G15G17G26G18G16
  23007825.347    -6695660.62149  -4681888.21046  23007824.974    23007829.892
  20630313.355   -17014385.24249 -13062680.56848  20630312.941    20630317.881
  20734022.202   -16698171.61149 -12347752.97048  20734021.426    20734024.824
  23654182.217    -2407887.88849  -1863995.33844  23654181.791    23654184.637
  24363988.212     5427798.64948   4251901.63744  24363986.964    24363997.667
  23260152.910    -4640287.01849  -3400442.17045  23260151.822    23260159.506
  24015426.559     1086918.08448   1125381.44244  24015426.116    24015433.710
  21933705.990    -9738064.62749  -7571815.14847  21933705.881    21933711.128
  21046958.241   -17830984.08949 -11535703.02848  21046957.475    21046961.128
  23127774.943    -6294286.62149  -4895054.54946  23127774.395    23127778.082
 04  1 17  2  5  0.0000000  0 10G29G 6G21G22G30G15G17G26G18G16
  23011202.019    -6677916.69449  -4668061.75746  23011201.596    23011206.556
  20637925.023   -16974385.94649 -13031512.28448  20637924.582    20637929.463
  20730350.377   -16717467.47549 -12362788.68648  20730349.538    20730352.928
  23635426.026    -2506451.91549  -1940798.32244  23635425.555    23635428.552
  24383683.221     5531301.17048   4332552.87944  24383682.197    24383693.500
  23246331.072    -4712920.59249  -3457039.65945  23246330.210    23246337.711
  24028940.798     1157935.48349   1180719.65644  24028940.339    24028948.607
  21929973.539    -9757679.00149  -7587099.03847  21929973.326    21929978.552
  21036138.155   -17887843.67949 -11580009.16748  21036137.405    21036141.066
  23123305.686    -6317772.99649  -4913355.61346  23123305.148    23123308.920
 04  1 17  2  5 30.0000000  0 10G29G 6G21G22G30G15G17G26G18G16
  23014682.190    -6659629.22549  -4653811.75646  23014681.697    23014686.622
  20645624.286   -16933926.11249 -12999985.13448  20645623.862    20645628.714
  20726716.324   -16736563.95749 -12377669.04848  20726715.553    20726718.968
  23616709.953    -2604802.17949  -2017434.76644  23616709.802    23616712.786
  24403364.550     5634730.22048   4413146.85044  24403363.811    24403375.037
  23232525.965    -4785468.83249  -3513570.64745  23232524.998    23232531.951
  24042465.952     1229006.78349   1236099.94244  24042465.378    24042472.730
  21926360.051    -9776667.83549  -7601895.49347  21926359.837    21926365.014
  21025399.981   -17944272.81549 -11623979.88648  21025399.239    21025402.981
  23118940.699    -6340711.98449  -4931230.12446  23118939.962    23118943.994
 04  1 17  2  6  0.0000000  0 10G29G 6G21G22G30G15G17G26G18G16
  23018265.684    -6640798.00349  -4639138.06046  23018265.197    23018270.151
  20653411.217   -16893005.40249 -12968098.85948  20653410.801    20653415.691
  20723120.442   -16755460.32249 -12392393.46748  20723119.693    20723123.068
  23598035.108    -2702936.52649  -2093902.97244  23598035.330    23598038.005
  24423032.916     5738083.70649   4493682.01044  24423031.995    24423042.324
  23218736.660    -4857930.77949  -3570034.41445  23218735.823    23218742.824
  24056001.122     1300132.78349   1291522.71944  24056000.447    24056007.905
  21922865.972    -9795029.26349  -7616203.07447  21922865.716    21922870.865
  21014743.912   -18000270.46149 -11667614.37648  21014743.176    21014746.917
  23114679.765    -6363102.60349  -4948677.34346  23114679.121    23114683.423
 04  1 17  2  6 30.0000000  0 10G29G 6G21G22G30G15G17G26G18G16
  23021952.468    -6621424.41549  -4624041.73946  23021951.984    23021956.768
  20661285.608   -16851625.34649 -12935854.65848  20661285.160    20661290.069
  20719562.436   -16774157.77849 -12406962.89148  20719561.636    20719565.020
  23579401.926    -2800854.58049  -2170202.64144  23579401.970    23579404.616
  24442685.847     5841357.63948   4574155.15344  24442684.741    24442694.558
  23204964.001    -4930307.80749  -3626431.97745  23204962.898    23204969.588
  24069546.498     1371311.85049   1346986.93144  24069546.009    24069552.641
  21919491.264    -9812763.19049  -7630021.68547  21919491.032    21919496.180
  21004169.877   -18055837.22949 -11710913.11948  21004169.116    21004172.830
  23110523.102    -6384945.79449  -4965697.97346  23110522.488    23110527.066
 04  1 17  2  7  0.0000000  0 10G29G 6G21G22G30G15G17G26G18G16
  23025742.202    -6601509.42749  -4608523.54546  23025741.671    23025746.412
  20669247.209   -16809786.61849 -12903253.04748  20669246.798    20669251.743
  20716042.094   -16792656.70649 -12421377.62448  20716041.323    20716044.785
  23560809.865    -2898555.30049  -2246332.96144  23560810.062    23560812.868
  24462322.302     5944549.04348   4654564.00344  24462321.256    24462331.366
  23191207.264    -5002600.23049  -3682763.65745  23191206.232    23191212.756
  24083101.671     1442543.62849   1402492.29544  24083101.257    24083107.785
  21916236.077    -9829868.86749  -7643350.75347  21916235.846    21916241.038
  20993677.754   -18110973.15449 -11753876.14548  20993677.050    20993680.760
  23106470.696    -6406241.70049  -4982292.17746  23106469.984    23106474.664
 04  1 17  2  7 30.0000000  0 10G29G 6G21G22G30G15G17G26G18G16
  23029635.433    -6581049.89549  -4592581.02746  23029634.985    23029639.728
  20677296.775   -16767486.12149 -12870291.61348  20677296.336    20677301.286
  20712560.223   -16810953.81149 -12435635.08548  20712559.464    20712562.910
  23542260.110    -2996033.40849  -2322289.83845  23542260.292    23542263.563
  24481943.117     6047658.75148   4734909.17044  24481942.761    24481952.109
  23177467.242    -5074804.49649  -3739026.64745  23177466.204    23177472.714
  24096667.283     1513831.58749   1458041.30345  24096666.664    24096674.002
  21913101.475    -9846341.16049  -7656186.27947  21913101.176    21913106.410
  20983268.552   -18165673.43949 -11796499.70548  20983267.856    20983271.561
  23102523.107    -6426986.56849  -4998456.98146  23102522.427    23102527.174
 04  1 17  2  8  0.0000000  0 10G29G 6G21G22G30G15G17G26G18G16
  23033631.851    -6560048.59549  -4576216.35546  23033631.389    23033636.181
  20685433.619   -16724726.81649 -12836972.67648  20685433.173    20685438.110
  20709116.330   -16829051.57349 -12449737.22248  20709115.538    20709118.971
  23523752.982    -3093289.70449  -2398073.85845  23523752.955    23523756.277
  24501547.374     6150680.31548   4815185.51744  24501547.553
  23163743.482    -5146923.35049  -3795223.07145  23163742.405    23163748.804
  24110243.448     1585172.98849   1513631.95845  24110242.766    24110249.566
  21910086.974    -9862181.58849  -7668529.45247  21910086.693    21910092.032
  20972941.956   -18219940.15549 -11838785.42348  20972941.235    20972944.917
  23098679.835    -6447182.54449  -5014194.07146  23098679.147    23098684.098
 04  1 17  2  8 30.0000000  0  9G29G 6G21G22G15G17G26G18G16
  23037731.187    -6538505.50349  -4559429.51846  23037730.781    23037735.679
  20693657.846   -16681508.39749 -12803295.98148  20693657.389    20693662.309
  20705710.530   -16846949.15849 -12463683.37248  20705709.725    20705713.151
  23505288.436    -3190321.92849  -2473683.28745  23505288.457    23505291.738
  23150036.031    -5218956.08149  -3851352.38245  23150034.935    23150041.140
  24123829.654     1656568.60749   1569264.96544  24123828.920    24123835.775
  21907193.080    -9877388.40749  -7680378.89447  21907192.846    21907198.289
  20962698.130   -18273771.65249 -11880732.00848  20962697.407    20962701.080
  23094941.364    -6466828.84449  -5029502.85946  23094940.595    23094945.576
 04  1 17  2  9  0.0000000  0  9G29G 6G21G22G15G17G26G18G16
  23041933.919    -6516419.56549  -4542219.66746  23041933.531    23041938.503
  20701969.573   -16637829.98449 -12769260.85048  20701969.135    20701974.079
  20702343.010   -16864645.22149 -12477472.49748  20702342.217    20702345.656
  23486867.371    -3287127.25349  -2549115.89845  23486867.080    23486870.208
  23136345.325    -5290901.24149  -3907413.46345  23136344.252    23136350.329
  24137426.439     1728019.64149   1624941.18645  24137425.687    24137433.230
  21904420.125    -9891959.02549  -7691732.59747  21904419.976    21904425.465
  20952537.360   -18327166.44249 -11922338.30048  20952536.681    20952540.369
  23091307.712    -6485923.86949  -5044382.07946  23091306.901    23091311.929
 04  1 17  2  9 30.0000000  0  9G29G 6G21G22G15G17G26G18G16
  23046239.578    -6493792.89549  -4524588.48546  23046239.161    23046244.185
  20710368.447   -16593693.58849 -12734868.85748  20710368.011    20710372.976
  20699013.580   -16882141.19749 -12491105.71648  20699012.802    20699016.272
  23468489.239    -3383705.87449  -2624371.85945  23468488.743    23468492.065
  23122670.962    -5362760.51849  -3963407.62645  23122669.889    23122676.032
  24151033.686     1799524.47649   1680659.19945  24151032.927    24151040.215
  21901768.411    -9905893.72449  -7702590.78847  21901768.271    21901773.790
  20942459.634   -18380125.21549 -11963604.84548  20942458.957    20942462.609
  23087778.532    -6504468.93349  -5058832.75646  23087777.834    23087782.927
 04  1 17  2 10  0.0000000  0  9G29G 6G21G22G15G17G26G18G16
  23050647.701    -6470627.64549  -4506537.62446  23050647.309    23050652.199
  20718854.089   -16549101.21549 -12700121.55048  20718853.676    20718858.603
  20695721.983   -16899438.54949 -12504584.16048  20695721.170    20695724.657
  23450154.341    -3480057.65649  -2699451.06645  23450153.776    23450157.050
  23109012.593    -5434535.38549  -4019336.01745  23109011.534    23109017.550
  24164650.472     1871081.51649   1736417.93145  24164649.552    24164656.632
  21899237.655    -9919193.13149  -7712953.93047  21899237.523    21899242.868
  20932464.788   -18432648.90949 -12004532.36548  20932464.067    20932467.672
  23084353.836    -6522465.50749  -5072856.04246  23084353.125    23084358.305
 04  1 17  2 10 30.0000000  0  9G29G 6G21G22G15G17G26G18G16
  23055158.718    -6446921.11049  -4488064.99246  23055158.476    23055163.136
  20727427.003   -16504050.31849 -12665016.95148  20727426.601    20727431.521
  20692468.685   -16916534.24249 -12517905.45948  20692467.952    20692471.441
  23431863.468    -3576178.04449  -2774349.96345  23431862.709    23431866.032
  23095371.062    -5506222.67749  -4075196.15645  23095369.809    23095375.609
  24178278.078     1942693.73449   1792219.74844  24178277.106    24178283.487
  21896828.622    -9931852.92149  -7722818.67447  21896828.451    21896833.734
  20922553.379   -18484734.02849 -12045118.13148  20922552.588    20922556.209
  23081034.154    -6539910.45449  -5086449.48146  23081033.354    23081038.516
 04  1 17  2 11  0.0000000  0  9G29G 6G21G22G15G17G26G18G16
  23059772.779    -6422675.21649  -4469172.05646  23059772.422    23059776.882
  20736086.838   -16458542.71349 -12629556.48148  20736086.426    20736091.328
  20689253.545   -16933430.01949 -12531070.98448  20689252.758    20689256.233
  23413616.891    -3672066.75949  -2849068.31145  23413615.671    23413618.859
  23081745.347    -5577823.99949  -4130989.35345  23081744.371    23081749.838
  24191915.728     2014359.61149   1848063.28545  24191914.775    24191920.752
  21894541.183    -9943873.57749  -7732185.39147  21894541.005    21894546.182
  20912725.182   -18536381.21249 -12085362.65948  20912724.442    20912728.074
  23077819.066    -6556805.10149  -5099614.12745  23077818.369    23077823.506
 04  1 17  2 11 30.0000000  0  9G29G 6G21G22G15G17G26G18G16
  23064489.068    -6397891.67149  -4449860.17946  23064488.667    23064492.963
  20744833.286   -16412579.80149 -12593741.22648  20744832.881    20744837.816
  20686076.304   -16950126.29549 -12544081.06048  20686075.528    20686078.992
  23395413.959    -3767723.32649  -2923605.78045  23395412.803    23395415.894
  23068136.337    -5649340.00649  -4186716.06445  23068135.372    23068140.576
  24205563.176     2086078.16349   1903947.80345  24205562.318    24205567.961
  21892375.454    -9955254.93349  -7741053.94747  21892375.194    21892380.279
  20902980.257   -18587591.04449 -12125266.40348  20902979.558    20902983.176
  23074708.637    -6573150.30649  -5112350.63045  23074707.882    23074713.098
 04  1 17  2 12  0.0000000  0  9G29G 6G21G22G15G17G26G18G16
  23069307.878    -6372568.65949  -4430127.94546  23069307.580    23069311.710
  20753666.696   -16366159.86649 -12557569.84648  20753666.306    20753671.237
  20682937.548   -16966620.66549 -12556933.79748  20682936.741    20682940.204
  23377255.842    -3863143.97149  -2997959.41345  23377254.694    23377257.951
  23054544.077    -5720768.32949  -4242374.43545  23054542.962    23054548.240
  24219221.511     2157851.65049   1959875.19245  24219220.792    24219225.813
  21890331.897    -9965993.72049  -7749421.80547  21890331.709    21890336.762
  20893319.150   -18638360.67049 -12164827.11248  20893318.447    20893322.013
  23071703.228    -6588943.56549  -5124657.04645  23071702.423    23071707.697
 04  1 17  2 12 30.0000000  0  9G29G 6G21G22G15G17G26G18G16
  23074229.576    -6346706.21049  -4409975.36846  23074229.133    23074233.085
  20762587.135   -16319282.86949 -12521042.31348  20762586.730    20762591.654
  20679837.247   -16982912.71049 -12569628.88848  20679836.467    20679839.951
  23359143.118    -3958326.28549  -3072127.31245  23359141.883    23359145.064
  23040968.296    -5792108.33949  -4297964.00845  23040967.291    23040972.450
  24232890.385     2229680.73249   2015846.00945  24232889.538    24232894.049
  21888410.975    -9976088.35949  -7757287.73747  21888410.749    21888415.791
  20883742.116   -18688688.67249 -12204043.70948  20883741.347    20883744.900
  23068802.720    -6604184.55949  -5136533.11245  23068802.041    23068807.417
 04  1 17  2 13  0.0000000  0  9G29G 6G21G22G15G17G26G18G16
  23079252.810    -6320309.23449  -4389406.27546  23079252.336    23079256.271
  20771593.647   -16271953.61749 -12484162.37848  20771593.195    20771598.084
  20676774.717   -16999006.41349 -12582169.42048  20676773.937    20676777.450
  23341074.807    -4053273.29249  -3146111.87145  23341073.792    23341077.140
  23027408.566    -5863364.34749  -4353488.10345  23027407.608    23027412.797
  24246568.479     2301561.14149   2071856.66245  24246567.630    24246572.155
  21886612.098    -9985542.20149  -7764654.33147  21886611.804    21886616.765
  20874248.193   -18738579.12649 -12242919.35648  20874247.469    20874251.057
  23066006.933    -6618877.26349  -5147981.96745  23066006.146    23066011.352
 04  1 17  2 13 30.0000000  0  9G29G 6G21G22G15G17G26G18G16
  23084378.798    -6293371.48249  -4368415.81546  23084378.377    23084382.410
  20780687.444   -16224165.80049 -12446925.11648  20780686.950    20780691.772
  20673751.221   -17014894.72049 -12594549.90948  20673750.460    20673753.985
  23323052.849    -4147976.51649  -3219906.47645  23323052.208    23323055.642
  23013866.194    -5934529.55849  -4408941.48445  23013865.212    23013870.439
  24260258.189     2373499.86049   2127912.75745  24260257.313    24260261.544
  21884936.487    -9994347.43349  -7771515.52247  21884936.184    21884941.136
  20864839.010   -18788024.56349 -12281448.24248  20864838.293    20864841.911
  23063316.575    -6633015.01749  -5158998.38145  23063315.848    23063320.902
 04  1 17  2 14  0.0000000  0  9G29G 6G21G22G15G17G26G18G16
  23089606.583    -6265898.93349  -4347008.61546  23089606.198    23089610.302
  20789867.283   -16175925.32849 -12409335.13948  20789866.805    20789871.598
  20670765.759   -17030583.13449 -12606774.63548  20670764.987    20670768.528
  23305077.014    -4242439.63649  -3293513.95445  23305076.322    23305079.912
  23000340.193    -6005608.99849  -4464328.00545  23000339.306    23000344.700
  24273957.886     2445490.97649   2184009.75844  24273956.671    24273960.615
  21883383.344   -10002508.46749  -7777874.74847  21883383.149    21883388.053
  20855513.674   -18837029.67949 -12319634.01848  20855512.929    20855516.550
  23060730.905    -6646603.09649  -5169586.46845  23060730.060    23060735.228
 04  1 17  2 14 30.0000000  0  9G29G 6G21G22G15G17G26G18G16
  23094936.713    -6237889.25449  -4325182.88146  23094936.318    23094940.211
  20799133.781   -16127229.57949 -12371390.40448  20799133.280    20799138.068
  20667819.001   -17046068.34049 -12618841.01548  20667818.267    20667821.768
  23287147.661    -4336658.12449  -3366930.83445  23287146.974    23287150.650
  22986831.186    -6076599.45149  -4519645.20345  22986830.398    22986835.922
  24287667.758     2517537.93649   2240150.27644  24287666.938    24287670.213
  21881953.676   -10010021.38749  -7783728.95047  21881953.508    21881958.365
  20846272.762   -18885591.08549 -12357474.04648  20846271.976    20846275.639
  23058250.143    -6659638.33549  -5179743.78645  23058249.437    23058254.585
 04  1 17  2 15  0.0000000  0  9G29G 6G21G22G15G17G26G18G16
  23100367.873    -6209347.96349  -4302942.90246  23100367.449    23100371.320
  20808485.819   -16078083.94549 -12333095.10848  20808485.365    20808490.150
  20664910.133   -17061354.97649 -12630752.66748  20664909.361    20664912.824
  23269264.237    -4430635.40349  -3440159.73745  23269263.484    23269267.394
  22973338.611    -6147505.83449  -4574896.87745  22973337.679    22973342.962
  24301387.328     2589635.94549   2296330.56044  24301386.500    24301390.077
  21880646.741   -10016890.24849  -7789081.29247  21880646.513    21880651.274
  20837115.299   -18933713.26649 -12394971.82948  20837114.556    20837118.250
  23055874.033    -6672125.77549  -5189474.24745  23055873.240    23055878.265
 04  1 17  2 15 30.0000000  0  9G29G 6G21G22G15G17G26G18G16
  23105900.909    -6180270.96349  -4280285.48846  23105900.538    23105904.465
  20817924.315   -16028484.26149 -12294446.00147  20817923.831    20817928.599
  20662039.953   -17076437.96649 -12642505.63148  20662039.158    20662042.639
  23251428.028    -4524365.23849  -3513195.84445  23251427.272    23251431.146
  22959862.615    -6218323.39449  -4630079.33845  22959861.658    22959866.988
  24315117.944     2661789.46449   2352554.05344  24315116.857    24315119.833
  21879463.312   -10023109.33549  -7793927.29947  21879463.053    21879467.706
  20828042.489   -18981390.81749 -12432123.14248  20828041.767    20828045.486
  23053602.967    -6684060.64649  -5198774.13545  23053602.114    23053607.087
 04  1 17  2 16  0.0000000  0  9G29G 6G21G22G15G17G26G18G16
  23111535.637    -6150660.36949  -4257212.28446  23111535.267    23111539.144
  20827448.840   -15978432.69049 -12255444.77747  20827448.308    20827453.051
  20659208.169   -17091318.87949 -12654101.13248  20659207.408    20659210.946
  23233639.092    -4617847.39249  -3586038.94945  23233638.197    23233642.085
  22946403.328    -6289053.27649  -4685193.48545  22946402.396    22946407.808
  24328858.840     2733997.43349   2408820.08144  24328858.032    24328859.829
  21878403.222   -10028679.45649  -7798267.63247  21878403.027    21878407.764
  20819054.131   -19028624.80949 -12468928.82748  20819053.429    20819057.179
  23051436.404    -6695444.43349  -5207644.59845  23051435.713    23051440.871
 04  1 17  2 16 30.0000000  0  9G29G 6G21G22G15G17G26G18G16
  23117271.658    -6120517.80049  -4233724.54946  23117271.187    23117275.136
  20837059.034   -15927930.58649 -12216092.48647  20837058.515    20837063.282
  20656414.744   -17105998.22349 -12665539.56748  20656413.992    20656417.603
  23215897.133    -4711081.05649  -3658688.44645  23215896.429    23215900.239
  22932960.544    -6359696.23549  -4740239.91545  22932959.523    22932965.026
  24342609.798     2806259.03149   2465127.80144  24342608.243    24342610.879
  21877466.719   -10033600.38649  -7802102.09847  21877466.605    21877471.390
  20810150.172   -19075415.69849 -12505389.23548  20810149.423    20810153.218
  23049374.772    -6706278.10549  -5216086.38545  23049374.080    23049379.322
 04  1 17  2 17  0.0000000  0  9G29G 6G21G22G15G17G26G18G16
  23123109.471    -6089839.23949  -4209819.15746  23123109.035    23123113.126
  20846755.672   -15876973.98349 -12176386.03847  20846755.172    20846760.013
  20653660.665   -17120471.34549 -12676817.30948  20653659.869    20653663.509
  23198203.566    -4804060.18849  -3731139.59545  23198203.099    23198206.890
  22919535.193    -6430247.38549  -4795214.79146  22919534.226    22919539.690
  24356371.206     2878578.81349   2521480.94844  24356369.727    24356372.789
  21876654.890   -10037866.87149  -7805426.61147  21876654.737    21876659.595
  20801331.500   -19121758.00749 -12541500.10248  20801330.718    20801334.545
  23047418.990    -6716557.14649  -5224096.02545  23047418.134    23047423.246
 04  1 17  2 17 30.0000000  0  8G29G 6G21G22G15G26G18G16
  23129048.041    -6058631.75349  -4185501.62746  23129047.644    23129051.814
  20856537.527   -15825569.62549 -12136330.69647  20856537.050    20856541.953
  20650944.654   -17134744.06549 -12687938.89448  20650943.859    20650947.498
  23180557.579    -4896789.56049  -3803396.14645  23180557.174    23180561.057
  22906126.178    -6500712.77349  -4850122.84346  22906125.129    22906130.657
  21875966.633   -10041484.46549  -7808245.47647  21875966.393    21875971.253
  20792597.109   -19167657.28549 -12577265.75348  20792596.355    20792600.173
  23045567.305    -6726287.86849  -5231678.38545  23045566.646    23045571.575
 04  1 17  2 18  0.0000000  0  8G29G 6G21G22G15G26G18G16
  23135087.846    -6026891.93249  -4160769.28546  23135087.422    23135091.728
  20866405.274   -15773714.00049 -12095923.71847  20866404.809    20866409.749
  20648267.629   -17148811.70449 -12698900.67748  20648266.882    20648270.538
  23162960.137    -4989263.43949  -3875453.62145  23162959.966    23162963.855
  22892734.154    -6571088.07449  -4904960.70846  22892733.131    22892738.686
  21875402.667   -10044448.05049  -7810554.74547  21875402.414    21875407.343
  20783947.897   -19213108.87849 -12612682.55848  20783947.173    20783950.986
  23043820.889    -6735466.38049  -5238830.45945  23043820.135    23043824.908
 04  1 17  2 18 30.0000000  0  8G29G 6G21G22G15G26G18G16
  23141228.264    -5994623.59849  -4135625.11646  23141227.801    23141232.159
  20876358.204   -15721410.87049 -12055168.03547  20876357.748    20876362.722
  20645629.109   -17162677.53749 -12709705.20648  20645628.309    20645631.989
  23145411.391    -5081483.35949  -3947313.19746  23145411.125    23145414.914
  22879358.778    -6641376.29849  -4959730.71146  22879357.830    22879363.179
  21874962.524   -10046760.22049  -7812356.41547  21874962.369    21874967.316
  20775383.297   -19258116.02449 -12647753.03848  20775382.562    20775386.394
  23042179.063    -6744095.87049  -5245554.72845  23042178.161    23042182.725
 04  1 17  2 19  0.0000000  0  8G29G 6G21G22G15G26G18G16
  23147469.292    -5961826.50849  -4110068.93146  23147468.891    23147473.217
  20886396.385   -15668659.66749 -12014063.20247  20886395.929    20886400.891
  20643029.163   -17176340.19449 -12720351.41748  20643028.369    20643032.067
  23127911.421    -5173446.50049  -4018972.67146  23127911.051    23127914.788
  22866000.040    -6711576.15949  -5014431.89746  22865999.039    22866004.559
  21874646.834   -10048419.15649  -7813649.07947  21874646.627    21874651.558
  20766903.549   -19302677.01349 -12682475.86748  20766902.823    20766906.692
  23040641.794    -6752175.32149  -5251850.40346  23040640.886    23040645.242
 04  1 17  2 19 30.0000000  0  8G29G 6G21G22G15G26G18G16
  23153810.677    -5928502.41749  -4084102.09146  23153810.291    23153814.548
  20896519.536   -15615462.03049 -11972610.50147  20896519.071    20896524.060
  20640467.703   -17189800.37549 -12730839.86048  20640466.952    20640470.638
  23110460.192    -5265152.54049  -4090431.85646  23110459.912    23110463.635
  22852658.154    -6781688.29449  -5069064.68546  22852657.205    22852662.645
  21874455.418   -10049425.09049  -7814432.90047  21874455.190    21874460.145
  20758508.606   -19346792.19649 -12716851.31648  20758507.914    20758511.839
  23039208.812    -6759705.94349  -5257718.40446  23039208.028    23039212.238
 04  1 17  2 20  0.0000000  0  8G29G 6G21G22G15G26G18G16
  23160252.740    -5894649.07649  -4057722.85046  23160252.361    23160256.518
  20906728.045   -15561815.50249 -11930808.01147  20906727.654    20906732.698
  20637945.467   -17203054.54649 -12741167.76748  20637944.758    20637948.442
  23093058.911    -5356596.76049  -4161686.98646  23093058.579    23093062.226
  22839333.528    -6851709.34049  -5123626.52946  22839332.509    22839337.919
  21874388.908   -10049774.32049  -7814705.00547  21874388.726    21874393.713
  20750199.079   -19390458.39549 -12750876.90748  20750198.417    20750202.369
  23037880.973    -6766684.76549  -5263156.42446  23037880.177    23037884.195
 04  1 17  2 20 30.0000000  0  8G29G 6G21G22G15G26G18G16
  23166794.584    -5860271.63349  -4030935.21046  23166794.222    23166798.208
  20917021.073   -15507725.30849 -11888659.80847  20917020.668    20917025.728
  20635461.685   -17216106.90649 -12751338.42048  20635460.938    20635464.638
  23075706.840    -5447782.05949  -4232740.39546  23075706.481    23075710.113
  22826025.384    -6921643.72849  -5178120.82546  22826024.432    22826029.697
  21874446.741   -10049470.71349  -7814468.40347  21874446.516    21874451.523
  20741974.380   -19433679.33549 -12784555.53848  20741973.710    20741977.656
  23036657.445    -6773116.56249  -5268168.20346  23036656.494    23036660.305
 04  1 17  2 21  0.0000000  0  8G29G 6G21G22G15G26G18G16
  23173436.517    -5825368.43749  -4003737.89546  23173436.144    23173440.007
  20927398.888   -15453189.54349 -11846164.41147  20927398.493    20927403.572
  20633016.786   -17228954.87749 -12761349.81448  20633016.010    20633019.736
  23058404.812    -5538704.58449  -4303589.02046  23058404.449    23058408.047
  22812734.521    -6991488.42149  -5232545.22646  22812733.573    22812738.641
  21874629.250   -10048511.11249  -7813720.63547  21874629.079    21874634.147
  20733834.856   -19476452.40049 -12817885.17948  20733834.205    20733838.163
  23035537.867    -6778999.11449  -5272751.98946  23035537.049    23035540.901
 04  1 17  2 21 30.0000000  0  8G29G 6G21G22G15G26G18G16
  23180178.579    -5789938.56749  -3976130.19346  23180178.186    23180182.051
  20937861.700   -15398207.11049 -11803320.95847  20937861.290    20937866.339
  20630611.252   -17241596.11049 -12771200.10948  20630610.456    20630614.193
  23041153.477    -5629360.90149  -4374230.23546  23041153.082    23041156.682
  22799461.033    -7061241.57649  -5286898.31546  22799459.963    22799464.948
  21874937.078   -10046893.26849  -7812459.95347  21874936.926    21874941.984
  20725781.069   -19518775.28949 -12850864.03348  20725780.401    20725784.359
  23034523.355    -6784330.61949  -5276906.40046  23034522.711    23034526.447
 04  1 17  2 22  0.0000000  0  8G29G 6G21G22G15G26G18G16
  23187019.757    -5753987.89349  -3948116.65746  23187019.351    23187023.249
  20948408.520   -15342783.55349 -11760133.78247  20948408.079    20948413.084
  20628244.202   -17254035.24149 -12780892.92448  20628243.384    20628247.090
  23023952.324    -5719754.23049  -4444666.50046  23023951.800    23023955.368
  22786203.855    -7130907.80749  -5341183.66346  22786202.830    22786207.868
  21875369.375   -10044621.50249  -7810689.72747  21875369.247    21875374.229
  20717812.081   -19560652.16249 -12883495.34548  20717811.418    20717815.459
  23033612.634    -6789116.52649  -5280635.65446  23033611.852    23033615.742
 04  1 17  2 22 30.0000000  0  8G29G 6G21G22G15G26G18G16
  23193960.067    -5717515.66649  -3919696.71746  23193959.715    23193963.609
  20959039.301   -15286918.16349 -11716602.31347  20959038.919    20959043.862
  20625915.971   -17266270.29049 -12790426.71348  20625915.136    20625918.830
  23006801.596    -5809881.43649  -4514895.40846  23006801.083    23006804.675
  22772963.822    -7200485.33549  -5395399.88646  22772962.646    22772967.672
  21875926.507   -10041693.76149  -7808408.35147  21875926.382    21875931.342
  20709928.271   -19602081.20949 -12915777.70548  20709927.646    20709931.746
  23032806.270    -6793355.47849  -5283938.74546  23032805.351    23032809.087
 04  1 17  2 23  0.0000000  0  8G29G 6G21G22G15G26G18G16
  23201000.410    -5680518.83049  -3890867.98546  23200999.992    23201003.787
  20969754.918   -15230607.48149 -11672723.86947  20969754.511    20969759.425
  20623627.355   -17278296.81149 -12799798.02048  20623626.530    20623630.245
  22989702.359    -5899737.06449  -4584912.70846  22989701.921    22989705.648
  22759741.214    -7269969.59749  -5449543.44746  22759739.981    22759745.234
  21876609.304   -10038105.46849  -7805612.26447  21876609.159    21876614.120
  20702130.573   -19643058.12449 -12947707.75648  20702129.954    20702134.084
  23032103.970    -6797043.90649  -5286812.81346  23032103.267    23032107.298
 04  1 17  2 23 30.0000000  0  8G29G 6G21G22G15G26G18G16
  23208139.910    -5643000.45049  -3861632.87046  23208139.519    23208143.318
  20980554.648   -15173854.42849 -11628500.72147  20980554.254    20980559.151
  20621378.114   -17290116.65649 -12809008.27848  20621377.288    20621380.973
  22972654.585    -5989321.98749  -4654719.06746  22972654.273    22972658.134
  22746535.777    -7339362.70949  -5503615.96746  22746534.762    22746540.139
  21877417.562   -10033858.45449  -7802302.88047  21877417.340    21877422.273
  20694418.645   -19683584.74449 -12979286.92448  20694417.973    20694422.125
  23031506.413    -6800183.97349  -5289259.59846  23031505.681    23031509.823
 04  1 17  2 24  0.0000000  0  8G29G 6G21G22G15G26G18G16
  23215377.908    -5604964.75049  -3831994.64346  23215377.489    23215381.213
  20991437.862   -15116663.13349 -11583936.08547  20991437.410    20991442.298
  20619167.628   -17301732.99949 -12818059.96248  20619166.758    20619170.441
  22955658.062    -6078637.92749  -4724315.82746  22955657.899    22955661.803
  22733347.417    -7408667.72849  -5557619.85146  22733346.153    22733351.802
  21878350.441   -10028955.46049  -7798482.35747  21878350.293    21878355.228
  20686791.808   -19723664.02649 -13010517.51348  20686791.123    20686795.270
  23031012.592    -6802779.55949  -5291282.13046  23031011.712    23031015.968
 04  1 17  2 24 30.0000000  0  8G29G 6G21G22G15G26G18G16
  23222714.663    -5566410.28449  -3801952.17646  23222714.249    23222717.852
  21002404.779   -15059031.61349 -11539028.41347  21002404.308    21002409.247
  20616996.376   -17313142.94149 -12826950.81248  20616995.551    20616999.187
  22938713.766    -6167680.59749  -4793699.65546  22938713.519    22938717.510
  22720176.021    -7477881.60749  -5611552.70646  22720174.961    22720180.838
  21879408.794   -10023393.69349  -7794148.49747  21879408.591    21879413.493
  20679250.558   -19763293.32749 -13041397.47348  20679249.893    20679254.031
  23030622.632    -6804828.40649  -5292878.61546  23030621.843    23030626.077
 04  1 17  2 25  0.0000000  0  8G29G 6G21G22G15G26G18G16
  23230150.004    -5527337.17349  -3771505.58046  23230149.552    23230153.255
  21013455.483   -15000960.01649 -11493777.83247  21013454.988    21013459.950
  20614864.607   -17324345.45549 -12835680.03748  20614863.767    20614867.400
  22921821.765    -6256448.14849  -4862869.11246  22921821.613    22921825.545
  22707022.291    -7547003.43149  -5665413.84546  22707021.296    22707027.389
  21880592.698   -10017172.05649  -7789300.45547  21880592.541    21880597.433
  20671795.192   -19802471.30949 -13071925.75548  20671794.564    20671798.687
  23030336.796    -6806330.45049  -5294049.03046  23030336.110    23030340.355
 04  1 17  2 25 30.0000000  0  8G29G 6G21G22G15G26G18G16
  23237682.954    -5487750.40649  -3740658.74246  23237682.616    23237686.381
  21024588.961   -14942453.22949 -11448188.13847  21024588.460    21024593.406
  20612771.663   -17335343.70849 -12844250.09548  20612770.856    20612774.507
  22904982.031    -6344943.04449  -4931826.10446  22904981.651    22904985.398
  22693885.612    -7616036.88749  -5719206.09746  22693884.521    22693890.671
  21881901.456   -10010294.25349  -7783941.11547  21881901.265    21881906.088
  20664424.997   -19841202.02649 -13102105.52148  20664424.347    20664428.448
  23030154.302    -6807289.78549  -5294796.54746  23030153.626    23030157.811
 04  1 17  2 26  0.0000000  0  8G29G 6G21G22G15G26G18G16
  23245313.887    -5447649.32449  -3709411.13246  23245313.524    23245317.391
  21035805.440   -14883510.36649 -11402258.64647  21035804.945    21035809.876
  20610717.888   -17346135.95249 -12852659.62448  20610717.118    20610720.804
  22888194.764    -6433161.89749  -5000568.00146  22888194.143    22888197.857
  22680765.780    -7684979.82349  -5772927.83246  22680764.924    22680771.160
  21883335.565   -10002758.19949  -7778068.84947  21883335.323    21883340.120
  20657140.395   -19879483.23849 -13131935.02048  20657139.690    20657143.780
  23030075.341    -6807705.27349  -5295120.28246  23030074.491    23030078.865
 04  1 17  2 26 30.0000000  0  8G29G 6G21G22G15G26G18G16
  23253043.246    -5407031.25149  -3677760.66446  23253042.843    23253046.751
  21047105.489   -14824128.45049 -11355987.03747  21047104.952    21047109.844
  20608704.151   -17356717.89949 -12860905.28848  20608703.382    20608707.117
  22871460.822    -6521099.66549  -5069090.87346  22871460.088    22871463.826
  22667664.375    -7753828.32549  -5826575.96946  22667663.374    22667669.724
  21884895.484    -9994559.87449  -7771680.53247  21884895.362    21884900.022
  20649942.015   -19917310.79849 -13161411.02848  20649941.323    20649945.421
  23030100.285    -6807573.60649  -5295017.67846  23030099.644    23030103.972
 04  1 17  2 27  0.0000000  0  8G29G 6G21G22G15G26G18G16
  23260869.560    -5365903.32249  -3645712.91746  23260869.086    23260873.114
  21058487.667   -14764314.31549 -11309378.62347  21058487.213    21058492.091
  20606729.307   -17367095.41149 -12868991.65048  20606728.569    20606732.339
  22854779.599    -6608760.84349  -5137398.21646  22854778.656    22854782.408
  22654579.411    -7822588.28349  -5880155.12146  22654578.552    22654585.035
  21886580.493    -9985705.12649  -7764780.71447  21886580.276    21886584.945
  20642828.861   -19954690.52849 -13190538.07848  20642828.167    20642832.269
  23030228.347    -6806901.34849  -5294493.81946  23030227.625    23030231.971
 04  1 17  2 27 30.0000000  0  8G29G 6G21G22G15G26G18G16
  23268793.441    -5324261.97149  -3613265.09446  23268792.931    23268797.157
  21069952.929   -14704064.13249 -11262430.44047  21069952.435    21069957.317
  20604794.353   -17377263.48849 -12876914.81648  20604793.628    20604797.402
  22838151.744    -6696139.39549  -5205485.35446  22838151.007    22838154.782
  22641512.558    -7891254.34049  -5933661.10046  22641511.608    22641518.152
  21888391.233    -9976189.13449  -7757365.64447  21888391.082    21888395.581
  20635801.856   -19991617.59049 -13219312.40048  20635801.172    20635805.259
  23030460.105    -6805684.37449  -5293545.52946  23030459.334    23030463.447
 04  1 17  2 28  0.0000000  0  8G29G 6G21G22G15G26G18G16
  23276814.085    -5282111.21349  -3580420.33646  23276813.647    23276818.222
  21081500.387   -14643381.72549 -11215145.45947  21081499.941    21081504.818
  20602898.819   -17387224.64249 -12884676.74548  20602898.061    20602901.873
  22821577.512    -6783236.94449  -5273353.51546  22821576.791    22821580.554
  22628462.992    -7959829.37949  -5987096.16046  22628462.032    22628468.468
  21890327.280    -9966014.67649  -7749437.48247  21890327.152    21890331.679
  20628860.388   -20028095.29249 -13247736.57248  20628859.708    20628863.762
  23030794.716    -6803926.24549  -5292175.55646  23030793.953    23030798.058
 04  1 17  2 28 30.0000000  0  8G29G 6G21G22G15G26G18G16
  23284932.174    -5239449.67549  -3547177.55146  23284931.718    23284936.490
  21093130.407   -14582265.53349 -11167522.46347  21093130.000    21093134.812
  20601043.125   -17396975.93149 -12892275.14348  20601042.405    20601046.262
  22805057.284    -6870049.34149  -5340999.48446  22805056.858    22805060.604
  22615431.265    -8028310.34749  -6040457.92846  22615430.304    22615436.757
  21892389.228    -9955178.96849  -7740994.06646  21892389.115    21892393.497
  20622005.045   -20064120.58749 -13275808.21948  20622004.343    20622008.378
  23031232.550    -6801624.86849  -5290382.26846  23031231.880    23031235.969
 04  1 17  2 29  0.0000000  0  8G29G 6G21G22G15G26G18G16
  23293146.686    -5196280.38049  -3513539.12446  23293146.331    23293151.308
  21104842.434   -14520718.41049 -11119563.67447  21104842.022    21104846.842
  20599227.193   -17406518.67849 -12899711.04248  20599226.482    20599230.329
  22788591.163    -6956577.39549  -5408423.88446  22788591.037    22788594.716
  22602417.227    -8096698.86449  -6093747.65146  22602416.273    22602422.640
  21894576.714    -9943683.84949  -7732036.81046  21894576.610    21894580.864
  20615235.442   -20099694.86649 -13303528.42748  20615234.760    20615238.785
  23031773.506    -6798782.84349  -5288167.70146  23031772.766    23031776.895
 04  1 17  2 29 30.0000000  0  8G29G 6G21G22G15G26G18G16
  23301457.965    -5152604.09849  -3479505.63946  23301457.617    23301462.595
  21116636.357   -14458740.86449 -11071269.48847  21116635.977    21116640.822
  20597451.164   -17415852.03649 -12906983.77248  20597450.422    20597454.269
  22772179.800    -7042818.97949  -5475625.05346  22772179.579    22772183.309
  22589420.908    -8164994.55449  -6146965.02946  22589420.020    22589426.234
  21896889.642    -9931529.01149  -7722565.49246  21896889.609    21896893.624
  20608551.782   -20134817.57749 -13330896.76648  20608551.147    20608555.137
  23032417.205    -6795400.57949  -5285532.16046  23032416.430    23032420.591
 04  1 17  2 30  0.0000000  0  8G29G 6G21G22G15G26G18G16
  23309864.682    -5108426.19449  -3445081.27546  23309864.317    23309869.318
  21128511.263   -14396337.92749 -11022643.83247  21128510.856    21128515.757
  20595714.178   -17424979.89549 -12914096.37748  20595713.434    20595717.265
  22755822.302    -7128776.90849  -5542605.20446  22755822.163    22755825.968
  22576441.704    -8233201.07949  -6200112.93546  22576440.785    22576446.752
  21899327.360    -9918718.63049  -7712583.35646  21899327.331    21899331.242
  20601953.328   -20169492.95149 -13357916.52248  20601952.675    20601956.637
  23033162.661    -6791482.74649  -5282479.30246  23033162.014    23033166.092
 04  1 17  2 30 30.0000000  0  8G29G 6G21G22G15G26G18G16
  23318368.317    -5063739.40849  -3410260.39646  23318367.880    23318372.962
  21140468.509   -14333502.18449 -10973680.92647  21140468.099    21140473.079
  20594017.971   -17433893.54749 -12921042.07048  20594017.219    20594021.063
  22739520.666    -7214441.47949  -5609356.77646  22739520.538    22739524.450
  22563481.302    -8301309.73649  -6253184.58046  22563480.337    22563486.126
  21901891.549    -9905243.99949  -7702083.62446  21901891.486    21901895.178
  20595441.537   -20203712.76749 -13384581.30048  20595440.883    20595444.828
  23034011.559    -6787021.61749  -5279003.09845  23034010.866    23034014.933
 04  1 17  2 31  0.0000000  0  8G29G 6G21G22G15G26G18G16
  23326966.961    -5018553.40549  -3375050.50346  23326966.557    23326971.560
  21152506.353   -14270242.82149 -10924387.92647  21152505.945    21152511.006
  20592360.938   -17442601.21349 -12927827.25248  20592360.186    20592364.035
  22723273.783    -7299819.68849  -5675885.19746  22723273.485    22723277.441
  22550537.811    -8369328.26549  -6306186.00146  22550536.878    22550542.691
  21904580.530    -9891113.71749  -7691073.00346  21904580.474    21904584.005
  20589014.927   -20237484.83849 -13410897.19048  20589014.272    20589018.225
  23034962.055    -6782026.02249  -5275110.43045  23034961.367    23034965.462
 04  1 17  2 31 30.0000000  0  8G29G 6G21G22G15G26G18G16
  23335661.013    -4972865.83249  -3339449.79646  23335660.549    23335665.565
  21164625.215   -14206557.31249 -10874762.87447  21164624.845    21164630.007
  20590744.000   -17451098.11649 -12934448.20648  20590743.265    20590747.120
  22707082.435    -7384906.63749  -5742186.67246  22707082.034    22707085.911
  22537612.186    -8437252.76249  -6359114.14046  22537611.327    22537617.117
  21907394.885    -9876324.07949  -7679548.59046  21907394.836    21907398.266
  20582674.253   -20270805.47549 -13436861.31048  20582673.572    20582677.531
  23036014.853    -6776493.14049  -5270799.08745  23036014.169    23036018.405
 04  1 17  2 32  0.0000000  0  8G29G 6G21G22G15G26G18G16
  23344450.112    -4926678.85749  -3303459.92446  23344449.674    23344454.695
  21176824.818   -14142447.73049 -10824807.36647  21176824.490    21176829.748
  20589166.964   -17459385.47249 -12940905.87448  20589166.237    20589170.077
  22690946.543    -7469701.99249  -5808260.92546  22690946.095    22690949.886
  22524704.462    -8505083.94049  -6411969.56946  22524703.582    22524709.346
  21910334.510    -9860876.36649  -7667511.39346  21910334.441    21910337.861
  20576419.239   -20303675.74349 -13462474.48648  20576418.562    20576422.537
  23037169.596    -6770424.95949  -5266070.63645  23037168.880    23037173.088
 04  1 17  2 32 30.0000000  0  8G29G 6G21G22G15G26G18G16
  23353333.817    -4879994.93949  -3267082.82246  23353333.323    23353338.353
  21189104.754   -14077915.97749 -10774522.89047  21189104.408    21189109.760
  20587629.772   -17467463.65049 -12947200.54648  20587629.041    20587632.794
  22674866.332    -7554205.21849  -5874107.53946  22674865.817    22674869.459
  22511814.296    -8572822.28649  -6464752.66546  22511813.436    22511819.284
  21913399.194    -9844771.63349  -7654962.22546  21913399.109    21913402.490
  20570249.701   -20336096.63949 -13487737.50948  20570249.073    20570253.069
  23038425.666    -6763823.29649  -5260926.47245  23038425.030    23038429.368
 04  1 17  2 33  0.0000000  0  8G29G 6G21G22G15G26G18G16
  23362312.370    -4832812.10749  -3230316.95946  23362311.938    23362316.907
  21201465.407   -14012960.05849 -10723907.89947  21201465.041    21201470.505
  20586133.086   -17475328.94949 -12953329.33448  20586132.397    20586136.037
  22658842.220    -7638412.07649  -5939723.23246  22658841.810    22658845.437
  22498942.522    -8640464.39849  -6517460.76546  22498941.647    22498947.426
  21916589.444    -9828006.93849  -7641898.80547  21916589.371    21916592.804
  20564166.428   -20368064.90349 -13512647.82548  20564165.714    20564169.693
  23039783.899    -6756685.59649  -5255364.61645  23039783.230    23039787.476
 04  1 17  2 33 30.0000000  0  8G29G 6G21G22G15G26G18G16
  23371385.303    -4785134.42049  -3193165.48446  23371384.677    23371389.690
  21213906.096   -13947583.65049 -10672965.26247  21213905.739    21213911.256
  20584676.543   -17482983.74149 -12959294.09348  20584675.805    20584679.324
  22642874.352    -7722324.00249  -6005109.10946  22642873.895    22642877.569
  22486088.608    -8708012.76249  -6570095.83646  22486087.655    22486093.409
  21919904.725    -9810585.15949  -7628323.38047  21919904.636    21919908.124
  20558168.688   -20399583.31049 -13537207.61148  20558167.957    20558171.938
  23041243.533    -6749015.43849  -5249387.87245  23041242.680    23041246.884
 04  1 17  2 34  0.0000000  0  8G29G 6G21G22G15G26G18G16
  23380552.569    -4736959.22549  -3155626.33946  23380552.100    23380557.058
  21226427.423   -13881783.69649 -10621692.58347  21226427.070    21226432.591
  20583260.798   -17490423.62149 -12965091.38948  20583260.036    20583263.520
  22626963.539    -7805935.55649  -6070260.92846  22626963.109    22626966.858
  22473253.334    -8775462.85449  -6622654.30846  22473252.441    22473258.071
  21923345.906    -9792502.32049  -7614232.83347  21923345.743    21923349.235
  20552257.226   -20430647.75049 -13561413.65448  20552256.519    20552260.554
  23042804.794    -6740809.65749  -5242993.74745  23042804.069    23042808.084
 04  1 17  2 34 30.0000000  0  8G29G 6G21G22G15G26G18G16
  23389813.045    -4688295.59749  -3117706.60946  23389812.579    23389817.375
  21239027.692   -13815569.22349 -10570096.90647  21239027.307    21239032.801
  20581884.582   -17497655.72249 -12970726.78248  20581883.838    20581887.289
  22611108.624    -7889253.14749  -6135183.68746  22611108.235    22611112.059
  22460435.448    -8842822.23449  -6675142.11646  22460434.524    22460439.956
  21926911.157    -9773766.73749  -7599633.66247  21926911.045    21926914.430
  20546430.737   -20461265.90149 -13585271.94648  20546430.063    20546434.099
  23044466.601    -6732076.76249  -5236188.90145  23044465.768    23044469.798
 04  1 17  2 35  0.0000000  0  8G29G 6G21G22G15G26G18G16
  23399167.263    -4639140.51649  -3079403.91346  23399166.664    23399171.232
  21251707.469   -13748936.75249 -10518175.51047  21251707.099    21251712.557
  20580548.802   -17504675.37849 -12976196.63348  20580548.053    20580551.496
  22595310.777    -7972271.07349  -6199872.93446  22595310.302    22595314.192
  22447635.806    -8910085.82149  -6727555.26546  22447634.816    22447640.100
  21930601.578    -9754373.95949  -7584522.38447  21930601.401    21930604.630
  20540690.141   -20491433.14649 -13608778.87248  20540689.447    20540693.439
  23046229.232    -6722813.31649  -5228970.62045  23046228.527    23046232.420
 04  1 17  2 35 30.0000000  0  8G29G 6G21G22G15G26G18G16
  23408615.059    -4589491.78949  -3040716.59146  23408614.623    23408619.130
  21264467.273   -13681884.02249 -10465926.64747  21264466.846    21264472.236
  20579254.193   -17511478.64549 -12981497.87448  20579253.449    20579256.862
  22579570.658    -8054984.58049  -6264324.97746  22579570.329    22579574.298
  22434854.949    -8977249.82149  -6779890.82346  22434853.994    22434859.187
  21934417.525    -9734321.07749  -7568896.74847  21934417.339    21934420.571
  20535035.871   -20521146.32249 -13631931.98748  20535035.191    20535039.204
  23048093.540    -6713016.74249  -5221336.92945  23048092.758    23048096.257
 04  1 17  2 36  0.0000000  0  8G29G 6G21G22G15G26G18G16
  23418155.528    -4539357.10149  -3001650.58046  23418155.068    23418159.604
  21277305.608   -13614418.33149 -10413355.98747  21277305.138    21277310.495
  20577999.744   -17518071.01049 -12986634.77248  20577998.968    20578002.367
  22563887.825    -8137398.68149  -6328543.71346  22563887.257    22563891.363
  22422091.969    -9044319.74649  -6832153.07246  22422090.940    22422096.110
  21938357.884    -9713614.33849  -7552761.61347  21938357.711    21938360.911
  20529466.797   -20550411.58949 -13654736.08048  20529466.156    20529470.177
  23050057.577    -6702694.07949  -5213293.27545  23050057.087    23050060.271
 04  1 17  2 36 30.0000000  0  8G29G 6G21G22G15G26G18G16
  23427788.408    -4488736.48849  -2962205.92346  23427788.000    23427792.527
  21290222.597   -13546539.36549 -10360463.30047  21290222.096    21290227.422
  20576785.740   -17524450.71049 -12991605.95948  20576784.958    20576788.341
  22548262.104    -8219510.64449  -6392527.01346  22548261.654    22548265.848
  22409346.985    -9111293.86849  -6884340.67746  22409346.063    22409351.466
  21942422.810    -9692252.70049  -7536116.16247  21942422.677    21942425.995
  20523983.348   -20579227.45049 -13677189.98248  20523982.702    20523986.690
  23052122.003    -6691844.80049  -5204839.30645  23052121.449    23052124.357
 04  1 17  2 37  0.0000000  0  8G29G 6G21G22G15G26G18G16
  23437513.959    -4437628.56649  -2922381.55146  23437513.577    23437518.123
  21303218.397   -13478245.64949 -10307247.42247  21303217.969    21303223.295
  20575612.782   -17530614.71249 -12996409.06648  20575612.010    20575615.353
  22532694.824    -8301316.40349  -6456271.71446  22532694.381    22532698.597
  22396620.996    -9178169.19449  -6936451.29346  22396620.023    22396625.530
  21946612.854    -9670234.14649  -7518958.82547  21946612.686    21946616.109
  20518585.929   -20607591.22649 -13699291.60848  20518585.279    20518589.223
  23054287.103    -6680467.42449  -5195973.80745  23054286.320    23054289.019
 04  1 17  2 37 30.0000000  0  8G29G 6G21G22G15G26G18G16
  23447331.558    -4386036.79549  -2882180.15146  23447331.171    23447335.657
  21316292.604   -13409540.19849 -10253710.71847  21316292.208    21316297.497
  20574480.636   -17536564.27249 -13001045.07348  20574479.844    20574483.166
  22517185.695    -8382816.79949  -6519778.48346  22517185.307    22517189.407
  22383913.423    -9244947.27649  -6988486.13546  22383912.370    22383918.025
  21950927.409    -9647560.75449  -7501291.23847  21950927.269    21950930.946
  20513274.088   -20635505.12949 -13721042.68648  20513273.426    20513277.391
  23056552.043    -6668564.70049  -5186698.94645  23056551.422    23056553.884
 04  1 17  2 38  0.0000000  0  8G29G 6G21G22G15G26G18G16
  23457240.528    -4333964.42149  -2841604.25346  23457240.190    23457244.618
  21329444.693   -13340425.92749 -10199855.45047  21329444.263    21329449.444
  20573389.028   -17542300.76049 -13005515.05348  20573388.220    20573391.528
  22501734.517    -8464012.44249  -6583047.76946  22501734.264    22501738.200
  22371224.033    -9311629.70449  -7040446.44046  22371223.045    22371228.737
  21955366.103    -9624234.97649  -7483115.29747  21955365.946    21955369.888
  20508047.430   -20662971.15949 -13742444.77348  20508046.805    20508050.761
  23058916.350    -6656139.37649  -5177016.87345  23058915.786    23058918.274
 04  1 17  2 38 30.0000000  0  8G29G 6G21G22G15G26G18G16
  23467241.898    -4281406.83449  -2800650.27246  23467241.527    23467245.849
  21342675.503   -13270897.88549 -10145677.77247  21342675.083    21342680.214
  20572339.257   -17547817.06549 -13009813.46748  20572338.447    20572341.759
  22486342.937    -8544895.81549  -6646073.74046  22486342.699    22486346.410
  22358554.284    -9378209.67549  -7092326.90746  22358553.266    22358558.973
  21959930.097    -9600251.01649  -7464426.47847  21959929.927    21959933.952
  20502907.208   -20689983.33449 -13763493.20848  20502906.543    20502910.468
  23061381.161    -6643186.34649  -5166923.61845  23061380.629    23061382.964
 04  1 17  2 39  0.0000000  0  8G29G 6G21G22G15G26G18G16
  23477332.811    -4228378.12249  -2759329.18646  23477332.461    23477336.826
  21355982.439   -13200970.09749 -10091188.60147  21355981.971    21355987.080
  20571328.893   -17553126.09649 -13013950.36548  20571328.106    20571331.459
  22471008.661    -8625478.56249  -6708865.45146  22471008.295    22471011.909
  22345901.784    -9444699.49249  -7144137.12746  22345900.655    22345906.403
  21964616.741    -9575622.06849  -7445235.07347  21964616.603    21964620.678
  20497850.925   -20716554.35749 -13784197.88448  20497850.224    20497854.158
  23063943.913    -6629719.53849  -5156429.99845  23063943.164    23063945.409
 04  1 17  2 39 30.0000000  0  8G29G 6G21G22G15G26G18G16
  23487515.577    -4174867.68849  -2717632.71446  23487515.271    23487519.541
  21369367.482   -13130631.40149 -10036379.23847  21369367.005    21369372.145
  20570360.394   -17558214.87449 -13017915.64448  20570359.647    20570363.027
  22455734.029    -8705746.94149  -6771412.20546  22455733.789    22455737.267
  22333268.701    -9511086.28849  -7195867.08346  22333267.651    22333273.401
  21969428.297    -9550336.36049  -7425531.91747  21969428.182    21969432.410
  20492880.910   -20742671.74049 -13804549.08248  20492880.224    20492884.204
  23066606.541    -6615727.63549  -5145527.20945  23066605.701    23066607.877
 04  1 17  2 40  0.0000000  0  8G29G 6G21G22G15G26G18G16
  23497788.817    -4120881.80749  -2675565.78446  23497788.399    23497792.789
  21382829.511   -13059887.89949  -9981254.44547  21382829.035    21382834.264
  20569433.097   -17563087.79949 -13021712.72148  20569432.338    20569435.751
  22440518.780    -8785705.03849  -6833717.16846  22440518.283    22440521.723
  22320654.557    -9577374.49249  -7247520.19346  22320653.463    22320659.232
  21974363.862    -9524399.45049  -7405321.32547  21974363.655    21974368.029
  20487996.233   -20768340.84349 -13824550.96548  20487995.546    20487999.571
  23069367.808    -6601216.66449  -5134219.97945  23069367.139    23069369.132
 04  1 17  2 40 30.0000000  0  8G29G 6G21G22G15G26G18G16
  23508152.185    -4066422.54449  -2633129.98046  23508151.725    23508156.044
  21396368.227   -12988741.30849  -9925815.55547  21396367.783    21396373.056
  20568546.897   -17567744.75649 -13025341.51348  20568546.142    20568549.570
  22425362.452    -8865351.76549  -6895779.52146  22425361.965    22425365.457
  22308059.104    -9643564.08449  -7299096.46446  22308058.023    22308063.762
  21979423.130    -9497812.48549  -7384604.19547  21979422.912    21979427.395
  20483196.791   -20793562.18749 -13844203.94448  20483196.059    20483200.124
  23072227.690    -6586188.18749  -5122509.46145  23072227.038    23072229.091
 04  1 17  2 41  0.0000000  0  8G29G 6G21G22G15G26G18G16
  23518605.116    -4011491.82249  -2590326.82746  23518604.709    23518609.035
  21409983.447   -12917193.09949  -9870063.72347  21409982.987    21409988.279
  20567701.835   -17572185.79049 -13028802.05348  20567701.057    20567704.497
  22410265.479    -8944686.47349  -6957598.73646  22410265.006    22410268.569
  22295482.397    -9709654.94449  -7350595.81046  22295481.290    22295487.087
  21984605.843    -9470576.28549  -7363381.18147  21984605.655    21984610.319
  20478482.366   -20818336.38349 -13863508.50548  20478481.652    20478485.748
  23075185.851    -6570643.58349  -5110396.78145  23075185.172    23075187.420
 04  1 17  2 41 30.0000000  0  8G29G 6G21G22G15G26G18G16
  23529147.460    -3956091.72049  -2547157.89246  23529146.941    23529151.332
  21423674.712   -12845245.05849  -9814000.33047  21423674.279    21423679.576
  20566897.999   -17576410.51749 -13032094.04148  20566897.183    20566900.576
  22395228.009    -9023708.37049  -7019174.20647  22395227.586    22395231.166
  22282924.364    -9775647.21749  -7402018.34046  22282923.343    22282929.311
  21989911.964    -9442692.04849  -7341653.18947  21989911.841    21989916.509
  20473852.827   -20842664.40849 -13882465.39748  20473852.117    20473856.242
  23078241.724    -6554584.54949  -5097883.24745  23078241.106    23078243.388
 04  1 17  2 42  0.0000000  0  8G29G 6G21G22G15G26G18G16
  23539779.438    -3900219.84949  -2503621.35746  23539779.010    23539783.254
  21437442.630   -12772894.60649  -9757623.37247  21437442.178    21437447.473
  20566136.091   -17580414.50249 -13035214.02548  20566135.261    20566138.676
  22380250.996    -9102412.57049  -7080502.12347  22380250.685    22380254.254
  22270386.080    -9841536.57949  -7453360.67846  22270385.024    22270391.082
  21995342.064    -9414156.48049  -7319417.66947  21995341.902    21995346.722
  20469308.961   -20866542.31949 -13901071.55448  20469308.263    20469312.390
  23081396.060    -6538008.49449  -5084966.84045  23081395.482    23081397.709
 04  1 17  2 42 30.0000000  0  8G29G 6G21G22G15G26G18G16
  23550500.382    -3843881.21449  -2459721.12046  23550499.927    23550503.900
  21451286.204   -12700146.46249  -9700936.52947  21451285.744    21451291.032
  20565415.505   -17584201.11949 -13038164.63648  20565414.690    20565418.099
  22365334.092    -9180801.41049  -7141584.31047  22365333.811    22365337.381
  22257866.762    -9907325.76149  -7504624.96446  22257865.760    22257871.858
  22000895.258    -9384973.84049  -7296677.94247  22000895.107    22000899.951
  20464850.156   -20889973.45349 -13919329.57348  20464849.460    20464853.622
  23084648.089    -6520919.95149  -5071651.10645  23084647.351    23084649.646
 04  1 17  2 43  0.0000000  0  8G29G 6G21G22G15G26G18G16
  23561309.692    -3787077.88149  -2415458.76646  23561309.175    23561313.103
  21465205.137   -12627002.13149  -9643940.96047  21465204.668    21465209.946
  20564736.455   -17587769.60749 -13040945.26548  20564735.610    20564739.023
  22350477.466    -9258873.94849  -7202420.01647  22350477.157    22350480.721
  22245366.587    -9973014.86849  -7555811.25546  22245365.574    22245371.643
  22006571.414    -9355145.07049  -7273434.73747  22006571.288    22006576.210
  20460476.199   -20912958.46249 -13937239.95548  20460475.518    20460479.701
  23087997.381    -6503320.45749  -5057937.22145  23087996.552    23087998.965
 04  1 17  2 43 30.0000000  0  8G29G 6G21G22G15G26G18G16
  23572206.905    -3729812.40249  -2370836.30646  23572206.341    23572210.286
  21479199.015   -12553463.98149  -9586638.52147  21479198.550    21479203.778
  20564098.737   -17591120.53649 -13043556.37548  20564097.911    20564101.309
  22335681.273    -9336629.94249  -7263009.07047  22335680.800    22335684.336
  22232885.307   -10038604.32949  -7606919.90546  22232884.275    22232890.282
  22012370.253    -9324672.09149  -7249689.55647  22012370.143    22012375.035
  20456186.863   -20935498.72249 -13954803.78648  20456186.227    20456190.404
  23091443.266    -6485212.16749  -5043826.86745  23091442.408    23091445.283
 04  1 17  2 44  0.0000000  0  8G29G 6G21G22G15G26G18G16
  23583191.613    -3672086.64449  -2325855.17146  23583191.057    23583194.884
  21493267.586   -12479533.58049  -9529030.43047  21493267.131    21493272.285
  20563502.530   -17594253.49549 -13045997.62848  20563501.724    20563505.078
  22320945.294    -9414068.64249  -7323350.87847  22320944.781    22320948.289
  22220422.970   -10104093.70149  -7657950.55646  22220421.893    22220427.914
  22018291.574    -9293555.79749  -7225443.08347  22018291.424    22018296.298
  20451982.128   -20957595.02949 -13972021.67148  20451981.448    20451985.610
  23094985.496    -6466596.72649  -5029321.31845  23094984.685    23094987.815
 04  1 17  2 44 30.0000000  0  8G29G 6G21G22G15G26G18G16
  23594264.210    -3613898.40149  -2280513.67346  23594263.781    23594267.538
  21507411.253   -12405208.42149  -9471114.74247  21507410.809    21507415.886
  20562948.583   -17597164.33449 -13048265.81048  20562947.777    20562951.161
  22306270.615    -9491184.99949  -7383441.52247  22306270.080    22306273.558
  22207980.442   -10169478.75649  -7708899.93546  22207979.426    22207985.435
  22024335.813    -9261793.18649  -7200692.99447  22024335.739    22024340.585
  20447862.566   -20979243.25149 -13988890.40848  20447861.900    20447866.065
  23098624.929    -6447471.44849  -5014418.50345  23098624.205    23098627.186
 04  1 17  2 45  0.0000000  0  8G29G 6G21G22G15G26G18G16
  23605424.441    -3555250.77249  -2234814.20246  23605424.085    23605427.688
  21521629.540   -12330491.18549  -9412893.53147  21521629.116    21521634.077
  20562436.813   -17599853.73749 -13050361.44148  20562436.022    20562439.388
  22291657.178    -9567979.32649  -7443281.23047  22291656.637    22291660.086
  22195557.746   -10234760.05649  -7759768.45847  22195556.716    22195562.786
  22030502.724    -9229386.56249  -7175441.06347  22030502.630    22030507.340
  20443827.967   -21000445.12249 -14005411.33548  20443827.323    20443831.509
  23102360.898    -6427839.10849  -4999120.58045  23102360.178    23102363.104
 04  1 17  2 45 30.0000000  0  8G29G 6G21G22G15G26G18G16
  23616671.342    -3496147.17349  -2188759.44146  23616671.039    23616674.683
  21535921.846   -12255384.89249  -9354369.16447  21535921.422    21535926.316
  20561966.947   -17602322.92249 -13052285.47948  20561966.127    20561969.479
  22277104.762    -9644452.22649  -7502870.48647  22277104.372    22277107.735
  22183154.471   -10299938.68749  -7810556.99447  22183153.542    22183159.688
  22036791.651    -9196338.47149  -7149689.29547  22036791.536    22036796.201
  20439877.921   -21021202.87249 -14021586.19648  20439877.238    20439881.435
  23106192.891    -6407702.65849  -4983429.86645  23106191.987    23106194.909
 04  1 17  2 46  0.0000000  0  8G29G 6G21G22G15G26G18G16
  23628004.919    -3436588.81849  -2142350.32146  23628004.573    23628008.375
  21550288.014   -12179890.55549  -9295542.42347  21550287.546    21550292.401
  20561539.201   -17604570.65949 -13054036.94948  20561538.393    20561541.718
  22262613.922    -9720602.16249  -7562208.06947  22262613.543    22262616.892
  22170771.098   -10365014.10749  -7861265.09447  22170770.145    22170776.129
  22043202.542    -9162649.28449  -7123437.96647  22043202.419    22043206.972
  20436012.432   -21041516.23349 -14037414.77648  20436011.743    20436015.915
  23110120.160    -6387062.94049  -4967346.95745  23110119.587    23110122.642
 04  1 17  2 46 30.0000000  0  8G29G 6G21G22G15G26G18G16
  23639425.138    -3376576.22449  -2095587.24946  23639424.696    23639428.410
  21564727.916   -12104008.33249  -9236413.43347  21564727.460    21564732.290
  20561153.917   -17606595.32949 -13055614.61148  20561153.100    20561156.431
  22248184.983    -9796426.91949  -7621292.27747  22248184.612    22248187.856
  22158407.818   -10429984.36049  -7911891.25647  22158406.784    22158412.610
  22049735.370    -9128318.82749  -7096686.94947  22049735.296    22049739.775
  20432231.699   -21061384.23849 -14052896.33248  20432230.981    20432235.138
  23114143.412    -6365920.24349  -4950872.12145  23114142.802    23114146.095
 04  1 17  2 47  0.0000000  0  8G29G 6G21G22G15G26G18G16
  23650930.405    -3316116.85849  -2048476.04246  23650929.892    23650933.436
  21579240.314   -12027745.29949  -9176987.71247  21579239.863    21579244.633
  20560810.050   -17608402.06749 -13057022.45248  20560809.238    20560812.628
  22233817.194    -9871931.02649  -7680126.62147  22233816.689    22233819.897
  22146063.476   -10494854.58649  -7962439.46747  22146062.420    22146068.225
  22056389.008    -9093353.72949  -7069441.40647  22056388.980    22056393.312
  20428534.474   -21080813.28249 -14068035.83348  20428533.731    20428537.942
  23118261.264    -6344281.56349  -4934010.82845  23118260.502    23118263.803
 04  1 17  2 47 30.0000000  0  8G29G 6G21G22G15G26G18G16
  23662520.971    -3255208.00449  -2001014.59746  23662520.468    23662524.032
  21593825.672   -11951098.68949  -9117263.10547  21593825.236    21593829.965
  20560508.546   -17609986.09949 -13058256.75748  20560507.767    20560511.203
  22219511.147    -9947109.48949  -7738707.22647  22219510.643    22219513.863
  22133738.990   -10559620.12849  -8012906.11147  22133737.982    22133743.726
  22063164.149    -9057750.74049  -7041698.80847  22063164.069    22063168.340
  20424921.528   -21099799.20349 -14082830.05248  20424920.841    20424925.027
  23122473.888    -6322144.13849  -4916760.87745  23122473.145    23122476.296
 04  1 17  2 48  0.0000000  0  8G29G 6G21G22G15G26G18G16
  23674196.797    -3193850.06349  -1953203.21946  23674196.465    23674200.200
  21608484.100   -11874068.47649  -9057239.57447  21608483.638    21608488.310
  20560249.939   -17611344.98249 -13059315.61448  20560249.146    20560252.598
  22205267.581   -10021959.39049  -7797031.80247  22205267.084    22205270.354
  22121434.923   -10624278.68249  -8063289.37847  22121433.930    22121439.551
  22070060.682    -9021509.33049  -7013458.73247  22070060.535    22070064.758
  20421393.226   -21118340.76749 -14097278.01248  20421392.494    20421396.678
  23126781.294    -6299507.61949  -4899122.02545  23126780.653    23126783.695
 04  1 17  2 48 30.0000000  0  8G29G 6G21G22G15G26G18G16
  23685957.197    -3132049.87749  -1905047.20646  23685956.693    23685960.620
  21623214.288   -11796660.87849  -8996921.98247  21623213.811    21623218.472
  20560033.231   -17612483.47449 -13060202.74248  20560032.446    20560035.941
  22191085.676   -10096484.92649  -7855103.62747  22191085.311    22191088.561
  22109150.310   -10688834.92649  -8113592.92547  22109149.275    22109154.900
  22077077.439    -8984635.64549  -6984725.98647  22077077.357    22077081.544
  20417948.362   -21136443.62449 -14111384.12248  20417947.629    20417951.808
  23131182.569    -6276378.73649  -4881099.52645  23131181.797    23131184.847
 04  1 17  2 49  0.0000000  0  8G29G 6G21G22G15G26G18G16
  23697803.209    -3069798.47549  -1856539.62746  23697802.703    23697806.775
  21638017.986   -11718866.64449  -8936303.11447  21638017.552    21638022.262
  20559860.695   -17613390.21949 -13060909.28448  20559859.875    20559863.381
  22176967.854   -10170674.37149  -7912913.56647  22176967.545    22176970.730
  22096887.152   -10753277.39949  -8163807.82447  22096886.224    22096891.854
  22084216.536    -8947119.90049  -6955492.92247  22084216.365    22084220.522
  20414588.947   -21154097.42049 -14125140.31448  20414588.235    20414592.407
  23135679.016    -6252748.27349  -4862686.19545  23135678.353    23135681.547
 04  1 17  2 49 30.0000000  0  8G29G 6G21G22G15G26G18G16
  23709732.213    -3007110.84449  -1807692.09246  23709731.764    23709735.956
  21652892.387   -11640700.55149  -8875394.48247  21652892.015    21652896.802
  20559729.899   -17614077.73849 -13061445.00448  20559729.056    20559732.583
  22162911.869   -10244539.84949  -7970471.06247  22162911.446    22162914.556
  22084643.418   -10817618.78349  -8213943.95447  22084642.490    22084648.127
  22091475.031    -8908976.52649  -6925770.80347  22091474.820    22091478.982
  20411312.458   -21171315.57349 -14138557.04448  20411311.743    20411315.871
  23140268.376    -6228630.79849  -4843893.34245  23140267.666    23140270.840
 04  1 17  2 50  0.0000000  0  8G29G 6G21G22G15G26G18G16
  23721744.364    -2943986.01749  -1758503.90646  23721743.928    23721748.334
  21667837.970   -11562161.07549  -8814194.90447  21667837.548    21667842.418
  20559641.406   -17614542.51649 -13061807.16148  20559640.567    20559644.142
  22148918.181   -10318077.58649  -8027773.17547  22148917.703    22148920.696
  22072419.603   -10881855.56149  -8263998.56847  22072418.692    22072424.326
  22098853.289    -8870203.81649  -6895558.27746  22098853.032    22098857.206
  20408119.289   -21188095.52349 -14151632.32148  20408118.604    20408122.751
  23144950.758    -6204024.94549  -4824719.96945  23144950.055    23144953.183
 04  1 17  2 50 30.0000000  0  8G29G 6G21G22G15G26G18G16
  23733840.829    -2880418.69549  -1708970.92346  23733840.364    23733844.896
  21682855.542   -11483242.81049  -8752700.16847  21682855.132    21682860.125
  20559596.670   -17614777.09149 -13061989.94048  20559595.878    20559599.493
  22134988.439   -10391279.69049  -8084813.75647  22134987.807    22134990.721
  22060217.121   -10945980.25549  -8313965.84147  22060216.170    22060221.753
  22106352.180    -8830795.80649  -6864850.73546  22106351.982    22106356.344
  20405010.754   -21204430.92349 -14164361.19148  20405010.065    20405014.231
  23149726.979    -6178925.30049  -4805161.77945  23149726.357    23149729.171
 04  1 17  2 51  0.0000000  0  8G29G 6G21G22G15G26G18G16
  23746019.426    -2816419.81149  -1659101.66146  23746018.973    23746023.568
  21697943.160   -11403956.43249  -8690918.59147  21697942.807    21697947.929
  20559594.244   -17614789.80549 -13061999.84348  20559593.479    20559597.052
  22121120.713   -10464154.22149  -8141599.10247  22121120.227    22121123.090
  22048034.201   -11010001.32749  -8363852.38347  22048033.274    22048038.967
  22113970.137    -8790762.89549  -6833656.25046  22113969.928    22113974.334
  20401985.076   -21220331.13349 -14176750.95948  20401984.390    20401988.501
  23154595.228    -6153342.42249  -4785227.07545  23154594.588    23154597.272
 04  1 17  2 51 30.0000000  0  8G29G 6G21G22G15G26G18G16
  23758280.773    -2751985.56449  -1608893.12746  23758280.335    23758285.016
  21713101.736   -11324297.52649  -8628846.72847  21713101.363    21713106.571
  20559635.304   -17614574.29249 -13061831.89748  20559634.521    20559638.092
  22107316.853   -10536694.20049  -8198123.74347  22107316.363    22107319.167
  22035872.275   -11073912.42549  -8413653.21547  22035871.374    22035877.079
  22121707.734    -8750100.46549  -6801971.22746  22121707.581    22121712.176
  20399043.184   -21235791.14349 -14188797.70548  20399042.467    20399046.552
  23159556.064    -6127272.26649  -4764912.67045  23159555.464    23159558.354
 04  1 17  2 52  0.0000000  0  8G29G 6G21G22G15G26G18G16
  23770623.684    -2687121.41949  -1558349.63146  23770623.400    23770628.394
  21728330.203   -11244271.32249  -8566488.66247  21728329.791    21728335.075
  20559719.095   -17614133.74749 -13061488.61048  20559718.343    20559721.934
  22093575.922   -10608902.68449  -8254390.08147  22093575.536    22093578.317
  22023730.713   -11137716.40649  -8463370.59047  22023729.829    22023735.506
  22129564.279    -8708813.50349  -6769799.55346  22129564.142    22129568.884
  20396184.238   -21250814.95449 -14200504.56048  20396183.536    20396187.609
  23164608.503    -6100720.02849  -4744222.59245  23164607.996    23164611.289
 04  1 17  2 52 30.0000000  0  8G29G 6G21G22G15G26G18G16
  23783048.726    -2621827.23549  -1507471.05146  23783048.488    23783053.689
  21743628.620   -11163877.15949  -8503843.88147  21743628.180    21743633.514
  20559846.394   -17613465.21749 -13060967.67748  20559845.625    20559849.151
  22079898.825   -10680776.39849  -8310395.56547  22079898.444    22079901.246
  22011610.136   -11201410.69649  -8513002.49347  22011609.250    22011614.856
  22137539.830    -8666901.21149  -6737140.61346  22137539.670    22137544.544
  20393408.587   -21265401.39749 -14211870.61148  20393407.887    20393411.928
  23169753.023    -6073685.19749  -4723156.49245  23169752.514    23169755.884
 04  1 17  2 53  0.0000000  0  8G29G 6G21G22G15G26G18G16
  23795555.049    -2556106.82849  -1456260.32446  23795554.710    23795559.961
  21758996.392   -11083118.79249  -8440915.30047  21758995.901    21759001.293
  20560016.788   -17612570.09149 -13060270.16648  20560015.977    20560019.506
  22066285.125   -10752316.72849  -8366141.26547  22066284.769    22066287.583
  21999510.191   -11264996.64249  -8562549.96847  21999509.276    21999514.836
  22145633.784    -8624366.76449  -6703996.87146  22145633.687    22145638.597
  20390715.743   -21279552.34849 -14222897.31548  20390715.042    20390719.084
  23174988.647    -6046171.44249  -4701717.18745  23174987.990    23174991.684
 04  1 17  2 53 30.0000000  0  8G29G 6G21G22G15G26G18G16
  23808142.982    -2489956.93749  -1404714.93946  23808142.597    23808147.960
  21774434.166   -11001992.72249  -8377700.21047  21774433.603    21774439.011
  20560231.164   -17611443.22149 -13059392.08048  20560230.399    20560233.951
  22052736.096   -10823517.55449  -8421622.41347  22052735.709    22052738.498
  21987431.982   -11328468.59449  -8612008.61347  21987431.068    21987436.448
  22153846.799    -8581206.52849  -6670365.50446  22153846.791    22153851.702
  20388106.615   -21293263.43649 -14233581.26648  20388105.928    20388109.917
  23180316.271    -6018175.16349  -4679901.91345  23180315.541    23180319.233
 04  1 17  2 54  0.0000000  0  8G29G 6G21G22G15G26G18G16
  23820810.480    -2423388.66249  -1352843.54946  23820810.056    23820815.555
  21789939.834   -10920509.61849  -8314206.90447  21789939.299    21789944.695
  20560488.166   -17610092.58349 -13058339.62648  20560487.381    20560490.964
  22039250.108   -10894387.21249  -8476845.50847  22039249.675    22039252.430
  21975373.836   -11391835.02349  -8661385.03347  21975372.906    21975378.192
  22162177.043    -8537430.90849  -6636254.61946  22162177.014    22162181.939
  20385579.317   -21306544.41849 -14243930.07648  20385578.638    20385582.621
  23185733.235    -5989707.36949  -4657719.20845  23185732.642    23185736.663
 04  1 17  2 54 30.0000000  0  8G29G 6G21G22G15G26G18G16
  23833558.415    -2356397.00549  -1300642.25146  23833558.051    23833563.684
  21805514.528   -10838663.73649  -8250430.91847  21805513.997    21805519.398
  20560789.248   -17608510.33349 -13057106.70348  20560788.462    20560792.055
  22025828.502   -10964917.57249  -8531804.21947  22025828.137    22025830.940
  21963337.198   -11455088.04549  -8710673.09147  21963336.249    21963341.513
  22170625.512    -8493034.26149  -6601659.80946  22170625.425    22170630.344
  20383135.142   -21319388.58049 -14253938.50548  20383134.460    20383138.470
  23191241.020    -5960762.56849  -4635164.83245  23191240.469    23191244.633
 04  1 17  2 55  0.0000000  0  8G29G 6G21G22G15G26G18G16
  23846386.284    -2288985.28849  -1248113.64846  23846385.990    23846391.625
  21821157.585   -10756458.19249  -8186374.66447  21821157.127    21821162.558
  20561134.157   -17606697.59849 -13055694.17348  20561133.374    20561136.979
  22012471.441   -11035109.18249  -8586498.96847  22012471.073    22012473.903
  21951321.950   -11518228.50749  -8759873.43447  21951320.997    21951326.260
  22179191.487    -8448019.29049  -6566583.19946  22179191.396    22179196.428
  20380773.638   -21331798.11849 -14263608.26548  20380772.974    20380776.965
  23196838.752    -5931343.98449  -4612241.23445  23196838.283    23196843.292
 04  1 17  2 55 30.0000000  0  8G29G 6G21G22G15G26G18G16
  23859293.517    -2221157.92649  -1195261.14146  23859293.055    23859298.521
  21836868.412   -10673897.11949  -8122041.38147  21836867.961    21836873.450
  20561522.612   -17604656.11849 -13054103.40248  20561521.845    20561525.459
  21999178.627   -11104963.74649  -8640931.08247  21999178.196    21999180.975
  21939327.834   -11581258.26049  -8808987.51147  21939326.820    21939332.102
  22187874.404    -8402390.03849  -6531027.92746  22187874.384    22187879.342
  20378494.443   -21343775.62149 -14272941.37748  20378493.782    20378497.725
  23202526.159    -5901455.66049  -4588951.62245  23202525.646    23202530.905
 04  1 17  2 56  0.0000000  0  8G29G 6G21G22G15G26G18G16
  23872279.765    -2152914.84249  -1142084.70045  23872279.355    23872284.748
  21852646.915   -10590980.32349  -8057430.91547  21852646.488    21852652.055
  20561955.055   -17602383.25949 -13052332.33448  20561954.295    20561957.952
  21985950.458   -11174478.52249  -8695098.43047  21985949.984    21985952.727
  21927355.014   -11644174.89549  -8858013.43747  21927354.089    21927359.422
  22196674.353    -8356145.96449  -6494993.59046  22196674.282    22196679.273
  20376297.620   -21355320.09949 -14281937.06348  20376296.923    20376300.845
  23208302.763    -5871097.62649  -4565296.01845  23208302.257    23208307.798
 04  1 17  2 56 30.0000000  0  8G29G 6G21G22G15G26G18G16
  23885344.132    -2084260.25449  -1088587.61545  23885343.731    23885349.216
  21868492.493   -10507711.21849  -7992545.92247  21868492.088    21868497.693
  20562431.318   -17599880.46149 -13050382.09848  20562430.605    20562434.241
  21972786.700   -11243654.59249  -8749001.84647  21972786.207    21972788.949
  21915403.593   -11706979.59249  -8906952.14547  21915402.713    21915408.058
  22205590.728    -8309290.54349  -6458482.85746  22205590.639    22205595.541
  20374182.623   -21366434.10549 -14290597.32148  20374182.007    20374185.939
  23214168.265    -5840273.33649  -4541277.11845  23214167.837    23214173.525
 04  1 17  2 57  0.0000000  0  8G29G 6G21G22G15G26G18G16
  23898486.994    -2015192.89049  -1034768.88945  23898486.742    23898491.898
  21884405.277   -10424088.67449  -7927385.51847  21884404.942    21884410.570
  20562952.091   -17597144.15149 -13048249.89748  20562951.345    20562954.943
  21959687.973   -11312488.26549  -8802638.46447  21959687.565    21959690.319
  21903474.027   -11769668.82749  -8955800.87647  21903473.211    21903478.661
  22214623.525    -8261822.47549  -6421494.75046  22214623.496    22214628.451
  20372150.030   -21377115.61049 -14298920.56348  20372149.394    20372153.267
  23220122.883    -5808981.92249  -4516894.17845  23220122.483    23220128.245
 04  1 17  2 57 30.0000000  0  8G29G 6G21G22G15G26G18G16
  23911707.939    -1945716.90349   -980631.73645  23911707.639    23911712.341
  21900384.804   -10340116.15249  -7861952.41447  21900384.429    21900390.029
  20563517.095   -17594175.50849 -13045936.66548  20563516.314    20563519.903
  21946654.349   -11380980.57149  -8856009.07747  21946653.878    21946656.638
  21891566.441   -11832243.76349  -9004560.54447  21891565.624    21891571.012
  22223772.419    -8213744.98449  -6384031.74846  22223772.363    22223777.300
  20370199.383   -21387366.56549 -14306908.31048  20370198.705    20370202.540
  23226165.359    -5777227.04849  -4492150.10045  23226164.911    23226170.945
 04  1 17  2 58  0.0000000  0  8G29G 6G21G22G15G26G18G16
  23925005.942    -1875835.61649   -926178.78445  23925005.593    23925010.239
  21916430.324   -10255796.70449  -7796248.96947  21916429.981    21916435.454
  20564126.117   -17590975.28549 -13043442.97848  20564125.332    20564128.896
  21933685.531   -11449132.17549  -8909114.20647  21933685.086    21933687.863
  21879680.517   -11894705.08749  -9053231.67347  21879679.603    21879684.984
  22233036.682    -8165061.25649  -6346096.37146  22233036.599    22233041.539
  20368330.121   -21397189.51549 -14314562.54648  20368329.469    20368333.259
  23232295.507    -5745011.75049  -4467047.30345  23232295.207    23232301.627
 04  1 17  2 58 30.0000000  0  8G29G 6G21G22G15G26G18G16
  23938380.217    -1805551.76649   -871412.14945  23938379.885    23938384.798
  21932541.507   -10171132.77249  -7730277.10647  21932541.087    21932546.332
  20564779.194   -17587543.66449 -13040768.98748  20564778.390    20564781.933
  21920781.592   -11516943.03849  -8961953.82947  21920781.139    21920783.896
  21867816.107   -11957052.97349  -9101814.42347  21867815.187    21867820.454
  22242415.819    -8115773.48749  -6307690.30646  22242415.746    22242420.606
  20366542.153   -21406585.49649 -14321884.08048  20366541.487    20366545.243
  23238513.005    -5712338.86549  -4441587.89545  23238512.812    23238519.061
 04  1 17  2 59  0.0000000  0  8G29G 6G21G22G15G26G18G16
  23951831.242    -1734864.89149   -816331.46945  23951831.022    23951835.871
  21948718.252   -10086123.77349  -7664036.35747  21948717.899    21948722.888
  20565476.874   -17583877.40049 -13037912.15348  20565476.037    20565479.570
  21907943.054   -11584409.82649  -9014525.33747  21907942.617    21907945.417
  21855973.923   -12019284.23049  -9150306.28447  21855973.004    21855978.222
  22251910.018    -8065880.78549  -6268812.86746  22251909.923    22251914.858
  20364835.763   -21415552.81749 -14328871.58948  20364835.058    20364838.816
  23244818.022    -5679207.50649  -4415771.25145  23244817.607    23244823.718
 04  1 17  2 59 30.0000000  0  8G29G 6G21G22G15G26G18G16
  23965358.889    -1663777.96749   -760939.03445  23965358.547    23965362.662
  21964960.345   -10000771.91749  -7597528.44647  21964959.914    21964964.659
  20566219.137   -17579976.58549 -13034872.55348  20566218.313    20566221.852
  21895170.006   -11651532.53849  -9066828.73047  21895169.560    21895172.402
  21844153.974   -12081398.60549  -9198707.07447  21844153.028    21844158.246
  22261518.867    -8015385.49949  -6229465.88146  22261518.771    22261523.724
  20363210.615   -21424092.87249 -14335526.16948  20363209.933    20363213.689
  23251209.831    -5645620.30749  -4389599.41145  23251209.252    23251215.127
 04  1 17  3  0  0.0000000  0  8G29G 6G21G22G15G26G18G16
  23978962.246    -1592292.39849   -705235.96645  23978961.980    23978965.645
  21981267.346    -9915078.64749  -7530754.50047  21981266.885    21981271.418
  20567006.223   -17575840.25749 -13031649.44148  20567005.428    20567008.934
  21882462.644   -11718310.08549  -9118863.17247  21882462.217    21882465.077
  21832356.348   -12143395.22349  -9247016.10847  21832355.445    21832360.560
  22271242.089    -7964288.93049  -6189650.38046  22271242.051    22271247.027
  20361666.776   -21432206.03849 -14341848.10848  20361666.062    20361669.824
  23257688.182    -5611579.01349  -4363073.74545  23257687.407    23257692.858
 04  1 17  3  0 30.0000000  0  8G29G 6G21G22G15G26G18G16
  23992640.246    -1520413.60649   -649226.52045  23992639.973    23992643.306
  21997638.274    -9829048.94249  -7463718.39147  21997637.832    21997642.265
  20567837.698   -17571470.68549 -13028244.57748  20567836.903    20567840.392
  21869820.411   -11784745.16249  -9170630.75347  21869820.029    21869822.903
  21820580.746   -12205276.76549  -9295235.47247  21820579.757    21820584.875
  22281078.947    -7912596.22849  -6149370.35146  22281078.870    22281083.820
  20360203.373   -21439896.20549 -14347840.43848  20360202.665    20360206.453
  23264251.764    -5577088.75449  -4336198.22645  23264251.133    23264255.913
 04  1 17  3  1  0.0000000  0  9G29G 6G21G22G15G 3G26G18G16
  24006393.052    -1448140.19349   -592909.58845  24006392.919    24006396.381
  22014073.658    -9742680.72249  -7396418.50147  22014073.214    22014077.569
  20568714.315   -17566863.85349 -13024654.82548  20568713.506    20568717.018
  21857244.288   -11850833.17749  -9222127.88547  21857243.915    21857246.790
  21808827.706   -12267038.71849  -9343361.63547  21808826.774    21808831.953
                  -1439955.92749  -1101476.14143
  22291029.623    -7860305.08749  -6108623.99546  22291029.562    22291034.445
  20358820.966   -21447160.48949 -14353500.90948  20358820.282    20358824.098
  23270901.182    -5542147.67949  -4308971.42745  23270900.550    23270904.928
 04  1 17  3  1 30.0000000  0  9G29G 6G21G22G15G 3G26G18G16
  24020220.624    -1375474.96049   -536287.32045  24020220.498    24020223.591
  22030572.843    -9655976.70249  -7328856.94747  22030572.492    22030576.792
  20569635.950   -17562020.15249 -13020880.51048  20569635.168    20569638.708
  21844734.130   -11916574.30049  -9273354.72247  21844733.825    21844736.659
  21797097.505   -12328681.34449  -9391394.83147  21797096.624    21797101.754
                  -1534860.45449   -924246.54443
  22301093.609    -7807418.33649  -6067413.53646  22301093.565    22301098.391
  20357519.375   -21454000.45349 -14358830.74048  20357518.693    20357522.473
  23277635.587    -5506758.60949  -4281395.54045  23277635.089    23277639.394
 04  1 17  3  2  0.0000000  0  9G29G 6G21G22G15G 3G26G18G16
  24034121.795    -1302423.41149   -479364.01345  24034121.783    24034124.474
  22047135.034    -9568942.17949  -7261037.85447  22047134.676    22047138.909
  20570602.269   -17556942.14249 -13016923.61348  20570601.509    20570605.061
  21832289.586   -11981971.32049  -9324313.42647  21832289.240    21832291.998
  21785389.637   -12390207.09649  -9439336.95247  21785388.640    21785393.792
                  -1629560.15549   -998038.28243
  22311269.856    -7753941.30249  -6025743.12646  22311269.879    22311274.789
  20356297.610   -21460420.58449 -14363833.43348  20356296.949    20356300.780
  23284454.433    -5470927.10149  -4253474.89845  23284453.917    23284457.883
 04  1 17  3  2 30.0000000  0  9G29G 6G21G22G15G 3G26G18G16
  24048096.235    -1228987.26449   -422141.02045  24048096.327    24048099.032
  22063759.898    -9481578.28549  -7192962.11647  22063759.547    22063763.682
  20571613.537   -17551628.47949 -13012783.09248  20571612.749    20571616.208
  21819910.684   -12047023.11349  -9375003.11747  21819910.310    21819913.053
  21773703.974   -12451614.92649  -9487187.18847  21773702.960    21773708.166
                  -1724052.14349  -1071668.21944                  23838741.858
  22321558.339    -7699875.16149  -5983613.66346  22321558.327    22321563.243
  20355155.760   -21466420.69649 -14368508.83748  20355155.109    20355158.968
  23291357.303    -5434654.59249  -4225210.62145  23291356.579    23291360.248
 04  1 17  3  3  0.0000000  0  9G29G 6G21G22G15G 3G26G18G16
  24062144.028    -1155165.40149   -364617.54644  24062144.086    24062146.764
  22080447.639    -9393883.62549  -7124628.63547  22080447.314    22080451.432
  20572670.275   -17546075.80549 -13008456.32648  20572669.447    20572672.815
  21807598.134   -12111725.76149  -9425420.74247  21807597.754    21807600.488
  21762041.358   -12512901.11949  -9534942.64447  21762040.463    21762045.686
  23820800.656    -1818330.77049  -1145132.05445  23820800.123    23820801.268
  22331959.159    -7645218.40649  -5941023.97946  22331959.146    22331964.105
  20354094.382   -21471998.40149 -14372855.08548  20354093.714    20354097.566
  23298343.876    -5397939.84349  -4196601.73045  23298343.372    23298346.726
 04  1 17  3  3 30.0000000  0  9G29G 6G21G22G15G 3G26G18G16
  24076264.320    -1080963.12249   -306797.60044  24076263.979    24076267.201
  22097197.375    -9305863.16849  -7056041.29247  22097197.069    22097201.179
  20573771.995   -17540286.38149 -13003945.08948  20573771.175    20573774.501
  21795351.509   -12176082.04449  -9475568.48547  21795351.192    21795353.866
  21750401.667   -12574068.06049  -9582605.18947  21750400.781    21750405.957
  23802900.583    -1912396.69249  -1218430.14245  23802898.166    23802900.834
  22342471.489    -7589976.17449  -5897978.08646  22342471.448    22342476.403
  20353112.523   -21477157.87949 -14376875.45248  20353111.854    20353115.702
  23305414.030    -5360788.17249  -4167652.38245  23305413.457    23305416.433
 04  1 17  3  4  0.0000000  0  9G29G 6G21G22G15G 3G26G18G16
  24090457.619    -1006377.69749   -248679.08844  24090457.244    24090460.766
  22114009.771    -9217513.72349  -6987197.59947  22114009.420    22114013.551
  20574919.810   -17534254.33349 -12999244.79048  20574918.990    20574922.337
  21783172.058   -12240086.11149  -9525441.76347  21783171.674    21783174.271
  21738785.896   -12635109.89849  -9630170.23447  21738784.992    21738790.050
  23785042.470    -2006242.07849  -1291556.37345  23785041.408    23785043.591
  22353095.937    -7534145.32749  -5854473.51646  22353095.804    22353100.597
  20352211.101   -21481894.90249 -14380566.62748  20352210.408    20352214.233
  23312567.941    -5323196.46749  -4138360.18345  23312567.066    23312569.676
 04  1 17  3  4 30.0000000  0  9G29G 6G21G22G15G 3G26G18G16
  24104722.283     -931418.26649   -190269.12844  24104721.638    24104725.279
  22130882.926    -9128844.17349  -6918104.47647  22130882.649    22130886.779
  20576112.647   -17527985.95049 -12994360.32948  20576111.824    20576115.179
  21771058.413   -12303744.23449  -9575045.47847  21771057.990    21771060.527
  21727192.828   -12696032.62149  -9677642.46247  21727191.799    21727196.833
  23767225.085    -2099871.38249  -1364514.22645  23767223.794    23767226.960
  22363830.538    -7477734.73549  -5810517.21146  22363830.452    22363835.193
  20351388.566   -21486217.19949 -14383934.64348  20351387.907    20351391.707
  23319803.443    -5285173.77949  -4108732.11545  23319802.556    23319805.142
 04  1 17  3  5  0.0000000  0  9G29G 6G21G22G15G 3G26G18G16
  24119058.902     -856076.99949   -131561.68944  24119058.444    24119062.767
  22147818.620    -9039846.58149  -6848755.73247  22147818.304    22147822.462
  20577352.371   -17521471.09549 -12989283.81648  20577351.576    20577354.899
  21759012.481   -12367046.07049  -9624371.56347  21759012.010    21759014.531
  21715624.037   -12756825.79249  -9725013.75647  21715623.127    21715628.260
  23749451.178    -2193272.45549  -1437294.26145  23749449.898    23749453.538
  22374677.065    -7420736.42649  -5766102.92946  22374676.953    22374681.613
  20350646.696   -21490115.71549 -14386972.43948  20350646.041    20350649.828
  23327122.460    -5246712.52149  -4078762.33945  23327121.420    23327124.064
 04  1 17  3  5 30.0000000  0 10G29G 6G 2G21G22G15G 3G26G18G16
  24133466.309     -780364.00049    -72564.52944  24133466.070    24133470.521
  22164815.031    -8950530.37749  -6779158.72647  22164814.628    22164818.808
                  -1094461.01649   -847459.01343
  20578637.717   -17514716.54049 -12984020.52448  20578636.936    20578640.246
  21747032.854   -12429998.84449  -9673425.65247  21747032.423    21747034.972
  21704078.780   -12817496.30149  -9772289.45947  21704077.879    21704082.967
  23731719.900    -2286450.18149  -1509900.24245  23731718.624    23731722.748
  22385633.465    -7363160.10049  -5721238.25246  22385633.368    22385637.969
  20349983.901   -21493598.83249 -14389686.54448  20349983.240    20349986.964
  23334522.932    -5207822.59049  -4048458.51545  23334522.165    23334524.437
 04  1 17  3  6  0.0000000  0 10G29G 6G 2G21G22G15G 3G26G18G16
  24147944.794     -704279.78349    -13278.13544  24147944.465    24147949.201
  22181871.859    -8860895.92649  -6709313.73947  22181871.510    22181875.755
                  -1099042.99349   -851029.65743
  20579969.105   -17507720.18149 -12978568.81148  20579968.324    20579971.571
  21735120.119   -12492600.33849  -9722206.01847  21735119.700    21735122.294
  21692557.500   -12878041.74449  -9819467.70647  21692556.496    21692561.451
  23714031.602    -2379400.59949  -1582329.08645  23714030.499    23714034.995
  22396699.931    -7305005.99749  -5675923.35846  22396699.837    22396704.437
  20349400.202   -21496666.12949 -14392076.63648  20349399.544    20349403.250
  23342004.629    -5168504.31549  -4017820.90845  23342004.166    23342006.125
 04  1 17  3  6 30.0000000  0 10G29G 6G 2G21G22G15G 3G26G18G16
  24162493.502     -627826.57249     46295.82844  24162492.993    24162497.853
  22198988.996    -8770945.13749  -6639222.24847  22198988.570    22198992.905
                  -1103210.83449   -854277.92843
  20581346.619   -17500481.51549 -12972928.29448  20581345.831    20581348.988
  21723274.413   -12554850.02849  -9770712.24547  21723273.950    21723276.593
  21681059.962   -12938461.72449  -9866548.19447  21681058.965    21681063.909
  23696387.309    -2472120.90449  -1654578.63345  23696386.313    23696391.137
  22407875.913    -7246276.44049  -5630160.06546  22407875.771    22407880.261
  20348895.516   -21499318.35249 -14394143.29648  20348894.853    20348898.537
  23349567.789    -5128759.94049  -3986851.27445  23349567.231    23349568.948
 04  1 17  3  7  0.0000000  0 10G29G 6G 2G21G22G15G 3G26G18G16
  24177111.206     -551008.66749    106153.93444  24177110.905    24177116.023
  22216165.597    -8680681.87249  -6568887.27147  22216165.139    22216169.531
                  -1106967.14949   -822899.26443
  20582770.024   -17493001.68249 -12967099.84548  20582769.215    20582772.363
  21711495.216   -12616749.35549  -9818945.46447  21711494.845    21711497.537
  21669586.002   -12998757.56049  -9913531.93847  21669585.029    21669590.045
  23678787.095    -2564610.64049  -1726648.54245  23678786.167    23678791.005
  22419160.678    -7186975.31549  -5583951.37546  22419160.538    22419164.864
  20348469.227   -21501558.49249 -14395888.84748  20348468.538    20348472.226
  23357211.560    -5088593.63449  -3955552.89845  23357210.600    23357212.395
 04  1 17  3  7 30.0000000  0 10G29G 6G 2G21G22G15G 3G26G18G16
  24191797.745     -473828.79749    166294.07944  24191797.437    24191803.215
  22233401.072    -8590108.65149  -6498310.77147  22233400.647    22233405.095
                  -1110313.22849   -825507.68043
  20584239.264   -17485280.84349 -12961083.60648  20584238.458    20584241.645
  21699782.787   -12678298.44449  -9866905.77347  21699782.403    21699785.174
  21658135.688   -13058928.75149  -9960418.56547  21658134.725    21658139.864
  23661231.069    -2656868.16049  -1798537.48145  23661230.161    23661235.013
  22430553.702    -7127105.14349  -5537299.29046  22430553.491    22430557.729
  20348121.088   -21503388.09849 -14397314.50548  20348120.429    20348124.050
  23364934.840    -5048008.14749  -3923927.87745  23364933.604    23364935.747
 04  1 17  3  8  0.0000000  0 10G29G 6G 2G21G22G15G 3G26G18G16
  24206553.535     -396286.96149    226716.28244  24206552.902    24206558.973
  22250695.622    -8499224.98449  -6427492.36347  22250695.264    22250699.706
                  -1113247.12649   -827797.00343
  20585754.940   -17477315.70649 -12954877.00348  20585754.139    20585757.386
  21688137.578   -12739494.39849  -9914590.90747  21688137.155    21688140.019
  21646709.761   -13118972.12749 -10007205.59547  21646708.875    21646713.960
  23643719.971    -2748888.55549  -1870241.64645  23643719.064    23643724.074
  22442054.994    -7066665.66549  -5490203.58446  22442054.799    22442059.018
  20347851.414   -21504805.20049 -14398418.73548  20347850.736    20347854.337
  23372737.692    -5007003.43749  -3891976.17245  23372736.531    23372738.606
 04  1 17  3  8 30.0000000  0 10G29G 6G 2G21G22G15G 3G26G18G16
  24221377.807     -318386.44149    287417.99444  24221377.497    24221382.862
  22268048.883    -8408033.87549  -6356434.38847  22268048.431    22268052.790
                  -1115770.51249   -798044.01643
  20587317.135   -17469106.70049 -12948480.36948  20587316.307    20587319.482
  21676559.385   -12800337.61749  -9962001.17647  21676558.991    21676561.908
  21635308.242   -13178888.20449 -10053893.42147  21635307.298    21635312.345
  23626254.129    -2840670.23049  -1941759.79445  23626253.426    23626258.548
  22453664.046    -7005660.12349  -5442666.78246  22453663.862    22453668.073
  20347659.796   -21505812.17849 -14399203.38148  20347659.109    20347662.704
  23380619.541    -4965582.52349  -3859700.13445  23380618.555    23380621.004
 04  1 17  3  9  0.0000000  0 10G29G 6G 2G21G22G15G 3G26G18G16
  24236270.296     -240129.23249    348397.68344  24236269.719    24236274.576
  22285460.121    -8316536.89049  -6285138.06646  22285459.727    22285464.009
                  -1117883.84449   -799692.30643
  20588925.866   -17460652.94249 -12941893.02248  20588925.014    20588928.144
  21665048.518   -12860827.58949 -10009136.19847  21665048.129    21665051.059
  21623930.934   -13238676.10649 -10100481.37347  21623929.975    21623934.988
  23608834.431    -2932210.24249  -2013089.61945  23608833.825    23608839.178
  22465380.440    -6944090.34449  -5394690.32146  22465380.211    22465384.458
  20347546.061   -21506409.58349 -14399668.88448  20347545.387    20347548.968
  23388580.050    -4923747.69149  -3827101.58945  23388579.603    23388582.024
 04  1 17  3  9 30.0000000  0 10G29G 6G 2G21G22G15G 3G26G18G16
  24251229.554     -161516.53348    409654.32744  24251229.114    24251234.290
  22302929.511    -8224735.08149  -6213604.22646  22302929.054    22302933.324
                  -1119586.53449   -801024.83443
  20590581.400   -17451952.81849 -12935113.70048  20590580.608    20590583.727
  21653605.132   -12920962.88049 -10055994.84547  21653604.742    21653607.695
  21612578.580   -13298333.77349 -10146967.84047  21612577.524    21612582.513
  23591461.193    -3023505.06649  -2084228.38745  23591460.623    23591466.498
  22477203.889    -6881957.43549  -5346275.05746  22477203.686    22477207.940
  20347510.296   -21506597.54349 -14399815.33848  20347509.622    20347513.188
  23396619.566    -4881500.13249  -3794181.44245  23396619.178    23396621.191
 04  1 17  3 10  0.0000000  0 10G29G 6G 2G21G22G15G 3G26G18G16
  24266255.987      -82549.31948    471187.24144  24266255.913    24266260.854
  22320456.832    -8132629.14949  -6141833.40246  22320456.280    22320460.561
                  -1120877.81349   -773632.51543
  20592284.288   -17443004.30349 -12928140.83048  20592283.489    20592286.610
  21642229.647   -12980741.64449 -10102575.67947  21642229.226    21642232.190
  21601251.251   -13357858.94549 -10193351.08247  21601250.196    21601255.252
  23574135.204    -3114550.97349  -2155173.20145  23574134.687    23574140.791
  22489134.405    -6819262.08649  -5297421.52346  22489134.147    22489138.427
  20347552.556   -21506375.66249 -14399642.43648  20347551.843    20347555.373
  23404737.739    -4838840.68349  -3760940.31945  23404737.038    23404738.862
 04  1 17  3 10 30.0000000  0 10G29G 6G 2G21G22G15G 3G26G18G16
  24281348.132       -3234.07248    532991.30944  24281348.074    24281353.398
  22338040.694    -8040225.12249  -6069830.28646  22338040.186    22338044.582
                  -1121762.67349   -774321.96343
  20594033.704   -17433811.12449 -12920977.31448  20594032.928    20594036.019
  21630921.343   -13040167.40549 -10148881.44447  21630920.855    21630923.817
  21589948.537   -13417255.06849 -10239633.76047  21589947.590    21589952.525
  23556856.625    -3205349.56749  -2225925.31045  23556856.168    23556862.095
  22501170.676    -6756010.69249  -5248134.72246  22501170.424    22501174.798
  20347671.740   -21505748.92049 -14399154.05948  20347671.050    20347674.537
  23412933.011    -4795775.69049  -3727383.20145  23412932.115    23412933.878
 04  1 17  3 11  0.0000000  0 10G29G 6G 2G21G22G15G 3G26G18G16
  24296507.730       76431.31748    595068.21044  24296507.928    24296513.799
  22355681.794    -7947520.56249  -5997593.00046  22355681.244    22355685.772
                  -1122237.44549   -774692.00143
  20595830.690   -17424368.02149 -12913619.05348  20595829.904    20595833.004
  21619680.962   -13099235.43049 -10194908.46447  21619680.557    21619683.526
  21578671.510   -13476516.86349 -10285811.75947  21578670.487    21578675.355
  23539626.684    -3295893.59649  -2296479.06445  23539626.166    23539632.113
  22513313.260    -6692201.06149  -5198412.92146  22513313.018    22513317.264
  20347868.599   -21504714.32549 -14398347.87248  20347867.934    20347871.413
  23421205.433    -4752303.28549  -3693508.60445  23421204.587    23421206.545
 04  1 17  3 11 30.0000000  0 10G29G 6G 2G21G22G15G 3G26G18G16
  24311733.167      156439.73549    657412.49844  24311733.735    24311738.196
  22373378.750    -7854522.27549  -5925126.82946  22373378.232    22373382.897
                  -1122307.66649   -774746.88844
  20597674.425   -17414679.18049 -12906069.30048  20597673.637    20597676.712
  21608507.904   -13157950.07849 -10240660.11947  21608507.541    21608510.500
  21567419.125   -13535648.55549 -10331888.38347  21567418.137    21567423.053
  23522444.808    -3386185.50949  -2366836.37245  23522444.280    23522449.972
  22525560.713    -6627840.27249  -5148261.64146  22525560.439    22525564.660
  20348142.043   -21503277.29049 -14397228.09548  20348141.365    20348144.846
  23429554.061    -4708430.40349  -3659321.95145  23429553.498    23429555.519
 04  1 17  3 12  0.0000000  0 10G29G 6G 2G21G22G15G 3G26G18G16
  24327024.053      236790.79548    720023.77144  24327024.213    24327028.747
  22391131.656    -7761230.25249  -5852431.77646  22391131.123    22391135.942
  24797088.311    -1121971.91449   -774485.28044                  24797083.137
  20599565.484   -17404741.95349 -12898326.00248  20599564.668    20599567.660
  21597402.603   -13216309.07949 -10286134.64647  21597402.210    21597405.144
  21556192.054   -13594647.18949 -10377861.32347  21556191.089    21556196.045
  23505311.793    -3476220.87049  -2436993.76145  23505311.221    23505316.801
  22537912.942    -6562928.62549  -5097681.12746  22537912.678    22537917.045
  20348492.227   -21501437.03449 -14395794.12048  20348491.542    20348495.053
  23437979.043    -4664157.42349  -3624823.54245  23437978.326    23437980.738
 04  1 17  3 12 30.0000000  0 10G29G 6G 2G21G22G15G 3G26G18G16
  24342378.770      317479.61348    782898.17544  24342378.415    24342383.418
  22408939.623    -7667649.21749  -5779511.52246  22408939.054    22408944.010
  24797229.034    -1121233.68749   -773910.08744                  24797226.527
  20601503.323   -17394558.35449 -12890390.72848  20601502.527    20601505.473
  21586364.451   -13274314.81249 -10331333.89847  21586364.061    21586366.993
  21544990.035   -13653514.73649 -10423732.11947  21544989.014    21544993.945
  23488227.641    -3565999.72249  -2506951.29045  23488226.949    23488232.489
  22550368.984    -6497470.99649  -5046675.17746  22550368.745    22550373.276
  20348918.405   -21499197.18549 -14394048.77348  20348917.727    20348921.248
  23446479.140    -4619489.39249  -3590017.28045  23446478.511    23446480.872
 04  1 17  3 13  0.0000000  0 10G29G 6G 2G21G22G15G 3G26G18G16
  24357797.858      398509.71548    846038.45244  24357796.989    24357803.096
  22426803.211    -7573775.36849  -5706363.08646  22426802.707    22426807.715
  24797446.840    -1120088.04849   -773017.38044                  24797446.056
  20603489.286   -17384121.91849 -12882258.43348  20603488.492    20603491.483
  21575394.718   -13331960.96549 -10376252.96148  21575394.355    21575397.273
  21533814.122   -13712244.52949 -10469495.57447  21533813.101    21533818.047
  23471193.707    -3655513.63149  -2576702.35645  23471193.021    23471198.547
  22562929.712    -6431463.88949  -4995241.05746  22562929.469    22562934.088
  20349421.630   -21496552.77049 -14391988.18348  20349420.939    20349424.514
  23455055.163    -4574423.05949  -3554900.65645  23455054.424    23455056.832
 04  1 17  3 13 30.0000000  0 10G29G 6G 2G21G22G15G 3G26G18G16
  24373281.191      479873.20648    909438.61044  24373280.008    24373285.207
  22444721.164    -7479616.06749  -5632992.23646  22444720.673    22444725.731
                  -1118541.03749   -771811.93444
  20605522.484   -17373437.38349 -12873932.82048  20605521.714    20605524.705
  21564492.550   -13389252.63549 -10420895.80848  21564492.103    21564494.965
  21522663.595   -13770841.10049 -10515155.23347  21522662.581    21522667.604
  23454209.524    -3744765.48549  -2646249.22645  23454208.820    23454214.513
  22575593.452    -6364914.80849  -4943384.63546  22575593.232    22575598.033
  20350000.578   -21493510.40949 -14389617.50948  20349999.878    20350003.442
  23463705.409    -4528965.82949  -3519479.45045  23463704.576    23463707.123
 04  1 17  3 14  0.0000000  0 10G29G 6G 2G21G22G15G 3G26G18G16
  24388828.251      561570.08148    973098.53544  24388826.737    24388831.369
  22462693.547    -7385170.91349  -5559398.63246  22462693.071    22462698.162
                  -1116591.07449   -712785.73343
  20607603.602   -17362501.62949 -12865411.44848  20607602.754    20607605.731
  21553658.300   -13446186.93549 -10465260.18148  21553657.853    21553660.740
  21511539.013   -13829301.11749 -10560708.47547  21511537.972    21511543.059
  23437275.830    -3833750.31549  -2715588.02345  23437275.192    23437281.205
  22588360.275    -6297823.84249  -4891105.94446  22588360.084    22588364.947
  20350655.507   -21490068.54249 -14386935.52548  20350654.815    20350658.401
  23472429.833    -4483117.95149  -3483753.84545  23472429.195    23472431.850
 04  1 17  3 14 30.0000000  0 10G29G 6G 2G21G22G15G 3G26G18G16
  24404437.857      643597.23748   1037015.82344  24404436.550    24404440.413
  22480719.808    -7290442.73149  -5485584.48946  22480719.272    22480724.417
                  -1114239.84849   -710935.38643
  20609732.256   -17351315.07949 -12856694.64348  20609731.400    20609734.441
  21542891.866   -13502764.72249 -10509346.74848  21542891.437    21542894.346
  21500440.342   -13887624.74149 -10606155.43347  21500439.346    21500444.419
  23420393.460    -3922466.57649  -2784717.55545  23420392.770    23420399.094
  22601229.664    -6230194.05949  -4838407.40946  22601229.485    22601234.478
  20351386.058   -21486229.24149 -14383943.84948  20351385.389    20351389.024
  23481227.927    -4436882.80249  -3447726.45445  23481227.405    23481230.253
 04  1 17  3 15  0.0000000  0 10G29G 6G 2G21G22G15G 3G26G18G16
  24420109.487      725953.00748   1101189.16344  24420108.541    24420112.488
  22498799.488    -7195433.03449  -5411550.97946  22498799.075    22498804.232
                  -1111487.67849   -708761.30743
  20611908.885   -17339876.15549 -12847781.19448  20611908.073    20611911.163
  21532193.491   -13558984.73349 -10553154.53848  21532193.063    21532196.041
  21489367.859   -13945810.62449 -10651495.07247  21489366.901    21489371.988
  23403562.500    -4010911.15949  -2853635.37345  23403561.952    23403568.646
  22614201.359    -6162027.30349  -4785290.45446  22614201.185    22614206.110
  20352192.192   -21481992.86049 -14380642.77048  20352191.541    20352195.149
  23490099.437    -4390261.91749  -3411398.49645  23490098.914    23490102.209
 04  1 17  3 15 30.0000000  0 10G29G 6G 2G21G22G15G 3G26G18G16
  24435843.388      808634.90848   1165616.66144  24435842.077    24435846.543
  22516932.387    -7100144.03549  -5337299.84046  22516932.012    22516937.132
                  -1108335.40949   -687865.57243
  20614133.731   -17328184.33649 -12838670.68848  20614132.923    20614136.034
  21521563.128   -13614846.85849 -10596683.46148  21521562.772    21521565.784
  21478321.847   -14003857.81549 -10696726.64147  21478320.888    21478325.968
  23386784.062    -4099081.43349  -2922339.44745  23386783.586    23386790.687
  22627274.644    -6093325.93349  -4731756.91146  22627274.394    22627279.499
  20353073.711   -21477360.52649 -14377033.15248  20353073.031    20353076.629
  23499044.089    -4343257.89449  -3374771.99045  23499043.450    23499046.979
 04  1 17  3 16  0.0000000  0 10G29G 6G 2G21G22G15G 3G26G18G16
  24451638.396      891640.18848   1230296.07944  24451637.284    24451642.154
  22535118.011    -7004578.10249  -5262832.90346  22535117.653    22535122.793
                  -1104784.33349   -685143.43043
  20616406.713   -17316239.79249 -12829363.23948  20616405.899    20616408.985
  21511001.020   -13670351.11849 -10639933.51147  21511000.624    21511003.610
  21467302.170   -14061765.90349 -10741849.80247  21467301.247    21467306.325
  23370058.320    -4186975.66649  -2990828.43845  23370057.946    23370065.084
  22640449.174    -6024092.74349  -4677808.94946  22640448.983    22640454.187
  20354030.266   -21472333.71649 -14373116.14348  20354029.589    20354033.221
  23508061.227    -4295873.44349  -3337849.04245  23508060.209    23508064.092
 04  1 17  3 16 30.0000000  0 10G29G 6G 2G21G22G15G 3G26G18G16
  24467494.380      974965.66348   1295225.02544  24467493.826
  22553355.715    -6908738.16649  -5188152.45346  22553355.357    22553360.520
                  -1100835.81649   -682150.88543
  20618727.776   -17304042.22649 -12819858.63348  20618726.982    20618730.098
  21500506.896   -13725498.01749 -10682905.10148  21500506.519    21500509.466
  21456309.146   -14119534.81549 -10786864.52247  21456308.177    21456313.183
  23353385.291    -4274591.77949  -3059100.70345  23353385.048    23353392.312
  22653724.345    -5954331.01149  -4623449.14446  22653724.064    22653729.366
  20355061.433   -21466914.70649 -14368893.52848  20355060.755    20355064.394
  23517149.905    -4248111.95749  -3300632.31345  23517148.867    23517152.892
 04  1 17  3 17  0.0000000  0 10G29G 6G 2G21G22G15G 3G26G18G16
  24483411.170     1058609.79848   1360402.28544  24483410.450
  22571645.400    -6812625.44349  -5113259.45946  22571644.865    22571650.145
                  -1096490.11849   -663123.30743
  20621097.301   -17291590.24649 -12810155.79148  20621096.522    20621099.592
  21490081.019   -13780286.40149 -10725597.32848  21490080.617    21490083.587
  21445342.889   -14177162.82649 -10831769.44847  21445341.879    21445346.905
  23336765.926    -4361926.44949  -3127153.67345  23336765.863    23336773.194
  22667099.780    -5884042.24249  -4568678.66746  22667099.484    22667104.864
  20356167.262   -21461103.42649 -14364365.25248  20356166.569    20356170.248
  23526309.800    -4199975.00349  -3263122.97245  23526309.065    23526313.571
 04  1 17  3 17 30.0000000  0 10G29G 6G 2G21G22G15G 3G26G18G16
                   1142571.69248   1425827.10944
  22589986.592    -6716240.54849  -5038154.35846  22589986.129    22589991.533
                  -1091746.77049   -659425.81143
  20623515.746   -17278881.54449 -12800252.90548  20623514.938    20623517.944
  21479723.633   -13834714.59949 -10768008.89248  21479723.247    21479726.233
  21434403.749   -14234647.57149 -10876562.73747  21434402.802    21434407.828
  23320201.012    -4448975.74649  -3194984.27245  23320200.920    23320207.984
  22680575.351    -5813227.45449  -4513498.29246  22680575.035    22680580.385
  20357347.806   -21454899.52149 -14359531.03048  20357347.102    20357350.847
  23535540.887    -4151463.86949  -3225322.09445  23535540.344    23535545.401
 04  1 17  3 18  0.0000000  0 10G29G 6G 2G21G22G15G 3G26G18G16
  24515425.855     1226844.27348   1491494.09644  24515424.663    24515428.902
  22608378.340    -6619590.24149  -4962842.45846  22608377.836    22608383.452
                  -1086611.26649   -655421.09443
  20625982.128   -17265920.30449 -12790153.22748  20625981.360    20625984.320
  21469433.948   -13888787.20049 -10810143.36348  21469433.561    21469436.566
  21423491.306   -14291992.77949 -10921247.30447  21423490.287    21423495.278
  23303690.260    -4535741.60049  -3262594.01245  23303689.981    23303696.833
  22694149.709    -5741893.74249  -4457913.57946  22694149.397    22694154.864
  20358601.877   -21448308.83249 -14354395.42148  20358601.214    20358605.025
  23544842.064    -4102585.45649  -3187235.02245  23544841.476    23544846.887
 04  1 17  3 18 30.0000000  0 10G29G 6G 2G21G22G15G 3G26G18G16
  24531522.516     1311429.47148   1557404.60444  24531521.251    24531525.568
  22626821.069    -6522672.41749  -4887322.08846  22626820.419    22626826.335
                  -1081080.18249   -638271.61943
  20628497.617   -17252701.41449 -12779852.79548  20628496.849    20628499.736
  21459212.798   -13942499.45149 -10851997.05148  21459212.456    21459215.420
  21412606.331   -14349193.17149 -10965819.02947  21412605.362    21412610.287
  23287234.752    -4622217.25849  -3329977.63345  23287234.462    23287240.916
  22707823.081    -5670039.25049  -4401923.07046  22707822.802    22707828.256
  20359930.169   -21441328.38149 -14348956.10348  20359929.494    20359933.383
  23554213.961    -4053337.78249  -3148860.22545  23554212.918    23554218.506
 04  1 17  3 19  0.0000000  0 10G29G 6G 2G21G22G15G 3G26G18G16
  24547677.069     1396319.24148   1623552.46244  24547676.245
  22645313.200    -6425494.67149  -4811599.19846  22645312.517    22645318.741
                  -1075160.21349   -633659.26443
  20631061.088   -17239230.04049 -12769355.61348  20631060.314    20631063.175
  21449059.300   -13995856.71249 -10893574.12148  21449058.925    21449061.835
  21401748.089   -14406253.56249 -11010281.66047  21401747.119    21401752.001
  23270833.958    -4708405.78249  -3397137.51845  23270833.577    23270839.522
  22721594.164    -5597671.94349  -4345532.96446  22721593.888    22721599.238
  20361331.408   -21433964.60749 -14343218.08948  20361330.764    20361334.689
  23563654.449    -4003729.08449  -3110204.11945  23563653.003    23563658.710
 04  1 17  3 19 30.0000000  0 10G29G 6G 2G21G22G15G 3G26G18G16
                   1481519.33248   1689942.11044
  22663855.904    -6328051.11449  -4735669.16946  22663855.260    22663861.658
                  -1068844.13249   -628738.41943
  20633674.278   -17225497.39049 -12758654.84248  20633673.525    20633676.428
  21438974.912   -14048850.76649 -10934868.16948  21438974.527    21438977.384
  21390918.232   -14463164.85449 -11054628.10647  21390917.236    21390921.976
  23254489.345    -4794296.36249  -3464065.21245  23254489.082    23254494.851
  22735463.776    -5524786.55349  -4288739.13946  22735463.437    22735468.809
  20362807.028   -21426210.33849 -14337175.79148  20362806.382    20362810.271
  23573164.189    -3953753.94349  -3071262.45345  23573162.939    23573168.698
 04  1 17  3 20  0.0000000  0 10G29G 6G 2G21G22G15G 3G26G18G16
                   1567021.09448   1756566.88144
  22682447.593    -6230349.94049  -4659538.39346  22682447.079    22682453.654
                  -1062139.14649   -613526.12543
  20636336.217   -17211508.81649 -12747754.65948  20636335.462    20636338.431
  21428958.460   -14101487.45249 -10975883.76148  21428958.111    21428960.945
  21380115.714   -14519932.38349 -11098862.53547  21380114.725    21380119.325
  23238201.020    -4879892.80449  -3530763.72945  23238200.708    23238206.134
  22749430.233    -5451391.46649  -4231548.16846  22749429.928    22749435.402
  20364355.482   -21418073.49749 -14330835.39248  20364354.820    20364358.663
  23582741.822    -3903421.04949  -3032042.02145  23582740.868    23582746.624
 04  1 17  3 20 30.0000000  0 10G29G 6G 2G21G22G15G 3G26G18G16
                   1652825.42648   1868247.43443
  22701088.707    -6132389.96049  -4583205.95246  22701088.293    22701094.832
                  -1055043.13649   -607997.65843
  20639047.624   -17197260.38149 -12736651.97448  20639046.875    20639049.846
  21419010.731   -14153763.58649 -11016618.39248  21419010.348    21419013.108
  21369341.195   -14576552.34649 -11142981.97647  21369340.234    21369344.846
  23221969.884    -4965189.30849  -3597228.52545  23221969.604    23221974.615
  22763493.854    -5377486.15449  -4173959.61446  22763493.502    22763498.940
  20365977.196   -21409551.43049 -14324194.81048  20365976.508    20365980.314
  23592387.706    -3852729.71349  -2992542.31945  23592387.041    23592393.081
 04  1 17  3 21  0.0000000  0 10G29G 6G 2G21G22G15G 3G26G18G16
                   1738925.46548   1935343.79043
  22719778.065    -6034177.59349  -4506676.85746  22719777.654    22719784.116
                  -1047561.05548   -602170.50843
  20641807.838   -17182755.56249 -12725349.51148  20641807.064    20641809.944
  21409130.834   -14205682.97949 -11057075.04048  21409130.427    21409133.145
  21358594.264   -14633027.75149 -11186988.77047  21358593.333    21358597.982
  23205795.243    -5050187.57449  -3663460.91045  23205794.922    23205799.902
  22777653.128    -5303077.19549  -4115978.59845  22777652.910    22777658.467
  20367671.179   -21400649.53749 -14317258.25748  20367670.505    20367674.296
  23602100.661    -3801686.74449  -2952768.55845  23602100.276    23602106.232
 04  1 17  3 21 30.0000000  0 10G29G 6G 2G21G22G15G 3G26G18G16
                   1825327.94157   2002682.05043
  22738516.423    -5935708.31149  -4429947.56846  22738515.953    22738522.241
                  -1039687.52048   -588707.30243
  20644618.108   -17167987.47849 -12713841.91848  20644617.339    20644620.205
  21399320.105   -14257238.96849 -11097248.53348  21399319.719    21399322.366
  21347876.290   -14689350.75949 -11230876.82447  21347875.383    21347879.962
  23189679.053    -5134878.51249  -3729453.83345  23189678.710    23189683.423
  22791909.031    -5228160.57949  -4057602.01145  22791908.940    22791914.547
  20369438.428   -21391362.60349 -14310021.68248  20369437.762    20369441.535
  23611881.633    -3750287.89949  -2912717.53645  23611880.995    23611887.232
 04  1 17  3 22  0.0000000  0  9G 6G 2G21G22G15G 3G26G18G16
  22757302.264    -5836989.03149  -4353023.46246  22757301.827    22757307.914
                  -1031428.37649   -582288.42643
  20647477.770   -17152959.77449 -12702132.01148  20647476.989    20647479.926
  21389577.687   -14308435.96149 -11137142.27548  21389577.314    21389579.900
  21337186.652   -14745525.32349 -11274649.19447  21337185.763    21337190.149
  23173620.884    -5219264.34449  -3795208.98745  23173620.526    23173625.144
  22806260.284    -5152743.64249  -3998835.58145  22806260.214    22806265.983
  20371277.812   -21381696.55649 -14302489.68648  20371277.138    20371280.914
  23621729.064    -3698540.51849  -2872394.89745  23621728.119    23621734.571
